<?xml version="1.0" encoding="UTF-8" standalone="no" ?>
<gpx xmlns="http://www.topografix.com/GPX/1/1" xmlns:xsi="http://www.w3.org/2001/XMLSchema-instance" xsi:schemaLocation="http://www.topografix.com/GPX/1/1 http://www.topografix.com/GPX/1/1/gpx.xsd" version="1.1" creator="VisuGPX - https://www.visugpx.com">
  <metadata>
    <name>Mont du lyonnais St Martin</name>
    <desc><![CDATA[Circuits VTT autour de St martin en Haut pour vacances 2019]]></desc>
  </metadata>
  <trk>
    <name><![CDATA[5528832-l'aubepin-larajasse-st-sym]]></name>
    <trkseg>
      <trkpt lat="45.65837" lon="4.55878">
        <ele>706</ele>
        <time>2019-07-29T10:06:24Z</time>
      </trkpt>
      <trkpt lat="45.65884" lon="4.5576">
        <ele>707</ele>
        <time>2019-07-29T10:06:46Z</time>
      </trkpt>
      <trkpt lat="45.65909" lon="4.55767">
        <ele>710</ele>
        <time>2019-07-29T10:06:52Z</time>
      </trkpt>
      <trkpt lat="45.659" lon="4.5573">
        <ele>707</ele>
        <time>2019-07-29T10:06:59Z</time>
      </trkpt>
      <trkpt lat="45.65867" lon="4.55516">
        <ele>693</ele>
        <time>2019-07-29T10:07:34Z</time>
      </trkpt>
      <trkpt lat="45.65863" lon="4.5526">
        <ele>685</ele>
        <time>2019-07-29T10:08:16Z</time>
      </trkpt>
      <trkpt lat="45.6589" lon="4.55149">
        <ele>677</ele>
        <time>2019-07-29T10:08:35Z</time>
      </trkpt>
      <trkpt lat="45.6578" lon="4.55063">
        <ele>671</ele>
        <time>2019-07-29T10:09:05Z</time>
      </trkpt>
      <trkpt lat="45.65857" lon="4.54835">
        <ele>647</ele>
        <time>2019-07-29T10:09:46Z</time>
      </trkpt>
      <trkpt lat="45.65887" lon="4.54874">
        <ele>649</ele>
        <time>2019-07-29T10:09:55Z</time>
      </trkpt>
      <trkpt lat="45.65849" lon="4.54788">
        <ele>643</ele>
        <time>2019-07-29T10:10:12Z</time>
      </trkpt>
      <trkpt lat="45.65834" lon="4.54668">
        <ele>630</ele>
        <time>2019-07-29T10:10:32Z</time>
      </trkpt>
      <trkpt lat="45.65806" lon="4.54513">
        <ele>625</ele>
        <time>2019-07-29T10:10:58Z</time>
      </trkpt>
      <trkpt lat="45.65819" lon="4.54428">
        <ele>625</ele>
        <time>2019-07-29T10:11:12Z</time>
      </trkpt>
      <trkpt lat="45.65857" lon="4.54277">
        <ele>636</ele>
        <time>2019-07-29T10:11:38Z</time>
      </trkpt>
      <trkpt lat="45.65824" lon="4.54014">
        <ele>659</ele>
        <time>2019-07-29T10:12:22Z</time>
      </trkpt>
      <trkpt lat="45.6583" lon="4.53814">
        <ele>667</ele>
        <time>2019-07-29T10:12:55Z</time>
      </trkpt>
      <trkpt lat="45.65825" lon="4.53584">
        <ele>678</ele>
        <time>2019-07-29T10:13:32Z</time>
      </trkpt>
      <trkpt lat="45.65714" lon="4.53475">
        <ele>688</ele>
        <time>2019-07-29T10:14:04Z</time>
      </trkpt>
      <trkpt lat="45.65627" lon="4.53374">
        <ele>683</ele>
        <time>2019-07-29T10:14:30Z</time>
      </trkpt>
      <trkpt lat="45.65584" lon="4.53196">
        <ele>677</ele>
        <time>2019-07-29T10:15:01Z</time>
      </trkpt>
      <trkpt lat="45.65516" lon="4.53099">
        <ele>672</ele>
        <time>2019-07-29T10:15:23Z</time>
      </trkpt>
      <trkpt lat="45.65442" lon="4.5303">
        <ele>676</ele>
        <time>2019-07-29T10:15:44Z</time>
      </trkpt>
      <trkpt lat="45.65353" lon="4.52914">
        <ele>686</ele>
        <time>2019-07-29T10:16:12Z</time>
      </trkpt>
      <trkpt lat="45.65278" lon="4.52815">
        <ele>693</ele>
        <time>2019-07-29T10:16:36Z</time>
      </trkpt>
      <trkpt lat="45.65119" lon="4.52802">
        <ele>687</ele>
        <time>2019-07-29T10:17:13Z</time>
      </trkpt>
      <trkpt lat="45.64969" lon="4.52648">
        <ele>694</ele>
        <time>2019-07-29T10:17:56Z</time>
      </trkpt>
      <trkpt lat="45.64763" lon="4.52009">
        <ele>701</ele>
        <time>2019-07-29T10:19:51Z</time>
      </trkpt>
      <trkpt lat="45.64744" lon="4.51853">
        <ele>693</ele>
        <time>2019-07-29T10:20:17Z</time>
      </trkpt>
      <trkpt lat="45.64804" lon="4.51645">
        <ele>675</ele>
        <time>2019-07-29T10:20:53Z</time>
      </trkpt>
      <trkpt lat="45.64838" lon="4.51471">
        <ele>658</ele>
        <time>2019-07-29T10:21:23Z</time>
      </trkpt>
      <trkpt lat="45.64978" lon="4.51421">
        <ele>661</ele>
        <time>2019-07-29T10:21:57Z</time>
      </trkpt>
      <trkpt lat="45.65026" lon="4.51314">
        <ele>662</ele>
        <time>2019-07-29T10:22:17Z</time>
      </trkpt>
      <trkpt lat="45.65273" lon="4.51042">
        <ele>661</ele>
        <time>2019-07-29T10:23:30Z</time>
      </trkpt>
      <trkpt lat="45.65236" lon="4.50997">
        <ele>662</ele>
        <time>2019-07-29T10:23:41Z</time>
      </trkpt>
      <trkpt lat="45.65153" lon="4.51074">
        <ele>662</ele>
        <time>2019-07-29T10:24:05Z</time>
      </trkpt>
      <trkpt lat="45.65032" lon="4.51091">
        <ele>665</ele>
        <time>2019-07-29T10:24:33Z</time>
      </trkpt>
      <trkpt lat="45.64922" lon="4.50984">
        <ele>678</ele>
        <time>2019-07-29T10:25:04Z</time>
      </trkpt>
      <trkpt lat="45.64783" lon="4.50964">
        <ele>689</ele>
        <time>2019-07-29T10:25:37Z</time>
      </trkpt>
      <trkpt lat="45.64723" lon="4.50904">
        <ele>692</ele>
        <time>2019-07-29T10:25:54Z</time>
      </trkpt>
      <trkpt lat="45.64691" lon="4.50782">
        <ele>691</ele>
        <time>2019-07-29T10:26:15Z</time>
      </trkpt>
      <trkpt lat="45.64706" lon="4.50675">
        <ele>695</ele>
        <time>2019-07-29T10:26:33Z</time>
      </trkpt>
      <trkpt lat="45.64669" lon="4.50585">
        <ele>692</ele>
        <time>2019-07-29T10:26:50Z</time>
      </trkpt>
      <trkpt lat="45.64543" lon="4.50452">
        <ele>695</ele>
        <time>2019-07-29T10:27:26Z</time>
      </trkpt>
      <trkpt lat="45.64454" lon="4.50117">
        <ele>696</ele>
        <time>2019-07-29T10:28:25Z</time>
      </trkpt>
      <trkpt lat="45.64351" lon="4.49941">
        <ele>697</ele>
        <time>2019-07-29T10:29:02Z</time>
      </trkpt>
      <trkpt lat="45.64297" lon="4.49827">
        <ele>691</ele>
        <time>2019-07-29T10:29:25Z</time>
      </trkpt>
      <trkpt lat="45.6428" lon="4.49716">
        <ele>691</ele>
        <time>2019-07-29T10:29:43Z</time>
      </trkpt>
      <trkpt lat="45.64328" lon="4.49447">
        <ele>685</ele>
        <time>2019-07-29T10:30:29Z</time>
      </trkpt>
      <trkpt lat="45.64247" lon="4.49078">
        <ele>668</ele>
        <time>2019-07-29T10:31:32Z</time>
      </trkpt>
      <trkpt lat="45.64193" lon="4.48645">
        <ele>656</ele>
        <time>2019-07-29T10:32:44Z</time>
      </trkpt>
      <trkpt lat="45.64202" lon="4.48351">
        <ele>639</ele>
        <time>2019-07-29T10:33:32Z</time>
      </trkpt>
      <trkpt lat="45.64145" lon="4.48263">
        <ele>633</ele>
        <time>2019-07-29T10:33:51Z</time>
      </trkpt>
      <trkpt lat="45.64079" lon="4.48048">
        <ele>615</ele>
        <time>2019-07-29T10:34:30Z</time>
      </trkpt>
      <trkpt lat="45.63988" lon="4.47651">
        <ele>610</ele>
        <time>2019-07-29T10:35:38Z</time>
      </trkpt>
      <trkpt lat="45.63781" lon="4.47621">
        <ele>601</ele>
        <time>2019-07-29T10:36:26Z</time>
      </trkpt>
      <trkpt lat="45.63635" lon="4.47475">
        <ele>600</ele>
        <time>2019-07-29T10:37:08Z</time>
      </trkpt>
      <trkpt lat="45.6341" lon="4.47353">
        <ele>600</ele>
        <time>2019-07-29T10:38:04Z</time>
      </trkpt>
      <trkpt lat="45.63501" lon="4.46767">
        <ele>564</ele>
        <time>2019-07-29T10:39:42Z</time>
      </trkpt>
      <trkpt lat="45.63086" lon="4.47033">
        <ele>575</ele>
        <time>2019-07-29T10:41:28Z</time>
      </trkpt>
      <trkpt lat="45.6297" lon="4.47005">
        <ele>563</ele>
        <time>2019-07-29T10:41:56Z</time>
      </trkpt>
      <trkpt lat="45.62913" lon="4.47205">
        <ele>562</ele>
        <time>2019-07-29T10:42:31Z</time>
      </trkpt>
      <trkpt lat="45.62937" lon="4.47319">
        <ele>554</ele>
        <time>2019-07-29T10:42:51Z</time>
      </trkpt>
      <trkpt lat="45.62867" lon="4.47454">
        <ele>554</ele>
        <time>2019-07-29T10:43:18Z</time>
      </trkpt>
      <trkpt lat="45.62856" lon="4.47675">
        <ele>569</ele>
        <time>2019-07-29T10:43:54Z</time>
      </trkpt>
      <trkpt lat="45.6284" lon="4.47864">
        <ele>575</ele>
        <time>2019-07-29T10:44:25Z</time>
      </trkpt>
      <trkpt lat="45.62951" lon="4.47999">
        <ele>587</ele>
        <time>2019-07-29T10:44:59Z</time>
      </trkpt>
      <trkpt lat="45.62934" lon="4.48173">
        <ele>591</ele>
        <time>2019-07-29T10:45:28Z</time>
      </trkpt>
      <trkpt lat="45.62966" lon="4.48244">
        <ele>594</ele>
        <time>2019-07-29T10:45:42Z</time>
      </trkpt>
      <trkpt lat="45.6297" lon="4.48319">
        <ele>598</ele>
        <time>2019-07-29T10:45:54Z</time>
      </trkpt>
      <trkpt lat="45.62784" lon="4.48151">
        <ele>585</ele>
        <time>2019-07-29T10:46:46Z</time>
      </trkpt>
      <trkpt lat="45.62706" lon="4.48168">
        <ele>574</ele>
        <time>2019-07-29T10:47:04Z</time>
      </trkpt>
      <trkpt lat="45.62712" lon="4.48248">
        <ele>576</ele>
        <time>2019-07-29T10:47:17Z</time>
      </trkpt>
      <trkpt lat="45.62567" lon="4.48542">
        <ele>583</ele>
        <time>2019-07-29T10:48:16Z</time>
      </trkpt>
      <trkpt lat="45.62472" lon="4.48784">
        <ele>590</ele>
        <time>2019-07-29T10:49:01Z</time>
      </trkpt>
      <trkpt lat="45.62609" lon="4.4919">
        <ele>605</ele>
        <time>2019-07-29T10:50:15Z</time>
      </trkpt>
      <trkpt lat="45.62634" lon="4.49327">
        <ele>594</ele>
        <time>2019-07-29T10:50:38Z</time>
      </trkpt>
      <trkpt lat="45.62517" lon="4.49409">
        <ele>577</ele>
        <time>2019-07-29T10:51:08Z</time>
      </trkpt>
      <trkpt lat="45.62417" lon="4.4931">
        <ele>563</ele>
        <time>2019-07-29T10:51:37Z</time>
      </trkpt>
      <trkpt lat="45.6239" lon="4.49462">
        <ele>554</ele>
        <time>2019-07-29T10:52:02Z</time>
      </trkpt>
      <trkpt lat="45.62355" lon="4.49372">
        <ele>549</ele>
        <time>2019-07-29T10:52:19Z</time>
      </trkpt>
      <trkpt lat="45.62316" lon="4.49306">
        <ele>546</ele>
        <time>2019-07-29T10:52:33Z</time>
      </trkpt>
      <trkpt lat="45.62285" lon="4.49325">
        <ele>551</ele>
        <time>2019-07-29T10:52:41Z</time>
      </trkpt>
      <trkpt lat="45.62193" lon="4.49209">
        <ele>552</ele>
        <time>2019-07-29T10:53:10Z</time>
      </trkpt>
      <trkpt lat="45.62221" lon="4.49419">
        <ele>564</ele>
        <time>2019-07-29T10:53:45Z</time>
      </trkpt>
      <trkpt lat="45.62143" lon="4.49505">
        <ele>578</ele>
        <time>2019-07-29T10:54:08Z</time>
      </trkpt>
      <trkpt lat="45.62163" lon="4.49662">
        <ele>577</ele>
        <time>2019-07-29T10:54:34Z</time>
      </trkpt>
      <trkpt lat="45.6207" lon="4.49823">
        <ele>608</ele>
        <time>2019-07-29T10:55:08Z</time>
      </trkpt>
      <trkpt lat="45.62052" lon="4.49973">
        <ele>605</ele>
        <time>2019-07-29T10:55:33Z</time>
      </trkpt>
      <trkpt lat="45.61902" lon="4.50082">
        <ele>620</ele>
        <time>2019-07-29T10:56:12Z</time>
      </trkpt>
      <trkpt lat="45.61986" lon="4.50389">
        <ele>635</ele>
        <time>2019-07-29T10:57:06Z</time>
      </trkpt>
      <trkpt lat="45.61959" lon="4.5049">
        <ele>641</ele>
        <time>2019-07-29T10:57:24Z</time>
      </trkpt>
      <trkpt lat="45.61776" lon="4.5034">
        <ele>662</ele>
        <time>2019-07-29T10:58:13Z</time>
      </trkpt>
      <trkpt lat="45.61689" lon="4.50224">
        <ele>680</ele>
        <time>2019-07-29T10:58:41Z</time>
      </trkpt>
      <trkpt lat="45.61455" lon="4.50077">
        <ele>700</ele>
        <time>2019-07-29T10:59:40Z</time>
      </trkpt>
      <trkpt lat="45.61407" lon="4.50026">
        <ele>698</ele>
        <time>2019-07-29T10:59:54Z</time>
      </trkpt>
      <trkpt lat="45.61286" lon="4.50069">
        <ele>696</ele>
        <time>2019-07-29T11:00:23Z</time>
      </trkpt>
      <trkpt lat="45.61151" lon="4.49923">
        <ele>686</ele>
        <time>2019-07-29T11:01:03Z</time>
      </trkpt>
      <trkpt lat="45.60809" lon="4.49605">
        <ele>640</ele>
        <time>2019-07-29T11:02:38Z</time>
      </trkpt>
      <trkpt lat="45.60755" lon="4.49614">
        <ele>642</ele>
        <time>2019-07-29T11:02:51Z</time>
      </trkpt>
      <trkpt lat="45.60719" lon="4.49545">
        <ele>648</ele>
        <time>2019-07-29T11:03:05Z</time>
      </trkpt>
      <trkpt lat="45.60563" lon="4.49609">
        <ele>681</ele>
        <time>2019-07-29T11:03:43Z</time>
      </trkpt>
      <trkpt lat="45.60491" lon="4.49511">
        <ele>704</ele>
        <time>2019-07-29T11:04:06Z</time>
      </trkpt>
      <trkpt lat="45.60134" lon="4.4927">
        <ele>738</ele>
        <time>2019-07-29T11:05:38Z</time>
      </trkpt>
      <trkpt lat="45.59866" lon="4.49034">
        <ele>783</ele>
        <time>2019-07-29T11:06:52Z</time>
      </trkpt>
      <trkpt lat="45.59782" lon="4.4903">
        <ele>787</ele>
        <time>2019-07-29T11:07:11Z</time>
      </trkpt>
      <trkpt lat="45.59761" lon="4.49202">
        <ele>801</ele>
        <time>2019-07-29T11:07:40Z</time>
      </trkpt>
      <trkpt lat="45.59563" lon="4.49515">
        <ele>835</ele>
        <time>2019-07-29T11:08:49Z</time>
      </trkpt>
      <trkpt lat="45.59524" lon="4.49858">
        <ele>822</ele>
        <time>2019-07-29T11:09:46Z</time>
      </trkpt>
      <trkpt lat="45.59452" lon="4.49841">
        <ele>827</ele>
        <time>2019-07-29T11:10:03Z</time>
      </trkpt>
      <trkpt lat="45.5908" lon="4.5009">
        <ele>875</ele>
        <time>2019-07-29T11:11:39Z</time>
      </trkpt>
      <trkpt lat="45.58842" lon="4.50425">
        <ele>899</ele>
        <time>2019-07-29T11:12:57Z</time>
      </trkpt>
      <trkpt lat="45.58744" lon="4.50487">
        <ele>901</ele>
        <time>2019-07-29T11:13:22Z</time>
      </trkpt>
      <trkpt lat="45.58631" lon="4.50476">
        <ele>908</ele>
        <time>2019-07-29T11:13:48Z</time>
      </trkpt>
      <trkpt lat="45.58507" lon="4.5051">
        <ele>924</ele>
        <time>2019-07-29T11:14:18Z</time>
      </trkpt>
      <trkpt lat="45.58172" lon="4.50533">
        <ele>911</ele>
        <time>2019-07-29T11:15:36Z</time>
      </trkpt>
      <trkpt lat="45.58062" lon="4.50492">
        <ele>901</ele>
        <time>2019-07-29T11:16:03Z</time>
      </trkpt>
      <trkpt lat="45.58055" lon="4.505">
        <ele>899</ele>
        <time>2019-07-29T11:16:05Z</time>
      </trkpt>
      <trkpt lat="45.57946" lon="4.5059">
        <ele>887</ele>
        <time>2019-07-29T11:16:34Z</time>
      </trkpt>
      <trkpt lat="45.57749" lon="4.50698">
        <ele>878</ele>
        <time>2019-07-29T11:17:23Z</time>
      </trkpt>
      <trkpt lat="45.57587" lon="4.50792">
        <ele>885</ele>
        <time>2019-07-29T11:18:04Z</time>
      </trkpt>
      <trkpt lat="45.57317" lon="4.50897">
        <ele>877</ele>
        <time>2019-07-29T11:19:09Z</time>
      </trkpt>
      <trkpt lat="45.57201" lon="4.50943">
        <ele>868</ele>
        <time>2019-07-29T11:19:38Z</time>
      </trkpt>
      <trkpt lat="45.57145" lon="4.50976">
        <ele>864</ele>
        <time>2019-07-29T11:19:52Z</time>
      </trkpt>
      <trkpt lat="45.57092" lon="4.51063">
        <ele>859</ele>
        <time>2019-07-29T11:20:11Z</time>
      </trkpt>
      <trkpt lat="45.57097" lon="4.51211">
        <ele>862</ele>
        <time>2019-07-29T11:20:35Z</time>
      </trkpt>
      <trkpt lat="45.57064" lon="4.5138">
        <ele>862</ele>
        <time>2019-07-29T11:21:04Z</time>
      </trkpt>
      <trkpt lat="45.57019" lon="4.51402">
        <ele>862</ele>
        <time>2019-07-29T11:21:15Z</time>
      </trkpt>
      <trkpt lat="45.56979" lon="4.51712">
        <ele>863</ele>
        <time>2019-07-29T11:22:06Z</time>
      </trkpt>
      <trkpt lat="45.57014" lon="4.5186">
        <ele>880</ele>
        <time>2019-07-29T11:22:32Z</time>
      </trkpt>
      <trkpt lat="45.57009" lon="4.51921">
        <ele>885</ele>
        <time>2019-07-29T11:22:42Z</time>
      </trkpt>
      <trkpt lat="45.56986" lon="4.51994">
        <ele>885</ele>
        <time>2019-07-29T11:22:55Z</time>
      </trkpt>
      <trkpt lat="45.57004" lon="4.52344">
        <ele>880</ele>
        <time>2019-07-29T11:23:52Z</time>
      </trkpt>
      <trkpt lat="45.5707" lon="4.52434">
        <ele>869</ele>
        <time>2019-07-29T11:24:14Z</time>
      </trkpt>
      <trkpt lat="45.57075" lon="4.52481">
        <ele>868</ele>
        <time>2019-07-29T11:24:21Z</time>
      </trkpt>
      <trkpt lat="45.5716" lon="4.52607">
        <ele>873</ele>
        <time>2019-07-29T11:24:50Z</time>
      </trkpt>
      <trkpt lat="45.57188" lon="4.52741">
        <ele>871</ele>
        <time>2019-07-29T11:25:13Z</time>
      </trkpt>
      <trkpt lat="45.57267" lon="4.52874">
        <ele>875</ele>
        <time>2019-07-29T11:25:41Z</time>
      </trkpt>
      <trkpt lat="45.57292" lon="4.53257">
        <ele>872</ele>
        <time>2019-07-29T11:26:44Z</time>
      </trkpt>
      <trkpt lat="45.57264" lon="4.53369">
        <ele>869</ele>
        <time>2019-07-29T11:27:04Z</time>
      </trkpt>
      <trkpt lat="45.57332" lon="4.53563">
        <ele>867</ele>
        <time>2019-07-29T11:27:39Z</time>
      </trkpt>
      <trkpt lat="45.57368" lon="4.53679">
        <ele>866</ele>
        <time>2019-07-29T11:28:00Z</time>
      </trkpt>
      <trkpt lat="45.57466" lon="4.53784">
        <ele>862</ele>
        <time>2019-07-29T11:28:28Z</time>
      </trkpt>
      <trkpt lat="45.57562" lon="4.53989">
        <ele>854</ele>
        <time>2019-07-29T11:29:09Z</time>
      </trkpt>
      <trkpt lat="45.5759" lon="4.54126">
        <ele>854</ele>
        <time>2019-07-29T11:29:32Z</time>
      </trkpt>
      <trkpt lat="45.57628" lon="4.5418">
        <ele>853</ele>
        <time>2019-07-29T11:29:45Z</time>
      </trkpt>
      <trkpt lat="45.57822" lon="4.54383">
        <ele>848</ele>
        <time>2019-07-29T11:30:41Z</time>
      </trkpt>
      <trkpt lat="45.5789" lon="4.5448">
        <ele>841</ele>
        <time>2019-07-29T11:31:03Z</time>
      </trkpt>
      <trkpt lat="45.57916" lon="4.54599">
        <ele>840</ele>
        <time>2019-07-29T11:31:24Z</time>
      </trkpt>
      <trkpt lat="45.57888" lon="4.5496">
        <ele>824</ele>
        <time>2019-07-29T11:32:23Z</time>
      </trkpt>
      <trkpt lat="45.57855" lon="4.55133">
        <ele>818</ele>
        <time>2019-07-29T11:32:52Z</time>
      </trkpt>
      <trkpt lat="45.57848" lon="4.55249">
        <ele>812</ele>
        <time>2019-07-29T11:33:11Z</time>
      </trkpt>
      <trkpt lat="45.57863" lon="4.55368">
        <ele>806</ele>
        <time>2019-07-29T11:33:31Z</time>
      </trkpt>
      <trkpt lat="45.57896" lon="4.55426">
        <ele>805</ele>
        <time>2019-07-29T11:33:43Z</time>
      </trkpt>
      <trkpt lat="45.57916" lon="4.55523">
        <ele>807</ele>
        <time>2019-07-29T11:34:00Z</time>
      </trkpt>
      <trkpt lat="45.57974" lon="4.55794">
        <ele>808</ele>
        <time>2019-07-29T11:34:46Z</time>
      </trkpt>
      <trkpt lat="45.58037" lon="4.56043">
        <ele>819</ele>
        <time>2019-07-29T11:35:29Z</time>
      </trkpt>
      <trkpt lat="45.58027" lon="4.561">
        <ele>821</ele>
        <time>2019-07-29T11:35:39Z</time>
      </trkpt>
      <trkpt lat="45.58047" lon="4.56187">
        <ele>826</ele>
        <time>2019-07-29T11:35:54Z</time>
      </trkpt>
      <trkpt lat="45.58118" lon="4.56389">
        <ele>827</ele>
        <time>2019-07-29T11:36:31Z</time>
      </trkpt>
      <trkpt lat="45.58161" lon="4.564">
        <ele>827</ele>
        <time>2019-07-29T11:36:41Z</time>
      </trkpt>
      <trkpt lat="45.58211" lon="4.56465">
        <ele>822</ele>
        <time>2019-07-29T11:36:57Z</time>
      </trkpt>
      <trkpt lat="45.58224" lon="4.56523">
        <ele>820</ele>
        <time>2019-07-29T11:37:07Z</time>
      </trkpt>
      <trkpt lat="45.58311" lon="4.56656">
        <ele>810</ele>
        <time>2019-07-29T11:37:37Z</time>
      </trkpt>
      <trkpt lat="45.58371" lon="4.56751">
        <ele>801</ele>
        <time>2019-07-29T11:37:57Z</time>
      </trkpt>
      <trkpt lat="45.58364" lon="4.5683">
        <ele>796</ele>
        <time>2019-07-29T11:38:10Z</time>
      </trkpt>
      <trkpt lat="45.58449" lon="4.56927">
        <ele>802</ele>
        <time>2019-07-29T11:38:36Z</time>
      </trkpt>
      <trkpt lat="45.58563" lon="4.5699">
        <ele>816</ele>
        <time>2019-07-29T11:39:04Z</time>
      </trkpt>
      <trkpt lat="45.58598" lon="4.57068">
        <ele>819</ele>
        <time>2019-07-29T11:39:20Z</time>
      </trkpt>
      <trkpt lat="45.58643" lon="4.57149">
        <ele>816</ele>
        <time>2019-07-29T11:39:36Z</time>
      </trkpt>
      <trkpt lat="45.58698" lon="4.57235">
        <ele>812</ele>
        <time>2019-07-29T11:39:56Z</time>
      </trkpt>
      <trkpt lat="45.58784" lon="4.57269">
        <ele>810</ele>
        <time>2019-07-29T11:40:16Z</time>
      </trkpt>
      <trkpt lat="45.58877" lon="4.5728">
        <ele>798</ele>
        <time>2019-07-29T11:40:38Z</time>
      </trkpt>
      <trkpt lat="45.58943" lon="4.57282">
        <ele>790</ele>
        <time>2019-07-29T11:40:54Z</time>
      </trkpt>
      <trkpt lat="45.59131" lon="4.57166">
        <ele>759</ele>
        <time>2019-07-29T11:41:41Z</time>
      </trkpt>
      <trkpt lat="45.59174" lon="4.57211">
        <ele>755</ele>
        <time>2019-07-29T11:41:54Z</time>
      </trkpt>
      <trkpt lat="45.59292" lon="4.57164">
        <ele>740</ele>
        <time>2019-07-29T11:42:22Z</time>
      </trkpt>
      <trkpt lat="45.59358" lon="4.57008">
        <ele>726</ele>
        <time>2019-07-29T11:42:52Z</time>
      </trkpt>
      <trkpt lat="45.59407" lon="4.57061">
        <ele>721</ele>
        <time>2019-07-29T11:43:07Z</time>
      </trkpt>
      <trkpt lat="45.59415" lon="4.57113">
        <ele>719</ele>
        <time>2019-07-29T11:43:15Z</time>
      </trkpt>
      <trkpt lat="45.59479" lon="4.57083">
        <ele>708</ele>
        <time>2019-07-29T11:43:31Z</time>
      </trkpt>
      <trkpt lat="45.59685" lon="4.57108">
        <ele>694</ele>
        <time>2019-07-29T11:44:19Z</time>
      </trkpt>
      <trkpt lat="45.59785" lon="4.57119">
        <ele>691</ele>
        <time>2019-07-29T11:44:43Z</time>
      </trkpt>
      <trkpt lat="45.59862" lon="4.57076">
        <ele>695</ele>
        <time>2019-07-29T11:45:02Z</time>
      </trkpt>
      <trkpt lat="45.59937" lon="4.57108">
        <ele>695</ele>
        <time>2019-07-29T11:45:20Z</time>
      </trkpt>
      <trkpt lat="45.59966" lon="4.57235">
        <ele>691</ele>
        <time>2019-07-29T11:45:42Z</time>
      </trkpt>
      <trkpt lat="45.59979" lon="4.57306">
        <ele>691</ele>
        <time>2019-07-29T11:45:54Z</time>
      </trkpt>
      <trkpt lat="45.59996" lon="4.57392">
        <ele>693</ele>
        <time>2019-07-29T11:46:09Z</time>
      </trkpt>
      <trkpt lat="45.60024" lon="4.57585">
        <ele>685</ele>
        <time>2019-07-29T11:46:41Z</time>
      </trkpt>
      <trkpt lat="45.60092" lon="4.57701">
        <ele>691</ele>
        <time>2019-07-29T11:47:06Z</time>
      </trkpt>
      <trkpt lat="45.60105" lon="4.57793">
        <ele>692</ele>
        <time>2019-07-29T11:47:21Z</time>
      </trkpt>
      <trkpt lat="45.60072" lon="4.57955">
        <ele>697</ele>
        <time>2019-07-29T11:47:49Z</time>
      </trkpt>
      <trkpt lat="45.60082" lon="4.58063">
        <ele>702</ele>
        <time>2019-07-29T11:48:06Z</time>
      </trkpt>
      <trkpt lat="45.60089" lon="4.58172">
        <ele>706</ele>
        <time>2019-07-29T11:48:24Z</time>
      </trkpt>
      <trkpt lat="45.60115" lon="4.58315">
        <ele>710</ele>
        <time>2019-07-29T11:48:48Z</time>
      </trkpt>
      <trkpt lat="45.60165" lon="4.58015">
        <ele>738</ele>
        <time>2019-07-29T11:49:39Z</time>
      </trkpt>
      <trkpt lat="45.60203" lon="4.57992">
        <ele>745</ele>
        <time>2019-07-29T11:49:48Z</time>
      </trkpt>
      <trkpt lat="45.6023" lon="4.57934">
        <ele>748</ele>
        <time>2019-07-29T11:50:00Z</time>
      </trkpt>
      <trkpt lat="45.60245" lon="4.57784">
        <ele>751</ele>
        <time>2019-07-29T11:50:25Z</time>
      </trkpt>
      <trkpt lat="45.60308" lon="4.57943">
        <ele>761</ele>
        <time>2019-07-29T11:50:54Z</time>
      </trkpt>
      <trkpt lat="45.60357" lon="4.58126">
        <ele>766</ele>
        <time>2019-07-29T11:51:26Z</time>
      </trkpt>
      <trkpt lat="45.60385" lon="4.58272">
        <ele>764</ele>
        <time>2019-07-29T11:51:51Z</time>
      </trkpt>
      <trkpt lat="45.60424" lon="4.58344">
        <ele>768</ele>
        <time>2019-07-29T11:52:06Z</time>
      </trkpt>
      <trkpt lat="45.60472" lon="4.58469">
        <ele>771</ele>
        <time>2019-07-29T11:52:29Z</time>
      </trkpt>
      <trkpt lat="45.60524" lon="4.58645">
        <ele>773</ele>
        <time>2019-07-29T11:53:01Z</time>
      </trkpt>
      <trkpt lat="45.60614" lon="4.58739">
        <ele>779</ele>
        <time>2019-07-29T11:53:27Z</time>
      </trkpt>
      <trkpt lat="45.60649" lon="4.58776">
        <ele>779</ele>
        <time>2019-07-29T11:53:37Z</time>
      </trkpt>
      <trkpt lat="45.60697" lon="4.58898">
        <ele>771</ele>
        <time>2019-07-29T11:54:00Z</time>
      </trkpt>
      <trkpt lat="45.60781" lon="4.5898">
        <ele>766</ele>
        <time>2019-07-29T11:54:23Z</time>
      </trkpt>
      <trkpt lat="45.6085" lon="4.59023">
        <ele>768</ele>
        <time>2019-07-29T11:54:41Z</time>
      </trkpt>
      <trkpt lat="45.60887" lon="4.59014">
        <ele>772</ele>
        <time>2019-07-29T11:54:50Z</time>
      </trkpt>
      <trkpt lat="45.61047" lon="4.59063">
        <ele>791</ele>
        <time>2019-07-29T11:55:28Z</time>
      </trkpt>
      <trkpt lat="45.61125" lon="4.59128">
        <ele>804</ele>
        <time>2019-07-29T11:55:49Z</time>
      </trkpt>
      <trkpt lat="45.61236" lon="4.59246">
        <ele>826</ele>
        <time>2019-07-29T11:56:21Z</time>
      </trkpt>
      <trkpt lat="45.6127" lon="4.5925">
        <ele>832</ele>
        <time>2019-07-29T11:56:29Z</time>
      </trkpt>
      <trkpt lat="45.6142" lon="4.59301">
        <ele>845</ele>
        <time>2019-07-29T11:57:05Z</time>
      </trkpt>
      <trkpt lat="45.61743" lon="4.59354">
        <ele>857</ele>
        <time>2019-07-29T11:58:21Z</time>
      </trkpt>
      <trkpt lat="45.61891" lon="4.59339">
        <ele>861</ele>
        <time>2019-07-29T11:58:56Z</time>
      </trkpt>
      <trkpt lat="45.6199" lon="4.59227">
        <ele>863</ele>
        <time>2019-07-29T11:59:25Z</time>
      </trkpt>
      <trkpt lat="45.62041" lon="4.59102">
        <ele>860</ele>
        <time>2019-07-29T11:59:49Z</time>
      </trkpt>
      <trkpt lat="45.62109" lon="4.58938">
        <ele>849</ele>
        <time>2019-07-29T12:00:20Z</time>
      </trkpt>
      <trkpt lat="45.62202" lon="4.58796">
        <ele>842</ele>
        <time>2019-07-29T12:00:52Z</time>
      </trkpt>
      <trkpt lat="45.62259" lon="4.5879">
        <ele>841</ele>
        <time>2019-07-29T12:01:05Z</time>
      </trkpt>
      <trkpt lat="45.62289" lon="4.58808">
        <ele>836</ele>
        <time>2019-07-29T12:01:13Z</time>
      </trkpt>
      <trkpt lat="45.62334" lon="4.58824">
        <ele>829</ele>
        <time>2019-07-29T12:01:24Z</time>
      </trkpt>
      <trkpt lat="45.62404" lon="4.58762">
        <ele>820</ele>
        <time>2019-07-29T12:01:43Z</time>
      </trkpt>
      <trkpt lat="45.62514" lon="4.58642">
        <ele>804</ele>
        <time>2019-07-29T12:02:15Z</time>
      </trkpt>
      <trkpt lat="45.62557" lon="4.58525">
        <ele>799</ele>
        <time>2019-07-29T12:02:37Z</time>
      </trkpt>
      <trkpt lat="45.62623" lon="4.58413">
        <ele>788</ele>
        <time>2019-07-29T12:03:01Z</time>
      </trkpt>
      <trkpt lat="45.627" lon="4.58316">
        <ele>772</ele>
        <time>2019-07-29T12:03:25Z</time>
      </trkpt>
      <trkpt lat="45.62752" lon="4.5826">
        <ele>757</ele>
        <time>2019-07-29T12:03:40Z</time>
      </trkpt>
      <trkpt lat="45.62827" lon="4.58257">
        <ele>748</ele>
        <time>2019-07-29T12:03:57Z</time>
      </trkpt>
      <trkpt lat="45.62896" lon="4.58272">
        <ele>750</ele>
        <time>2019-07-29T12:04:14Z</time>
      </trkpt>
      <trkpt lat="45.62916" lon="4.58193">
        <ele>751</ele>
        <time>2019-07-29T12:04:27Z</time>
      </trkpt>
      <trkpt lat="45.62898" lon="4.57918">
        <ele>759</ele>
        <time>2019-07-29T12:05:13Z</time>
      </trkpt>
      <trkpt lat="45.62921" lon="4.57782">
        <ele>763</ele>
        <time>2019-07-29T12:05:35Z</time>
      </trkpt>
      <trkpt lat="45.63003" lon="4.57665">
        <ele>763</ele>
        <time>2019-07-29T12:06:02Z</time>
      </trkpt>
      <trkpt lat="45.63098" lon="4.5756">
        <ele>764</ele>
        <time>2019-07-29T12:06:30Z</time>
      </trkpt>
      <trkpt lat="45.63139" lon="4.57568">
        <ele>765</ele>
        <time>2019-07-29T12:06:40Z</time>
      </trkpt>
      <trkpt lat="45.63153" lon="4.57691">
        <ele>773</ele>
        <time>2019-07-29T12:07:00Z</time>
      </trkpt>
      <trkpt lat="45.63258" lon="4.58035">
        <ele>810</ele>
        <time>2019-07-29T12:08:02Z</time>
      </trkpt>
      <trkpt lat="45.63351" lon="4.57979">
        <ele>813</ele>
        <time>2019-07-29T12:08:25Z</time>
      </trkpt>
      <trkpt lat="45.63435" lon="4.5791">
        <ele>812</ele>
        <time>2019-07-29T12:08:48Z</time>
      </trkpt>
      <trkpt lat="45.63515" lon="4.57925">
        <ele>812</ele>
        <time>2019-07-29T12:09:07Z</time>
      </trkpt>
      <trkpt lat="45.63537" lon="4.57994">
        <ele>817</ele>
        <time>2019-07-29T12:09:19Z</time>
      </trkpt>
      <trkpt lat="45.63583" lon="4.57969">
        <ele>815</ele>
        <time>2019-07-29T12:09:31Z</time>
      </trkpt>
      <trkpt lat="45.63615" lon="4.57867">
        <ele>815</ele>
        <time>2019-07-29T12:09:49Z</time>
      </trkpt>
      <trkpt lat="45.63653" lon="4.57785">
        <ele>816</ele>
        <time>2019-07-29T12:10:05Z</time>
      </trkpt>
      <trkpt lat="45.63712" lon="4.57734">
        <ele>825</ele>
        <time>2019-07-29T12:10:21Z</time>
      </trkpt>
      <trkpt lat="45.63726" lon="4.57614">
        <ele>825</ele>
        <time>2019-07-29T12:10:41Z</time>
      </trkpt>
      <trkpt lat="45.63761" lon="4.57538">
        <ele>826</ele>
        <time>2019-07-29T12:10:56Z</time>
      </trkpt>
      <trkpt lat="45.63819" lon="4.57461">
        <ele>821</ele>
        <time>2019-07-29T12:11:14Z</time>
      </trkpt>
      <trkpt lat="45.63892" lon="4.57451">
        <ele>813</ele>
        <time>2019-07-29T12:11:31Z</time>
      </trkpt>
      <trkpt lat="45.63974" lon="4.57461">
        <ele>802</ele>
        <time>2019-07-29T12:11:51Z</time>
      </trkpt>
      <trkpt lat="45.64008" lon="4.57509">
        <ele>803</ele>
        <time>2019-07-29T12:12:02Z</time>
      </trkpt>
      <trkpt lat="45.64086" lon="4.5752">
        <ele>797</ele>
        <time>2019-07-29T12:12:20Z</time>
      </trkpt>
      <trkpt lat="45.6432" lon="4.5742">
        <ele>782</ele>
        <time>2019-07-29T12:13:17Z</time>
      </trkpt>
      <trkpt lat="45.64381" lon="4.57346">
        <ele>791</ele>
        <time>2019-07-29T12:13:36Z</time>
      </trkpt>
      <trkpt lat="45.64457" lon="4.57387">
        <ele>797</ele>
        <time>2019-07-29T12:13:55Z</time>
      </trkpt>
      <trkpt lat="45.64777" lon="4.57155">
        <ele>808</ele>
        <time>2019-07-29T12:15:19Z</time>
      </trkpt>
      <trkpt lat="45.64891" lon="4.56997">
        <ele>804</ele>
        <time>2019-07-29T12:15:56Z</time>
      </trkpt>
      <trkpt lat="45.64975" lon="4.56843">
        <ele>800</ele>
        <time>2019-07-29T12:16:28Z</time>
      </trkpt>
      <trkpt lat="45.65135" lon="4.56662">
        <ele>793</ele>
        <time>2019-07-29T12:17:15Z</time>
      </trkpt>
      <trkpt lat="45.65217" lon="4.56662">
        <ele>786</ele>
        <time>2019-07-29T12:17:34Z</time>
      </trkpt>
      <trkpt lat="45.65347" lon="4.56642">
        <ele>784</ele>
        <time>2019-07-29T12:18:05Z</time>
      </trkpt>
      <trkpt lat="45.6539" lon="4.56683">
        <ele>781</ele>
        <time>2019-07-29T12:18:17Z</time>
      </trkpt>
      <trkpt lat="45.65431" lon="4.56645">
        <ele>779</ele>
        <time>2019-07-29T12:18:28Z</time>
      </trkpt>
      <trkpt lat="45.6546" lon="4.56586">
        <ele>777</ele>
        <time>2019-07-29T12:18:40Z</time>
      </trkpt>
      <trkpt lat="45.65547" lon="4.56494">
        <ele>758</ele>
        <time>2019-07-29T12:19:05Z</time>
      </trkpt>
      <trkpt lat="45.65576" lon="4.56527">
        <ele>755</ele>
        <time>2019-07-29T12:19:14Z</time>
      </trkpt>
      <trkpt lat="45.65619" lon="4.56479">
        <ele>747</ele>
        <time>2019-07-29T12:19:27Z</time>
      </trkpt>
      <trkpt lat="45.6566" lon="4.56433">
        <ele>740</ele>
        <time>2019-07-29T12:19:39Z</time>
      </trkpt>
      <trkpt lat="45.65797" lon="4.56376">
        <ele>726</ele>
        <time>2019-07-29T12:20:12Z</time>
      </trkpt>
      <trkpt lat="45.65745" lon="4.56328">
        <ele>725</ele>
        <time>2019-07-29T12:20:27Z</time>
      </trkpt>
      <trkpt lat="45.65651" lon="4.56172">
        <ele>718</ele>
        <time>2019-07-29T12:21:00Z</time>
      </trkpt>
      <trkpt lat="45.65572" lon="4.56086">
        <ele>721</ele>
        <time>2019-07-29T12:21:23Z</time>
      </trkpt>
      <trkpt lat="45.65597" lon="4.56009">
        <ele>718</ele>
        <time>2019-07-29T12:21:37Z</time>
      </trkpt>
      <trkpt lat="45.65656" lon="4.55909">
        <ele>712</ele>
        <time>2019-07-29T12:21:59Z</time>
      </trkpt>
      <trkpt lat="45.65663" lon="4.55843">
        <ele>710</ele>
        <time>2019-07-29T12:22:10Z</time>
      </trkpt>
      <trkpt lat="45.65629" lon="4.55749">
        <ele>709</ele>
        <time>2019-07-29T12:22:27Z</time>
      </trkpt>
    </trkseg>
  </trk>
  <trk>
    <name><![CDATA[5651698-Sortie Club VTT des Monts du 24/01/2016]]></name>
    <trkseg>
      <trkpt lat="45.65837" lon="4.56405">
        <ele>725</ele>
        <time>2019-07-29T10:36:32Z</time>
      </trkpt>
      <trkpt lat="45.65783" lon="4.56358">
        <ele>725</ele>
        <time>2019-07-29T10:36:47Z</time>
      </trkpt>
      <trkpt lat="45.65744" lon="4.56328">
        <ele>725</ele>
        <time>2019-07-29T10:36:57Z</time>
      </trkpt>
      <trkpt lat="45.6566" lon="4.56199">
        <ele>721</ele>
        <time>2019-07-29T10:37:26Z</time>
      </trkpt>
      <trkpt lat="45.65591" lon="4.56143">
        <ele>721</ele>
        <time>2019-07-29T10:37:44Z</time>
      </trkpt>
      <trkpt lat="45.65555" lon="4.56066">
        <ele>723</ele>
        <time>2019-07-29T10:38:00Z</time>
      </trkpt>
      <trkpt lat="45.65549" lon="4.55963">
        <ele>727</ele>
        <time>2019-07-29T10:38:16Z</time>
      </trkpt>
      <trkpt lat="45.65525" lon="4.55873">
        <ele>730</ele>
        <time>2019-07-29T10:38:32Z</time>
      </trkpt>
      <trkpt lat="45.65399" lon="4.5574">
        <ele>738</ele>
        <time>2019-07-29T10:39:09Z</time>
      </trkpt>
      <trkpt lat="45.65339" lon="4.55658">
        <ele>735</ele>
        <time>2019-07-29T10:39:28Z</time>
      </trkpt>
      <trkpt lat="45.65315" lon="4.55598">
        <ele>729</ele>
        <time>2019-07-29T10:39:39Z</time>
      </trkpt>
      <trkpt lat="45.6524" lon="4.55491">
        <ele>729</ele>
        <time>2019-07-29T10:40:04Z</time>
      </trkpt>
      <trkpt lat="45.65108" lon="4.55418">
        <ele>734</ele>
        <time>2019-07-29T10:40:37Z</time>
      </trkpt>
      <trkpt lat="45.65063" lon="4.55324">
        <ele>734</ele>
        <time>2019-07-29T10:40:56Z</time>
      </trkpt>
      <trkpt lat="45.65045" lon="4.55272">
        <ele>734</ele>
        <time>2019-07-29T10:41:05Z</time>
      </trkpt>
      <trkpt lat="45.64997" lon="4.55229">
        <ele>737</ele>
        <time>2019-07-29T10:41:18Z</time>
      </trkpt>
      <trkpt lat="45.64979" lon="4.55173">
        <ele>733</ele>
        <time>2019-07-29T10:41:28Z</time>
      </trkpt>
      <trkpt lat="45.64952" lon="4.55087">
        <ele>726</ele>
        <time>2019-07-29T10:41:44Z</time>
      </trkpt>
      <trkpt lat="45.64913" lon="4.55036">
        <ele>720</ele>
        <time>2019-07-29T10:41:56Z</time>
      </trkpt>
      <trkpt lat="45.64934" lon="4.54924">
        <ele>708</ele>
        <time>2019-07-29T10:42:15Z</time>
      </trkpt>
      <trkpt lat="45.64916" lon="4.54821">
        <ele>698</ele>
        <time>2019-07-29T10:42:32Z</time>
      </trkpt>
      <trkpt lat="45.64883" lon="4.54761">
        <ele>695</ele>
        <time>2019-07-29T10:42:45Z</time>
      </trkpt>
      <trkpt lat="45.64886" lon="4.54671">
        <ele>688</ele>
        <time>2019-07-29T10:43:00Z</time>
      </trkpt>
      <trkpt lat="45.64844" lon="4.545">
        <ele>680</ele>
        <time>2019-07-29T10:43:29Z</time>
      </trkpt>
      <trkpt lat="45.64769" lon="4.54285">
        <ele>674</ele>
        <time>2019-07-29T10:44:08Z</time>
      </trkpt>
      <trkpt lat="45.64724" lon="4.54216">
        <ele>675</ele>
        <time>2019-07-29T10:44:24Z</time>
      </trkpt>
      <trkpt lat="45.64703" lon="4.54143">
        <ele>666</ele>
        <time>2019-07-29T10:44:37Z</time>
      </trkpt>
      <trkpt lat="45.64682" lon="4.54062">
        <ele>656</ele>
        <time>2019-07-29T10:44:51Z</time>
      </trkpt>
      <trkpt lat="45.64646" lon="4.5386">
        <ele>644</ele>
        <time>2019-07-29T10:45:25Z</time>
      </trkpt>
      <trkpt lat="45.64595" lon="4.53761">
        <ele>639</ele>
        <time>2019-07-29T10:45:45Z</time>
      </trkpt>
      <trkpt lat="45.64559" lon="4.53714">
        <ele>636</ele>
        <time>2019-07-29T10:45:56Z</time>
      </trkpt>
      <trkpt lat="45.64421" lon="4.53646">
        <ele>638</ele>
        <time>2019-07-29T10:46:30Z</time>
      </trkpt>
      <trkpt lat="45.64388" lon="4.53594">
        <ele>628</ele>
        <time>2019-07-29T10:46:42Z</time>
      </trkpt>
      <trkpt lat="45.64364" lon="4.53534">
        <ele>620</ele>
        <time>2019-07-29T10:46:53Z</time>
      </trkpt>
      <trkpt lat="45.64325" lon="4.53534">
        <ele>622</ele>
        <time>2019-07-29T10:47:02Z</time>
      </trkpt>
      <trkpt lat="45.64286" lon="4.53508">
        <ele>615</ele>
        <time>2019-07-29T10:47:12Z</time>
      </trkpt>
      <trkpt lat="45.64232" lon="4.53551">
        <ele>615</ele>
        <time>2019-07-29T10:47:27Z</time>
      </trkpt>
      <trkpt lat="45.64166" lon="4.53551">
        <ele>615</ele>
        <time>2019-07-29T10:47:42Z</time>
      </trkpt>
      <trkpt lat="45.64154" lon="4.53495">
        <ele>611</ele>
        <time>2019-07-29T10:47:52Z</time>
      </trkpt>
      <trkpt lat="45.64079" lon="4.53422">
        <ele>606</ele>
        <time>2019-07-29T10:48:13Z</time>
      </trkpt>
      <trkpt lat="45.63986" lon="4.53418">
        <ele>612</ele>
        <time>2019-07-29T10:48:35Z</time>
      </trkpt>
      <trkpt lat="45.63757" lon="4.53577">
        <ele>643</ele>
        <time>2019-07-29T10:49:34Z</time>
      </trkpt>
      <trkpt lat="45.63715" lon="4.53624">
        <ele>649</ele>
        <time>2019-07-29T10:49:47Z</time>
      </trkpt>
      <trkpt lat="45.63631" lon="4.53676">
        <ele>654</ele>
        <time>2019-07-29T10:50:08Z</time>
      </trkpt>
      <trkpt lat="45.63577" lon="4.53736">
        <ele>656</ele>
        <time>2019-07-29T10:50:24Z</time>
      </trkpt>
      <trkpt lat="45.6352" lon="4.53757">
        <ele>656</ele>
        <time>2019-07-29T10:50:38Z</time>
      </trkpt>
      <trkpt lat="45.63352" lon="4.53718">
        <ele>660</ele>
        <time>2019-07-29T10:51:17Z</time>
      </trkpt>
      <trkpt lat="45.63355" lon="4.53581">
        <ele>649</ele>
        <time>2019-07-29T10:51:40Z</time>
      </trkpt>
      <trkpt lat="45.63325" lon="4.5353">
        <ele>646</ele>
        <time>2019-07-29T10:51:51Z</time>
      </trkpt>
      <trkpt lat="45.63286" lon="4.53517">
        <ele>645</ele>
        <time>2019-07-29T10:52:00Z</time>
      </trkpt>
      <trkpt lat="45.63217" lon="4.53457">
        <ele>640</ele>
        <time>2019-07-29T10:52:19Z</time>
      </trkpt>
      <trkpt lat="45.63127" lon="4.5341">
        <ele>631</ele>
        <time>2019-07-29T10:52:41Z</time>
      </trkpt>
      <trkpt lat="45.63106" lon="4.53354">
        <ele>628</ele>
        <time>2019-07-29T10:52:52Z</time>
      </trkpt>
      <trkpt lat="45.63076" lon="4.53251">
        <ele>620</ele>
        <time>2019-07-29T10:53:10Z</time>
      </trkpt>
      <trkpt lat="45.63016" lon="4.53143">
        <ele>612</ele>
        <time>2019-07-29T10:53:32Z</time>
      </trkpt>
      <trkpt lat="45.62941" lon="4.5292">
        <ele>601</ele>
        <time>2019-07-29T10:54:13Z</time>
      </trkpt>
      <trkpt lat="45.62908" lon="4.5289">
        <ele>599</ele>
        <time>2019-07-29T10:54:22Z</time>
      </trkpt>
      <trkpt lat="45.6286" lon="4.52864">
        <ele>597</ele>
        <time>2019-07-29T10:54:34Z</time>
      </trkpt>
      <trkpt lat="45.62788" lon="4.52877">
        <ele>593</ele>
        <time>2019-07-29T10:54:51Z</time>
      </trkpt>
      <trkpt lat="45.62725" lon="4.52942">
        <ele>589</ele>
        <time>2019-07-29T10:55:09Z</time>
      </trkpt>
      <trkpt lat="45.62668" lon="4.53002">
        <ele>585</ele>
        <time>2019-07-29T10:55:26Z</time>
      </trkpt>
      <trkpt lat="45.6259" lon="4.53006">
        <ele>593</ele>
        <time>2019-07-29T10:55:44Z</time>
      </trkpt>
      <trkpt lat="45.62569" lon="4.5295">
        <ele>598</ele>
        <time>2019-07-29T10:55:54Z</time>
      </trkpt>
      <trkpt lat="45.62509" lon="4.52834">
        <ele>608</ele>
        <time>2019-07-29T10:56:18Z</time>
      </trkpt>
      <trkpt lat="45.62407" lon="4.52779">
        <ele>628</ele>
        <time>2019-07-29T10:56:43Z</time>
      </trkpt>
      <trkpt lat="45.6238" lon="4.52714">
        <ele>633</ele>
        <time>2019-07-29T10:56:56Z</time>
      </trkpt>
      <trkpt lat="45.62263" lon="4.52633">
        <ele>642</ele>
        <time>2019-07-29T10:57:26Z</time>
      </trkpt>
      <trkpt lat="45.62209" lon="4.52607">
        <ele>646</ele>
        <time>2019-07-29T10:57:39Z</time>
      </trkpt>
      <trkpt lat="45.6217" lon="4.52573">
        <ele>649</ele>
        <time>2019-07-29T10:57:50Z</time>
      </trkpt>
      <trkpt lat="45.62158" lon="4.52362">
        <ele>653</ele>
        <time>2019-07-29T10:58:24Z</time>
      </trkpt>
      <trkpt lat="45.6199" lon="4.52174">
        <ele>654</ele>
        <time>2019-07-29T10:59:14Z</time>
      </trkpt>
      <trkpt lat="45.61882" lon="4.52255">
        <ele>664</ele>
        <time>2019-07-29T10:59:43Z</time>
      </trkpt>
      <trkpt lat="45.61723" lon="4.52405">
        <ele>678</ele>
        <time>2019-07-29T11:00:27Z</time>
      </trkpt>
      <trkpt lat="45.61675" lon="4.52349">
        <ele>677</ele>
        <time>2019-07-29T11:00:42Z</time>
      </trkpt>
      <trkpt lat="45.61648" lon="4.52199">
        <ele>674</ele>
        <time>2019-07-29T11:01:07Z</time>
      </trkpt>
      <trkpt lat="45.61627" lon="4.52131">
        <ele>677</ele>
        <time>2019-07-29T11:01:19Z</time>
      </trkpt>
      <trkpt lat="45.61633" lon="4.52045">
        <ele>674</ele>
        <time>2019-07-29T11:01:33Z</time>
      </trkpt>
      <trkpt lat="45.61588" lon="4.51985">
        <ele>679</ele>
        <time>2019-07-29T11:01:48Z</time>
      </trkpt>
      <trkpt lat="45.61477" lon="4.5192">
        <ele>687</ele>
        <time>2019-07-29T11:02:16Z</time>
      </trkpt>
      <trkpt lat="45.61453" lon="4.51869">
        <ele>681</ele>
        <time>2019-07-29T11:02:26Z</time>
      </trkpt>
      <trkpt lat="45.6135" lon="4.51835">
        <ele>680</ele>
        <time>2019-07-29T11:02:50Z</time>
      </trkpt>
      <trkpt lat="45.61393" lon="4.5177">
        <ele>676</ele>
        <time>2019-07-29T11:03:05Z</time>
      </trkpt>
      <trkpt lat="45.61399" lon="4.51719">
        <ele>676</ele>
        <time>2019-07-29T11:03:13Z</time>
      </trkpt>
      <trkpt lat="45.61374" lon="4.51586">
        <ele>687</ele>
        <time>2019-07-29T11:03:36Z</time>
      </trkpt>
      <trkpt lat="45.6145" lon="4.51568">
        <ele>683</ele>
        <time>2019-07-29T11:03:54Z</time>
      </trkpt>
      <trkpt lat="45.61495" lon="4.51598">
        <ele>679</ele>
        <time>2019-07-29T11:04:05Z</time>
      </trkpt>
      <trkpt lat="45.61594" lon="4.51577">
        <ele>675</ele>
        <time>2019-07-29T11:04:29Z</time>
      </trkpt>
      <trkpt lat="45.61606" lon="4.51448">
        <ele>685</ele>
        <time>2019-07-29T11:04:50Z</time>
      </trkpt>
      <trkpt lat="45.61594" lon="4.51375">
        <ele>690</ele>
        <time>2019-07-29T11:05:02Z</time>
      </trkpt>
      <trkpt lat="45.61585" lon="4.51234">
        <ele>691</ele>
        <time>2019-07-29T11:05:26Z</time>
      </trkpt>
      <trkpt lat="45.61573" lon="4.51182">
        <ele>689</ele>
        <time>2019-07-29T11:05:34Z</time>
      </trkpt>
      <trkpt lat="45.61564" lon="4.51036">
        <ele>688</ele>
        <time>2019-07-29T11:05:58Z</time>
      </trkpt>
      <trkpt lat="45.61513" lon="4.50852">
        <ele>682</ele>
        <time>2019-07-29T11:06:31Z</time>
      </trkpt>
      <trkpt lat="45.61471" lon="4.50616">
        <ele>673</ele>
        <time>2019-07-29T11:07:10Z</time>
      </trkpt>
      <trkpt lat="45.61474" lon="4.50461">
        <ele>679</ele>
        <time>2019-07-29T11:07:36Z</time>
      </trkpt>
      <trkpt lat="45.61453" lon="4.50311">
        <ele>682</ele>
        <time>2019-07-29T11:08:01Z</time>
      </trkpt>
      <trkpt lat="45.6145" lon="4.50178">
        <ele>695</ele>
        <time>2019-07-29T11:08:23Z</time>
      </trkpt>
      <trkpt lat="45.6145" lon="4.50096">
        <ele>700</ele>
        <time>2019-07-29T11:08:36Z</time>
      </trkpt>
      <trkpt lat="45.61426" lon="4.50041">
        <ele>699</ele>
        <time>2019-07-29T11:08:47Z</time>
      </trkpt>
      <trkpt lat="45.61374" lon="4.50023">
        <ele>696</ele>
        <time>2019-07-29T11:08:59Z</time>
      </trkpt>
      <trkpt lat="45.61287" lon="4.50062">
        <ele>695</ele>
        <time>2019-07-29T11:09:20Z</time>
      </trkpt>
      <trkpt lat="45.61239" lon="4.50028">
        <ele>692</ele>
        <time>2019-07-29T11:09:33Z</time>
      </trkpt>
      <trkpt lat="45.61155" lon="4.49908">
        <ele>684</ele>
        <time>2019-07-29T11:10:01Z</time>
      </trkpt>
      <trkpt lat="45.61158" lon="4.49817">
        <ele>677</ele>
        <time>2019-07-29T11:10:15Z</time>
      </trkpt>
      <trkpt lat="45.61116" lon="4.49569">
        <ele>656</ele>
        <time>2019-07-29T11:10:57Z</time>
      </trkpt>
      <trkpt lat="45.61089" lon="4.49436">
        <ele>639</ele>
        <time>2019-07-29T11:11:20Z</time>
      </trkpt>
      <trkpt lat="45.61089" lon="4.4932">
        <ele>622</ele>
        <time>2019-07-29T11:11:39Z</time>
      </trkpt>
      <trkpt lat="45.6111" lon="4.49247">
        <ele>615</ele>
        <time>2019-07-29T11:11:52Z</time>
      </trkpt>
      <trkpt lat="45.6108" lon="4.49187">
        <ele>611</ele>
        <time>2019-07-29T11:12:04Z</time>
      </trkpt>
      <trkpt lat="45.61101" lon="4.49109">
        <ele>607</ele>
        <time>2019-07-29T11:12:17Z</time>
      </trkpt>
      <trkpt lat="45.61086" lon="4.49032">
        <ele>605</ele>
        <time>2019-07-29T11:12:30Z</time>
      </trkpt>
      <trkpt lat="45.61092" lon="4.48852">
        <ele>610</ele>
        <time>2019-07-29T11:13:00Z</time>
      </trkpt>
      <trkpt lat="45.61083" lon="4.48788">
        <ele>614</ele>
        <time>2019-07-29T11:13:10Z</time>
      </trkpt>
      <trkpt lat="45.61101" lon="4.48723">
        <ele>619</ele>
        <time>2019-07-29T11:13:22Z</time>
      </trkpt>
      <trkpt lat="45.61146" lon="4.48663">
        <ele>626</ele>
        <time>2019-07-29T11:13:36Z</time>
      </trkpt>
      <trkpt lat="45.61155" lon="4.48573">
        <ele>628</ele>
        <time>2019-07-29T11:13:51Z</time>
      </trkpt>
      <trkpt lat="45.61119" lon="4.48448">
        <ele>625</ele>
        <time>2019-07-29T11:14:13Z</time>
      </trkpt>
      <trkpt lat="45.61086" lon="4.48354">
        <ele>627</ele>
        <time>2019-07-29T11:14:30Z</time>
      </trkpt>
      <trkpt lat="45.61089" lon="4.48251">
        <ele>632</ele>
        <time>2019-07-29T11:14:47Z</time>
      </trkpt>
      <trkpt lat="45.61131" lon="4.48238">
        <ele>629</ele>
        <time>2019-07-29T11:14:57Z</time>
      </trkpt>
      <trkpt lat="45.61233" lon="4.48139">
        <ele>630</ele>
        <time>2019-07-29T11:15:26Z</time>
      </trkpt>
      <trkpt lat="45.61263" lon="4.48079">
        <ele>634</ele>
        <time>2019-07-29T11:15:38Z</time>
      </trkpt>
      <trkpt lat="45.61329" lon="4.48071">
        <ele>633</ele>
        <time>2019-07-29T11:15:54Z</time>
      </trkpt>
      <trkpt lat="45.61332" lon="4.47998">
        <ele>641</ele>
        <time>2019-07-29T11:16:05Z</time>
      </trkpt>
      <trkpt lat="45.61293" lon="4.47934">
        <ele>647</ele>
        <time>2019-07-29T11:16:19Z</time>
      </trkpt>
      <trkpt lat="45.6129" lon="4.47873">
        <ele>650</ele>
        <time>2019-07-29T11:16:29Z</time>
      </trkpt>
      <trkpt lat="45.61338" lon="4.47805">
        <ele>650</ele>
        <time>2019-07-29T11:16:45Z</time>
      </trkpt>
      <trkpt lat="45.6135" lon="4.47723">
        <ele>649</ele>
        <time>2019-07-29T11:16:59Z</time>
      </trkpt>
      <trkpt lat="45.6135" lon="4.47672">
        <ele>650</ele>
        <time>2019-07-29T11:17:07Z</time>
      </trkpt>
      <trkpt lat="45.61323" lon="4.4762">
        <ele>651</ele>
        <time>2019-07-29T11:17:18Z</time>
      </trkpt>
      <trkpt lat="45.61447" lon="4.47436">
        <ele>643</ele>
        <time>2019-07-29T11:17:59Z</time>
      </trkpt>
      <trkpt lat="45.61588" lon="4.47655">
        <ele>628</ele>
        <time>2019-07-29T11:18:48Z</time>
      </trkpt>
      <trkpt lat="45.61681" lon="4.47479">
        <ele>614</ele>
        <time>2019-07-29T11:19:24Z</time>
      </trkpt>
      <trkpt lat="45.61711" lon="4.4738">
        <ele>609</ele>
        <time>2019-07-29T11:19:42Z</time>
      </trkpt>
      <trkpt lat="45.61807" lon="4.47324">
        <ele>599</ele>
        <time>2019-07-29T11:20:06Z</time>
      </trkpt>
      <trkpt lat="45.61849" lon="4.47268">
        <ele>598</ele>
        <time>2019-07-29T11:20:19Z</time>
      </trkpt>
      <trkpt lat="45.61906" lon="4.47251">
        <ele>594</ele>
        <time>2019-07-29T11:20:33Z</time>
      </trkpt>
      <trkpt lat="45.61975" lon="4.47174">
        <ele>592</ele>
        <time>2019-07-29T11:20:53Z</time>
      </trkpt>
      <trkpt lat="45.62011" lon="4.47105">
        <ele>596</ele>
        <time>2019-07-29T11:21:07Z</time>
      </trkpt>
      <trkpt lat="45.62104" lon="4.4714">
        <ele>584</ele>
        <time>2019-07-29T11:21:30Z</time>
      </trkpt>
      <trkpt lat="45.62167" lon="4.47105">
        <ele>578</ele>
        <time>2019-07-29T11:21:46Z</time>
      </trkpt>
      <trkpt lat="45.62263" lon="4.46985">
        <ele>567</ele>
        <time>2019-07-29T11:22:15Z</time>
      </trkpt>
      <trkpt lat="45.62353" lon="4.46912">
        <ele>563</ele>
        <time>2019-07-29T11:22:40Z</time>
      </trkpt>
      <trkpt lat="45.62446" lon="4.46753">
        <ele>561</ele>
        <time>2019-07-29T11:23:13Z</time>
      </trkpt>
      <trkpt lat="45.62494" lon="4.46783">
        <ele>554</ele>
        <time>2019-07-29T11:23:26Z</time>
      </trkpt>
      <trkpt lat="45.62539" lon="4.46822">
        <ele>549</ele>
        <time>2019-07-29T11:23:38Z</time>
      </trkpt>
      <trkpt lat="45.62584" lon="4.46822">
        <ele>546</ele>
        <time>2019-07-29T11:23:49Z</time>
      </trkpt>
      <trkpt lat="45.62635" lon="4.46801">
        <ele>542</ele>
        <time>2019-07-29T11:24:01Z</time>
      </trkpt>
      <trkpt lat="45.62686" lon="4.46809">
        <ele>535</ele>
        <time>2019-07-29T11:24:13Z</time>
      </trkpt>
      <trkpt lat="45.62722" lon="4.46822">
        <ele>527</ele>
        <time>2019-07-29T11:24:22Z</time>
      </trkpt>
      <trkpt lat="45.62689" lon="4.46861">
        <ele>529</ele>
        <time>2019-07-29T11:24:32Z</time>
      </trkpt>
      <trkpt lat="45.62692" lon="4.46951">
        <ele>526</ele>
        <time>2019-07-29T11:24:46Z</time>
      </trkpt>
      <trkpt lat="45.62647" lon="4.46994">
        <ele>525</ele>
        <time>2019-07-29T11:24:59Z</time>
      </trkpt>
      <trkpt lat="45.62668" lon="4.47071">
        <ele>528</ele>
        <time>2019-07-29T11:25:12Z</time>
      </trkpt>
      <trkpt lat="45.62617" lon="4.47122">
        <ele>527</ele>
        <time>2019-07-29T11:25:27Z</time>
      </trkpt>
      <trkpt lat="45.62635" lon="4.47225">
        <ele>532</ele>
        <time>2019-07-29T11:25:44Z</time>
      </trkpt>
      <trkpt lat="45.62635" lon="4.47225">
        <ele>532</ele>
        <time>2019-07-29T11:25:44Z</time>
      </trkpt>
      <trkpt lat="45.62662" lon="4.47193">
        <ele>533</ele>
        <time>2019-07-29T11:25:52Z</time>
      </trkpt>
      <trkpt lat="45.62639" lon="4.4727">
        <ele>535</ele>
        <time>2019-07-29T11:26:06Z</time>
      </trkpt>
      <trkpt lat="45.62653" lon="4.47343">
        <ele>543</ele>
        <time>2019-07-29T11:26:19Z</time>
      </trkpt>
      <trkpt lat="45.62695" lon="4.47451">
        <ele>555</ele>
        <time>2019-07-29T11:26:39Z</time>
      </trkpt>
      <trkpt lat="45.62741" lon="4.47631">
        <ele>566</ele>
        <time>2019-07-29T11:27:10Z</time>
      </trkpt>
      <trkpt lat="45.62852" lon="4.47678">
        <ele>569</ele>
        <time>2019-07-29T11:27:37Z</time>
      </trkpt>
      <trkpt lat="45.62864" lon="4.47479">
        <ele>556</ele>
        <time>2019-07-29T11:28:10Z</time>
      </trkpt>
      <trkpt lat="45.62881" lon="4.47431">
        <ele>553</ele>
        <time>2019-07-29T11:28:18Z</time>
      </trkpt>
      <trkpt lat="45.62905" lon="4.47414">
        <ele>555</ele>
        <time>2019-07-29T11:28:25Z</time>
      </trkpt>
      <trkpt lat="45.62939" lon="4.47309">
        <ele>555</ele>
        <time>2019-07-29T11:28:44Z</time>
      </trkpt>
      <trkpt lat="45.62933" lon="4.47249">
        <ele>558</ele>
        <time>2019-07-29T11:28:53Z</time>
      </trkpt>
      <trkpt lat="45.62911" lon="4.4721">
        <ele>561</ele>
        <time>2019-07-29T11:29:02Z</time>
      </trkpt>
      <trkpt lat="45.62932" lon="4.47105">
        <ele>567</ele>
        <time>2019-07-29T11:29:20Z</time>
      </trkpt>
      <trkpt lat="45.62986" lon="4.47007">
        <ele>565</ele>
        <time>2019-07-29T11:29:40Z</time>
      </trkpt>
      <trkpt lat="45.631" lon="4.47026">
        <ele>575</ele>
        <time>2019-07-29T11:30:07Z</time>
      </trkpt>
      <trkpt lat="45.63361" lon="4.4688">
        <ele>569</ele>
        <time>2019-07-29T11:31:12Z</time>
      </trkpt>
      <trkpt lat="45.63439" lon="4.46828">
        <ele>565</ele>
        <time>2019-07-29T11:31:32Z</time>
      </trkpt>
      <trkpt lat="45.63505" lon="4.46766">
        <ele>564</ele>
        <time>2019-07-29T11:31:51Z</time>
      </trkpt>
      <trkpt lat="45.63502" lon="4.4673">
        <ele>564</ele>
        <time>2019-07-29T11:31:57Z</time>
      </trkpt>
      <trkpt lat="45.63479" lon="4.46683">
        <ele>566</ele>
        <time>2019-07-29T11:32:06Z</time>
      </trkpt>
      <trkpt lat="45.6347" lon="4.46635">
        <ele>569</ele>
        <time>2019-07-29T11:32:14Z</time>
      </trkpt>
      <trkpt lat="45.63509" lon="4.46429">
        <ele>583</ele>
        <time>2019-07-29T11:32:49Z</time>
      </trkpt>
      <trkpt lat="45.63509" lon="4.46378">
        <ele>589</ele>
        <time>2019-07-29T11:32:57Z</time>
      </trkpt>
      <trkpt lat="45.63539" lon="4.46271">
        <ele>594</ele>
        <time>2019-07-29T11:33:16Z</time>
      </trkpt>
      <trkpt lat="45.63542" lon="4.46234">
        <ele>597</ele>
        <time>2019-07-29T11:33:22Z</time>
      </trkpt>
      <trkpt lat="45.63581" lon="4.46238">
        <ele>592</ele>
        <time>2019-07-29T11:33:31Z</time>
      </trkpt>
      <trkpt lat="45.63652" lon="4.4614">
        <ele>596</ele>
        <time>2019-07-29T11:33:54Z</time>
      </trkpt>
      <trkpt lat="45.63712" lon="4.4623">
        <ele>594</ele>
        <time>2019-07-29T11:34:15Z</time>
      </trkpt>
      <trkpt lat="45.63713" lon="4.46198">
        <ele>596</ele>
        <time>2019-07-29T11:34:20Z</time>
      </trkpt>
      <trkpt lat="45.637" lon="4.46131">
        <ele>599</ele>
        <time>2019-07-29T11:34:31Z</time>
      </trkpt>
      <trkpt lat="45.63698" lon="4.45983">
        <ele>600</ele>
        <time>2019-07-29T11:34:55Z</time>
      </trkpt>
      <trkpt lat="45.63774" lon="4.45949">
        <ele>607</ele>
        <time>2019-07-29T11:35:14Z</time>
      </trkpt>
      <trkpt lat="45.63774" lon="4.45949">
        <ele>607</ele>
        <time>2019-07-29T11:35:14Z</time>
      </trkpt>
      <trkpt lat="45.63823" lon="4.45942">
        <ele>612</ele>
        <time>2019-07-29T11:35:26Z</time>
      </trkpt>
      <trkpt lat="45.63867" lon="4.45925">
        <ele>616</ele>
        <time>2019-07-29T11:35:36Z</time>
      </trkpt>
      <trkpt lat="45.63957" lon="4.45938">
        <ele>622</ele>
        <time>2019-07-29T11:35:57Z</time>
      </trkpt>
      <trkpt lat="45.64044" lon="4.45878">
        <ele>621</ele>
        <time>2019-07-29T11:36:20Z</time>
      </trkpt>
      <trkpt lat="45.64081" lon="4.45844">
        <ele>619</ele>
        <time>2019-07-29T11:36:30Z</time>
      </trkpt>
      <trkpt lat="45.64174" lon="4.45786">
        <ele>618</ele>
        <time>2019-07-29T11:36:54Z</time>
      </trkpt>
      <trkpt lat="45.64239" lon="4.45764">
        <ele>618</ele>
        <time>2019-07-29T11:37:09Z</time>
      </trkpt>
      <trkpt lat="45.64339" lon="4.45674">
        <ele>612</ele>
        <time>2019-07-29T11:37:37Z</time>
      </trkpt>
      <trkpt lat="45.64408" lon="4.45672">
        <ele>608</ele>
        <time>2019-07-29T11:37:53Z</time>
      </trkpt>
      <trkpt lat="45.64485" lon="4.45704">
        <ele>608</ele>
        <time>2019-07-29T11:38:12Z</time>
      </trkpt>
      <trkpt lat="45.64497" lon="4.45747">
        <ele>609</ele>
        <time>2019-07-29T11:38:19Z</time>
      </trkpt>
      <trkpt lat="45.6447" lon="4.45813">
        <ele>615</ele>
        <time>2019-07-29T11:38:32Z</time>
      </trkpt>
      <trkpt lat="45.64468" lon="4.45906">
        <ele>619</ele>
        <time>2019-07-29T11:38:47Z</time>
      </trkpt>
      <trkpt lat="45.64357" lon="4.45908">
        <ele>628</ele>
        <time>2019-07-29T11:39:13Z</time>
      </trkpt>
      <trkpt lat="45.64357" lon="4.45953">
        <ele>631</ele>
        <time>2019-07-29T11:39:20Z</time>
      </trkpt>
      <trkpt lat="45.64311" lon="4.46137">
        <ele>635</ele>
        <time>2019-07-29T11:39:52Z</time>
      </trkpt>
      <trkpt lat="45.64342" lon="4.46146">
        <ele>637</ele>
        <time>2019-07-29T11:40:00Z</time>
      </trkpt>
      <trkpt lat="45.64434" lon="4.46129">
        <ele>640</ele>
        <time>2019-07-29T11:40:21Z</time>
      </trkpt>
      <trkpt lat="45.64512" lon="4.46146">
        <ele>640</ele>
        <time>2019-07-29T11:40:40Z</time>
      </trkpt>
      <trkpt lat="45.64582" lon="4.46142">
        <ele>636</ele>
        <time>2019-07-29T11:40:56Z</time>
      </trkpt>
      <trkpt lat="45.64654" lon="4.46185">
        <ele>636</ele>
        <time>2019-07-29T11:41:14Z</time>
      </trkpt>
      <trkpt lat="45.64848" lon="4.46367">
        <ele>633</ele>
        <time>2019-07-29T11:42:08Z</time>
      </trkpt>
      <trkpt lat="45.64881" lon="4.46442">
        <ele>634</ele>
        <time>2019-07-29T11:42:23Z</time>
      </trkpt>
      <trkpt lat="45.64909" lon="4.46442">
        <ele>632</ele>
        <time>2019-07-29T11:42:29Z</time>
      </trkpt>
      <trkpt lat="45.64938" lon="4.46442">
        <ele>630</ele>
        <time>2019-07-29T11:42:36Z</time>
      </trkpt>
      <trkpt lat="45.64969" lon="4.46466">
        <ele>629</ele>
        <time>2019-07-29T11:42:44Z</time>
      </trkpt>
      <trkpt lat="45.64999" lon="4.46515">
        <ele>633</ele>
        <time>2019-07-29T11:42:55Z</time>
      </trkpt>
      <trkpt lat="45.65032" lon="4.46545">
        <ele>630</ele>
        <time>2019-07-29T11:43:04Z</time>
      </trkpt>
      <trkpt lat="45.651" lon="4.46556">
        <ele>620</ele>
        <time>2019-07-29T11:43:20Z</time>
      </trkpt>
      <trkpt lat="45.65131" lon="4.46607">
        <ele>621</ele>
        <time>2019-07-29T11:43:31Z</time>
      </trkpt>
      <trkpt lat="45.65182" lon="4.46627">
        <ele>621</ele>
        <time>2019-07-29T11:43:44Z</time>
      </trkpt>
      <trkpt lat="45.65251" lon="4.4668">
        <ele>622</ele>
        <time>2019-07-29T11:44:02Z</time>
      </trkpt>
      <trkpt lat="45.65308" lon="4.46755">
        <ele>626</ele>
        <time>2019-07-29T11:44:20Z</time>
      </trkpt>
      <trkpt lat="45.65364" lon="4.46779">
        <ele>628</ele>
        <time>2019-07-29T11:44:34Z</time>
      </trkpt>
      <trkpt lat="45.65425" lon="4.46792">
        <ele>628</ele>
        <time>2019-07-29T11:44:48Z</time>
      </trkpt>
      <trkpt lat="45.65479" lon="4.46833">
        <ele>631</ele>
        <time>2019-07-29T11:45:02Z</time>
      </trkpt>
      <trkpt lat="45.65521" lon="4.46889">
        <ele>634</ele>
        <time>2019-07-29T11:45:16Z</time>
      </trkpt>
      <trkpt lat="45.65589" lon="4.46921">
        <ele>639</ele>
        <time>2019-07-29T11:45:32Z</time>
      </trkpt>
      <trkpt lat="45.65629" lon="4.46992">
        <ele>639</ele>
        <time>2019-07-29T11:45:47Z</time>
      </trkpt>
      <trkpt lat="45.65661" lon="4.47011">
        <ele>640</ele>
        <time>2019-07-29T11:45:55Z</time>
      </trkpt>
      <trkpt lat="45.65736" lon="4.46974">
        <ele>641</ele>
        <time>2019-07-29T11:46:14Z</time>
      </trkpt>
      <trkpt lat="45.65766" lon="4.47">
        <ele>640</ele>
        <time>2019-07-29T11:46:22Z</time>
      </trkpt>
      <trkpt lat="45.65796" lon="4.47073">
        <ele>641</ele>
        <time>2019-07-29T11:46:36Z</time>
      </trkpt>
      <trkpt lat="45.65853" lon="4.47095">
        <ele>648</ele>
        <time>2019-07-29T11:46:50Z</time>
      </trkpt>
      <trkpt lat="45.65913" lon="4.47135">
        <ele>658</ele>
        <time>2019-07-29T11:47:05Z</time>
      </trkpt>
      <trkpt lat="45.65928" lon="4.47182">
        <ele>662</ele>
        <time>2019-07-29T11:47:14Z</time>
      </trkpt>
      <trkpt lat="45.65965" lon="4.47204">
        <ele>663</ele>
        <time>2019-07-29T11:47:23Z</time>
      </trkpt>
      <trkpt lat="45.66034" lon="4.47204">
        <ele>664</ele>
        <time>2019-07-29T11:47:39Z</time>
      </trkpt>
      <trkpt lat="45.66055" lon="4.47225">
        <ele>666</ele>
        <time>2019-07-29T11:47:45Z</time>
      </trkpt>
      <trkpt lat="45.66076" lon="4.47247">
        <ele>669</ele>
        <time>2019-07-29T11:47:51Z</time>
      </trkpt>
      <trkpt lat="45.66076" lon="4.47279">
        <ele>670</ele>
        <time>2019-07-29T11:47:56Z</time>
      </trkpt>
      <trkpt lat="45.66127" lon="4.47356">
        <ele>677</ele>
        <time>2019-07-29T11:48:14Z</time>
      </trkpt>
      <trkpt lat="45.66166" lon="4.47326">
        <ele>678</ele>
        <time>2019-07-29T11:48:24Z</time>
      </trkpt>
      <trkpt lat="45.66223" lon="4.47356">
        <ele>681</ele>
        <time>2019-07-29T11:48:38Z</time>
      </trkpt>
      <trkpt lat="45.66292" lon="4.47395">
        <ele>683</ele>
        <time>2019-07-29T11:48:56Z</time>
      </trkpt>
      <trkpt lat="45.66328" lon="4.47429">
        <ele>684</ele>
        <time>2019-07-29T11:49:06Z</time>
      </trkpt>
      <trkpt lat="45.66307" lon="4.47491">
        <ele>689</ele>
        <time>2019-07-29T11:49:17Z</time>
      </trkpt>
      <trkpt lat="45.66286" lon="4.47519">
        <ele>690</ele>
        <time>2019-07-29T11:49:24Z</time>
      </trkpt>
      <trkpt lat="45.66226" lon="4.47858">
        <ele>678</ele>
        <time>2019-07-29T11:50:21Z</time>
      </trkpt>
      <trkpt lat="45.66176" lon="4.48082">
        <ele>665</ele>
        <time>2019-07-29T11:50:59Z</time>
      </trkpt>
      <trkpt lat="45.66173" lon="4.48185">
        <ele>665</ele>
        <time>2019-07-29T11:51:16Z</time>
      </trkpt>
      <trkpt lat="45.66196" lon="4.48247">
        <ele>667</ele>
        <time>2019-07-29T11:51:27Z</time>
      </trkpt>
      <trkpt lat="45.6622" lon="4.48277">
        <ele>669</ele>
        <time>2019-07-29T11:51:35Z</time>
      </trkpt>
      <trkpt lat="45.66238" lon="4.4838">
        <ele>668</ele>
        <time>2019-07-29T11:51:52Z</time>
      </trkpt>
      <trkpt lat="45.66214" lon="4.48418">
        <ele>665</ele>
        <time>2019-07-29T11:52:00Z</time>
      </trkpt>
      <trkpt lat="45.66208" lon="4.48453">
        <ele>666</ele>
        <time>2019-07-29T11:52:06Z</time>
      </trkpt>
      <trkpt lat="45.66226" lon="4.48481">
        <ele>668</ele>
        <time>2019-07-29T11:52:13Z</time>
      </trkpt>
      <trkpt lat="45.6619" lon="4.48534">
        <ele>668</ele>
        <time>2019-07-29T11:52:25Z</time>
      </trkpt>
      <trkpt lat="45.66127" lon="4.48543">
        <ele>673</ele>
        <time>2019-07-29T11:52:39Z</time>
      </trkpt>
      <trkpt lat="45.66121" lon="4.4859">
        <ele>678</ele>
        <time>2019-07-29T11:52:47Z</time>
      </trkpt>
      <trkpt lat="45.66094" lon="4.48637">
        <ele>686</ele>
        <time>2019-07-29T11:52:57Z</time>
      </trkpt>
      <trkpt lat="45.66095" lon="4.48687">
        <ele>690</ele>
        <time>2019-07-29T11:53:05Z</time>
      </trkpt>
      <trkpt lat="45.66067" lon="4.48775">
        <ele>697</ele>
        <time>2019-07-29T11:53:21Z</time>
      </trkpt>
      <trkpt lat="45.6607" lon="4.48809">
        <ele>700</ele>
        <time>2019-07-29T11:53:27Z</time>
      </trkpt>
      <trkpt lat="45.66051" lon="4.4886">
        <ele>703</ele>
        <time>2019-07-29T11:53:36Z</time>
      </trkpt>
      <trkpt lat="45.66009" lon="4.48927">
        <ele>710</ele>
        <time>2019-07-29T11:53:51Z</time>
      </trkpt>
      <trkpt lat="45.65991" lon="4.49011">
        <ele>719</ele>
        <time>2019-07-29T11:54:05Z</time>
      </trkpt>
      <trkpt lat="45.65764" lon="4.49066">
        <ele>713</ele>
        <time>2019-07-29T11:54:59Z</time>
      </trkpt>
      <trkpt lat="45.65766" lon="4.49092">
        <ele>714</ele>
        <time>2019-07-29T11:55:03Z</time>
      </trkpt>
      <trkpt lat="45.65788" lon="4.49097">
        <ele>716</ele>
        <time>2019-07-29T11:55:08Z</time>
      </trkpt>
      <trkpt lat="45.65808" lon="4.4912">
        <ele>717</ele>
        <time>2019-07-29T11:55:14Z</time>
      </trkpt>
      <trkpt lat="45.65826" lon="4.49124">
        <ele>719</ele>
        <time>2019-07-29T11:55:19Z</time>
      </trkpt>
      <trkpt lat="45.65904" lon="4.4918">
        <ele>722</ele>
        <time>2019-07-29T11:55:39Z</time>
      </trkpt>
      <trkpt lat="45.65991" lon="4.49272">
        <ele>722</ele>
        <time>2019-07-29T11:56:04Z</time>
      </trkpt>
      <trkpt lat="45.66003" lon="4.49339">
        <ele>721</ele>
        <time>2019-07-29T11:56:16Z</time>
      </trkpt>
      <trkpt lat="45.66091" lon="4.495">
        <ele>730</ele>
        <time>2019-07-29T11:56:49Z</time>
      </trkpt>
      <trkpt lat="45.66107" lon="4.49588">
        <ele>739</ele>
        <time>2019-07-29T11:57:04Z</time>
      </trkpt>
      <trkpt lat="45.66148" lon="4.49654">
        <ele>749</ele>
        <time>2019-07-29T11:57:18Z</time>
      </trkpt>
      <trkpt lat="45.6616" lon="4.49835">
        <ele>760</ele>
        <time>2019-07-29T11:57:48Z</time>
      </trkpt>
      <trkpt lat="45.66116" lon="4.49905">
        <ele>763</ele>
        <time>2019-07-29T11:58:03Z</time>
      </trkpt>
      <trkpt lat="45.66174" lon="4.49894">
        <ele>764</ele>
        <time>2019-07-29T11:58:17Z</time>
      </trkpt>
      <trkpt lat="45.66232" lon="4.50004">
        <ele>765</ele>
        <time>2019-07-29T11:58:39Z</time>
      </trkpt>
      <trkpt lat="45.66313" lon="4.50066">
        <ele>767</ele>
        <time>2019-07-29T11:59:01Z</time>
      </trkpt>
      <trkpt lat="45.66334" lon="4.50091">
        <ele>768</ele>
        <time>2019-07-29T11:59:07Z</time>
      </trkpt>
      <trkpt lat="45.66416" lon="4.5022">
        <ele>777</ele>
        <time>2019-07-29T11:59:36Z</time>
      </trkpt>
      <trkpt lat="45.66435" lon="4.50242">
        <ele>780</ele>
        <time>2019-07-29T11:59:41Z</time>
      </trkpt>
      <trkpt lat="45.66448" lon="4.50258">
        <ele>782</ele>
        <time>2019-07-29T11:59:45Z</time>
      </trkpt>
      <trkpt lat="45.66482" lon="4.50335">
        <ele>794</ele>
        <time>2019-07-29T12:00:00Z</time>
      </trkpt>
      <trkpt lat="45.66503" lon="4.50368">
        <ele>799</ele>
        <time>2019-07-29T12:00:07Z</time>
      </trkpt>
      <trkpt lat="45.6652" lon="4.50375">
        <ele>803</ele>
        <time>2019-07-29T12:00:12Z</time>
      </trkpt>
      <trkpt lat="45.66567" lon="4.50367">
        <ele>808</ele>
        <time>2019-07-29T12:00:23Z</time>
      </trkpt>
      <trkpt lat="45.66595" lon="4.50349">
        <ele>809</ele>
        <time>2019-07-29T12:00:30Z</time>
      </trkpt>
      <trkpt lat="45.66609" lon="4.50344">
        <ele>810</ele>
        <time>2019-07-29T12:00:33Z</time>
      </trkpt>
      <trkpt lat="45.66627" lon="4.50355">
        <ele>812</ele>
        <time>2019-07-29T12:00:38Z</time>
      </trkpt>
      <trkpt lat="45.66649" lon="4.50395">
        <ele>816</ele>
        <time>2019-07-29T12:00:46Z</time>
      </trkpt>
      <trkpt lat="45.66667" lon="4.50445">
        <ele>822</ele>
        <time>2019-07-29T12:00:55Z</time>
      </trkpt>
      <trkpt lat="45.66705" lon="4.50485">
        <ele>822</ele>
        <time>2019-07-29T12:01:06Z</time>
      </trkpt>
      <trkpt lat="45.66752" lon="4.5055">
        <ele>826</ele>
        <time>2019-07-29T12:01:22Z</time>
      </trkpt>
      <trkpt lat="45.66767" lon="4.5058">
        <ele>830</ele>
        <time>2019-07-29T12:01:28Z</time>
      </trkpt>
      <trkpt lat="45.66808" lon="4.50645">
        <ele>838</ele>
        <time>2019-07-29T12:01:42Z</time>
      </trkpt>
      <trkpt lat="45.66816" lon="4.50673">
        <ele>841</ele>
        <time>2019-07-29T12:01:47Z</time>
      </trkpt>
      <trkpt lat="45.66831" lon="4.50677">
        <ele>840</ele>
        <time>2019-07-29T12:01:50Z</time>
      </trkpt>
      <trkpt lat="45.66849" lon="4.50683">
        <ele>843</ele>
        <time>2019-07-29T12:01:55Z</time>
      </trkpt>
      <trkpt lat="45.66877" lon="4.50688">
        <ele>847</ele>
        <time>2019-07-29T12:02:01Z</time>
      </trkpt>
      <trkpt lat="45.66903" lon="4.50699">
        <ele>850</ele>
        <time>2019-07-29T12:02:08Z</time>
      </trkpt>
      <trkpt lat="45.66901" lon="4.5071">
        <ele>850</ele>
        <time>2019-07-29T12:02:09Z</time>
      </trkpt>
      <trkpt lat="45.6691" lon="4.5074">
        <ele>852</ele>
        <time>2019-07-29T12:02:15Z</time>
      </trkpt>
      <trkpt lat="45.66913" lon="4.5078">
        <ele>852</ele>
        <time>2019-07-29T12:02:21Z</time>
      </trkpt>
      <trkpt lat="45.66919" lon="4.50832">
        <ele>853</ele>
        <time>2019-07-29T12:02:30Z</time>
      </trkpt>
      <trkpt lat="45.66859" lon="4.50899">
        <ele>855</ele>
        <time>2019-07-29T12:02:48Z</time>
      </trkpt>
      <trkpt lat="45.6685" lon="4.50923">
        <ele>855</ele>
        <time>2019-07-29T12:02:52Z</time>
      </trkpt>
      <trkpt lat="45.66754" lon="4.51114">
        <ele>844</ele>
        <time>2019-07-29T12:03:31Z</time>
      </trkpt>
      <trkpt lat="45.66745" lon="4.51185">
        <ele>841</ele>
        <time>2019-07-29T12:03:42Z</time>
      </trkpt>
      <trkpt lat="45.66739" lon="4.51203">
        <ele>839</ele>
        <time>2019-07-29T12:03:46Z</time>
      </trkpt>
      <trkpt lat="45.66687" lon="4.51257">
        <ele>827</ele>
        <time>2019-07-29T12:04:01Z</time>
      </trkpt>
      <trkpt lat="45.66673" lon="4.51259">
        <ele>823</ele>
        <time>2019-07-29T12:04:04Z</time>
      </trkpt>
      <trkpt lat="45.66654" lon="4.51241">
        <ele>821</ele>
        <time>2019-07-29T12:04:09Z</time>
      </trkpt>
      <trkpt lat="45.66644" lon="4.51274">
        <ele>816</ele>
        <time>2019-07-29T12:04:15Z</time>
      </trkpt>
      <trkpt lat="45.66643" lon="4.51327">
        <ele>811</ele>
        <time>2019-07-29T12:04:24Z</time>
      </trkpt>
      <trkpt lat="45.66673" lon="4.51403">
        <ele>806</ele>
        <time>2019-07-29T12:04:38Z</time>
      </trkpt>
      <trkpt lat="45.66706" lon="4.51488">
        <ele>798</ele>
        <time>2019-07-29T12:04:54Z</time>
      </trkpt>
      <trkpt lat="45.66721" lon="4.51499">
        <ele>797</ele>
        <time>2019-07-29T12:04:58Z</time>
      </trkpt>
      <trkpt lat="45.6675" lon="4.51508">
        <ele>797</ele>
        <time>2019-07-29T12:05:05Z</time>
      </trkpt>
      <trkpt lat="45.66707" lon="4.51534">
        <ele>792</ele>
        <time>2019-07-29T12:05:16Z</time>
      </trkpt>
      <trkpt lat="45.66753" lon="4.51541">
        <ele>792</ele>
        <time>2019-07-29T12:05:26Z</time>
      </trkpt>
      <trkpt lat="45.66731" lon="4.51635">
        <ele>779</ele>
        <time>2019-07-29T12:05:43Z</time>
      </trkpt>
      <trkpt lat="45.66671" lon="4.51725">
        <ele>771</ele>
        <time>2019-07-29T12:06:03Z</time>
      </trkpt>
      <trkpt lat="45.66744" lon="4.51854">
        <ele>758</ele>
        <time>2019-07-29T12:06:30Z</time>
      </trkpt>
      <trkpt lat="45.66767" lon="4.51935">
        <ele>754</ele>
        <time>2019-07-29T12:06:44Z</time>
      </trkpt>
      <trkpt lat="45.66776" lon="4.52008">
        <ele>752</ele>
        <time>2019-07-29T12:06:56Z</time>
      </trkpt>
      <trkpt lat="45.66821" lon="4.52113">
        <ele>747</ele>
        <time>2019-07-29T12:07:16Z</time>
      </trkpt>
      <trkpt lat="45.66818" lon="4.52176">
        <ele>749</ele>
        <time>2019-07-29T12:07:27Z</time>
      </trkpt>
      <trkpt lat="45.66852" lon="4.52246">
        <ele>746</ele>
        <time>2019-07-29T12:07:41Z</time>
      </trkpt>
      <trkpt lat="45.66902" lon="4.52296">
        <ele>739</ele>
        <time>2019-07-29T12:07:55Z</time>
      </trkpt>
      <trkpt lat="45.66929" lon="4.52311">
        <ele>737</ele>
        <time>2019-07-29T12:08:02Z</time>
      </trkpt>
      <trkpt lat="45.67026" lon="4.52365">
        <ele>730</ele>
        <time>2019-07-29T12:08:26Z</time>
      </trkpt>
      <trkpt lat="45.67079" lon="4.52343">
        <ele>729</ele>
        <time>2019-07-29T12:08:39Z</time>
      </trkpt>
      <trkpt lat="45.6714" lon="4.52427">
        <ele>729</ele>
        <time>2019-07-29T12:08:59Z</time>
      </trkpt>
      <trkpt lat="45.67174" lon="4.52442">
        <ele>729</ele>
        <time>2019-07-29T12:09:07Z</time>
      </trkpt>
      <trkpt lat="45.67212" lon="4.52435">
        <ele>728</ele>
        <time>2019-07-29T12:09:16Z</time>
      </trkpt>
      <trkpt lat="45.67233" lon="4.52502">
        <ele>728</ele>
        <time>2019-07-29T12:09:28Z</time>
      </trkpt>
      <trkpt lat="45.67254" lon="4.52528">
        <ele>731</ele>
        <time>2019-07-29T12:09:34Z</time>
      </trkpt>
      <trkpt lat="45.67199" lon="4.5259">
        <ele>733</ele>
        <time>2019-07-29T12:09:51Z</time>
      </trkpt>
      <trkpt lat="45.67056" lon="4.52508">
        <ele>739</ele>
        <time>2019-07-29T12:10:27Z</time>
      </trkpt>
      <trkpt lat="45.67029" lon="4.52547">
        <ele>744</ele>
        <time>2019-07-29T12:10:36Z</time>
      </trkpt>
      <trkpt lat="45.6677" lon="4.52577">
        <ele>758</ele>
        <time>2019-07-29T12:11:36Z</time>
      </trkpt>
      <trkpt lat="45.66611" lon="4.52646">
        <ele>765</ele>
        <time>2019-07-29T12:12:15Z</time>
      </trkpt>
      <trkpt lat="45.66444" lon="4.52789">
        <ele>770</ele>
        <time>2019-07-29T12:13:01Z</time>
      </trkpt>
      <trkpt lat="45.66444" lon="4.52929">
        <ele>765</ele>
        <time>2019-07-29T12:13:23Z</time>
      </trkpt>
      <trkpt lat="45.66425" lon="4.53023">
        <ele>760</ele>
        <time>2019-07-29T12:13:39Z</time>
      </trkpt>
      <trkpt lat="45.66455" lon="4.53113">
        <ele>751</ele>
        <time>2019-07-29T12:13:56Z</time>
      </trkpt>
      <trkpt lat="45.66411" lon="4.53195">
        <ele>745</ele>
        <time>2019-07-29T12:14:13Z</time>
      </trkpt>
      <trkpt lat="45.66426" lon="4.53253">
        <ele>738</ele>
        <time>2019-07-29T12:14:23Z</time>
      </trkpt>
      <trkpt lat="45.6645" lon="4.53291">
        <ele>734</ele>
        <time>2019-07-29T12:14:31Z</time>
      </trkpt>
      <trkpt lat="45.66374" lon="4.53304">
        <ele>731</ele>
        <time>2019-07-29T12:14:49Z</time>
      </trkpt>
      <trkpt lat="45.6633" lon="4.53285">
        <ele>731</ele>
        <time>2019-07-29T12:15:00Z</time>
      </trkpt>
      <trkpt lat="45.66327" lon="4.53407">
        <ele>720</ele>
        <time>2019-07-29T12:15:20Z</time>
      </trkpt>
      <trkpt lat="45.66332" lon="4.53543">
        <ele>718</ele>
        <time>2019-07-29T12:15:42Z</time>
      </trkpt>
      <trkpt lat="45.66363" lon="4.53766">
        <ele>727</ele>
        <time>2019-07-29T12:16:19Z</time>
      </trkpt>
      <trkpt lat="45.66398" lon="4.53864">
        <ele>727</ele>
        <time>2019-07-29T12:16:37Z</time>
      </trkpt>
      <trkpt lat="45.66437" lon="4.5397">
        <ele>722</ele>
        <time>2019-07-29T12:16:56Z</time>
      </trkpt>
      <trkpt lat="45.66455" lon="4.54098">
        <ele>709</ele>
        <time>2019-07-29T12:17:18Z</time>
      </trkpt>
      <trkpt lat="45.66462" lon="4.54203">
        <ele>698</ele>
        <time>2019-07-29T12:17:35Z</time>
      </trkpt>
      <trkpt lat="45.66483" lon="4.54377">
        <ele>679</ele>
        <time>2019-07-29T12:18:04Z</time>
      </trkpt>
      <trkpt lat="45.66474" lon="4.54444">
        <ele>673</ele>
        <time>2019-07-29T12:18:15Z</time>
      </trkpt>
      <trkpt lat="45.66419" lon="4.54435">
        <ele>674</ele>
        <time>2019-07-29T12:18:28Z</time>
      </trkpt>
      <trkpt lat="45.66377" lon="4.54401">
        <ele>675</ele>
        <time>2019-07-29T12:18:39Z</time>
      </trkpt>
      <trkpt lat="45.66252" lon="4.54375">
        <ele>666</ele>
        <time>2019-07-29T12:19:09Z</time>
      </trkpt>
      <trkpt lat="45.66207" lon="4.54371">
        <ele>662</ele>
        <time>2019-07-29T12:19:19Z</time>
      </trkpt>
      <trkpt lat="45.66197" lon="4.54341">
        <ele>663</ele>
        <time>2019-07-29T12:19:25Z</time>
      </trkpt>
      <trkpt lat="45.66174" lon="4.54321">
        <ele>661</ele>
        <time>2019-07-29T12:19:31Z</time>
      </trkpt>
      <trkpt lat="45.66176" lon="4.54274">
        <ele>662</ele>
        <time>2019-07-29T12:19:38Z</time>
      </trkpt>
      <trkpt lat="45.66137" lon="4.54167">
        <ele>663</ele>
        <time>2019-07-29T12:19:58Z</time>
      </trkpt>
      <trkpt lat="45.6607" lon="4.54">
        <ele>661</ele>
        <time>2019-07-29T12:20:30Z</time>
      </trkpt>
      <trkpt lat="45.66068" lon="4.53957">
        <ele>663</ele>
        <time>2019-07-29T12:20:37Z</time>
      </trkpt>
      <trkpt lat="45.66086" lon="4.53828">
        <ele>673</ele>
        <time>2019-07-29T12:20:58Z</time>
      </trkpt>
      <trkpt lat="45.6608" lon="4.538">
        <ele>678</ele>
        <time>2019-07-29T12:21:03Z</time>
      </trkpt>
      <trkpt lat="45.66056" lon="4.53796">
        <ele>678</ele>
        <time>2019-07-29T12:21:09Z</time>
      </trkpt>
      <trkpt lat="45.65941" lon="4.53824">
        <ele>674</ele>
        <time>2019-07-29T12:21:36Z</time>
      </trkpt>
      <trkpt lat="45.65902" lon="4.53918">
        <ele>667</ele>
        <time>2019-07-29T12:21:54Z</time>
      </trkpt>
      <trkpt lat="45.65825" lon="4.54004">
        <ele>660</ele>
        <time>2019-07-29T12:22:16Z</time>
      </trkpt>
      <trkpt lat="45.6586" lon="4.54227">
        <ele>640</ele>
        <time>2019-07-29T12:22:54Z</time>
      </trkpt>
      <trkpt lat="45.65857" lon="4.54306">
        <ele>633</ele>
        <time>2019-07-29T12:23:07Z</time>
      </trkpt>
      <trkpt lat="45.65824" lon="4.54379">
        <ele>627</ele>
        <time>2019-07-29T12:23:21Z</time>
      </trkpt>
      <trkpt lat="45.65821" lon="4.54424">
        <ele>625</ele>
        <time>2019-07-29T12:23:28Z</time>
      </trkpt>
      <trkpt lat="45.65819" lon="4.54482">
        <ele>624</ele>
        <time>2019-07-29T12:23:38Z</time>
      </trkpt>
      <trkpt lat="45.65806" lon="4.5451">
        <ele>625</ele>
        <time>2019-07-29T12:23:43Z</time>
      </trkpt>
      <trkpt lat="45.65813" lon="4.54596">
        <ele>627</ele>
        <time>2019-07-29T12:23:57Z</time>
      </trkpt>
      <trkpt lat="45.65851" lon="4.54699">
        <ele>633</ele>
        <time>2019-07-29T12:24:16Z</time>
      </trkpt>
      <trkpt lat="45.65851" lon="4.54787">
        <ele>642</ele>
        <time>2019-07-29T12:24:31Z</time>
      </trkpt>
      <trkpt lat="45.65873" lon="4.54817">
        <ele>643</ele>
        <time>2019-07-29T12:24:38Z</time>
      </trkpt>
      <trkpt lat="45.65882" lon="4.54879">
        <ele>650</ele>
        <time>2019-07-29T12:24:48Z</time>
      </trkpt>
      <trkpt lat="45.65864" lon="4.54832">
        <ele>646</ele>
        <time>2019-07-29T12:24:57Z</time>
      </trkpt>
      <trkpt lat="45.65848" lon="4.54849">
        <ele>650</ele>
        <time>2019-07-29T12:25:02Z</time>
      </trkpt>
      <trkpt lat="45.65822" lon="4.54914">
        <ele>658</ele>
        <time>2019-07-29T12:25:14Z</time>
      </trkpt>
      <trkpt lat="45.65815" lon="4.54976">
        <ele>664</ele>
        <time>2019-07-29T12:25:24Z</time>
      </trkpt>
      <trkpt lat="45.65779" lon="4.55066">
        <ele>671</ele>
        <time>2019-07-29T12:25:41Z</time>
      </trkpt>
      <trkpt lat="45.65824" lon="4.55128">
        <ele>677</ele>
        <time>2019-07-29T12:25:56Z</time>
      </trkpt>
      <trkpt lat="45.65893" lon="4.55145">
        <ele>677</ele>
        <time>2019-07-29T12:26:12Z</time>
      </trkpt>
      <trkpt lat="45.65869" lon="4.55246">
        <ele>684</ele>
        <time>2019-07-29T12:26:29Z</time>
      </trkpt>
      <trkpt lat="45.65873" lon="4.55326">
        <ele>689</ele>
        <time>2019-07-29T12:26:42Z</time>
      </trkpt>
      <trkpt lat="45.6587" lon="4.55555">
        <ele>694</ele>
        <time>2019-07-29T12:27:20Z</time>
      </trkpt>
      <trkpt lat="45.65903" lon="4.55731">
        <ele>707</ele>
        <time>2019-07-29T12:27:49Z</time>
      </trkpt>
      <trkpt lat="45.65963" lon="4.55929">
        <ele>728</ele>
        <time>2019-07-29T12:28:25Z</time>
      </trkpt>
      <trkpt lat="45.65996" lon="4.55969">
        <ele>732</ele>
        <time>2019-07-29T12:28:35Z</time>
      </trkpt>
      <trkpt lat="45.66014" lon="4.56014">
        <ele>733</ele>
        <time>2019-07-29T12:28:43Z</time>
      </trkpt>
      <trkpt lat="45.6602" lon="4.56064">
        <ele>733</ele>
        <time>2019-07-29T12:28:52Z</time>
      </trkpt>
      <trkpt lat="45.66047" lon="4.56064">
        <ele>733</ele>
        <time>2019-07-29T12:28:58Z</time>
      </trkpt>
      <trkpt lat="45.66067" lon="4.56109">
        <ele>733</ele>
        <time>2019-07-29T12:29:07Z</time>
      </trkpt>
      <trkpt lat="45.66092" lon="4.56343">
        <ele>734</ele>
        <time>2019-07-29T12:29:45Z</time>
      </trkpt>
      <trkpt lat="45.65977" lon="4.56399">
        <ele>732</ele>
        <time>2019-07-29T12:30:14Z</time>
      </trkpt>
      <trkpt lat="45.65905" lon="4.56399">
        <ele>728</ele>
        <time>2019-07-29T12:30:30Z</time>
      </trkpt>
      <trkpt lat="45.65882" lon="4.56384">
        <ele>727</ele>
        <time>2019-07-29T12:30:36Z</time>
      </trkpt>
      <trkpt lat="45.65864" lon="4.56405">
        <ele>726</ele>
        <time>2019-07-29T12:30:42Z</time>
      </trkpt>
    </trkseg>
  </trk>
  <trk>
    <name><![CDATA[8609348-vttdesmonts 2018_27km]]></name>
    <trkseg>
      <trkpt lat="45.65821" lon="4.55872">
        <ele>704</ele>
        <time>2019-07-29T10:30:22Z</time>
      </trkpt>
      <trkpt lat="45.65811" lon="4.55874">
        <ele>703</ele>
        <time>2019-07-29T10:30:24Z</time>
      </trkpt>
      <trkpt lat="45.65795" lon="4.5587">
        <ele>701</ele>
        <time>2019-07-29T10:30:28Z</time>
      </trkpt>
      <trkpt lat="45.65789" lon="4.55873">
        <ele>701</ele>
        <time>2019-07-29T10:30:30Z</time>
      </trkpt>
      <trkpt lat="45.65788" lon="4.55892">
        <ele>701</ele>
        <time>2019-07-29T10:30:33Z</time>
      </trkpt>
      <trkpt lat="45.65794" lon="4.56039">
        <ele>708</ele>
        <time>2019-07-29T10:30:57Z</time>
      </trkpt>
      <trkpt lat="45.65802" lon="4.56094">
        <ele>712</ele>
        <time>2019-07-29T10:31:06Z</time>
      </trkpt>
      <trkpt lat="45.65807" lon="4.56156">
        <ele>715</ele>
        <time>2019-07-29T10:31:16Z</time>
      </trkpt>
      <trkpt lat="45.65811" lon="4.56174">
        <ele>716</ele>
        <time>2019-07-29T10:31:19Z</time>
      </trkpt>
      <trkpt lat="45.65822" lon="4.56192">
        <ele>717</ele>
        <time>2019-07-29T10:31:23Z</time>
      </trkpt>
      <trkpt lat="45.65837" lon="4.56197">
        <ele>719</ele>
        <time>2019-07-29T10:31:27Z</time>
      </trkpt>
      <trkpt lat="45.65845" lon="4.56189">
        <ele>719</ele>
        <time>2019-07-29T10:31:29Z</time>
      </trkpt>
      <trkpt lat="45.65856" lon="4.56167">
        <ele>719</ele>
        <time>2019-07-29T10:31:33Z</time>
      </trkpt>
      <trkpt lat="45.65857" lon="4.56158">
        <ele>719</ele>
        <time>2019-07-29T10:31:35Z</time>
      </trkpt>
      <trkpt lat="45.65858" lon="4.5617">
        <ele>720</ele>
        <time>2019-07-29T10:31:37Z</time>
      </trkpt>
      <trkpt lat="45.65849" lon="4.56185">
        <ele>719</ele>
        <time>2019-07-29T10:31:40Z</time>
      </trkpt>
      <trkpt lat="45.65837" lon="4.56197">
        <ele>719</ele>
        <time>2019-07-29T10:31:44Z</time>
      </trkpt>
      <trkpt lat="45.65828" lon="4.56194">
        <ele>718</ele>
        <time>2019-07-29T10:31:46Z</time>
      </trkpt>
      <trkpt lat="45.65812" lon="4.5617">
        <ele>716</ele>
        <time>2019-07-29T10:31:51Z</time>
      </trkpt>
      <trkpt lat="45.65806" lon="4.56148">
        <ele>714</ele>
        <time>2019-07-29T10:31:55Z</time>
      </trkpt>
      <trkpt lat="45.65804" lon="4.56122">
        <ele>713</ele>
        <time>2019-07-29T10:31:59Z</time>
      </trkpt>
      <trkpt lat="45.65809" lon="4.56103">
        <ele>712</ele>
        <time>2019-07-29T10:32:03Z</time>
      </trkpt>
      <trkpt lat="45.65823" lon="4.56095">
        <ele>713</ele>
        <time>2019-07-29T10:32:06Z</time>
      </trkpt>
      <trkpt lat="45.65866" lon="4.56093">
        <ele>718</ele>
        <time>2019-07-29T10:32:16Z</time>
      </trkpt>
      <trkpt lat="45.65933" lon="4.56096">
        <ele>726</ele>
        <time>2019-07-29T10:32:32Z</time>
      </trkpt>
      <trkpt lat="45.65959" lon="4.56102">
        <ele>729</ele>
        <time>2019-07-29T10:32:38Z</time>
      </trkpt>
      <trkpt lat="45.65965" lon="4.56093">
        <ele>729</ele>
        <time>2019-07-29T10:32:40Z</time>
      </trkpt>
      <trkpt lat="45.65982" lon="4.56044">
        <ele>732</ele>
        <time>2019-07-29T10:32:49Z</time>
      </trkpt>
      <trkpt lat="45.66006" lon="4.5595">
        <ele>732</ele>
        <time>2019-07-29T10:33:05Z</time>
      </trkpt>
      <trkpt lat="45.66046" lon="4.55944">
        <ele>729</ele>
        <time>2019-07-29T10:33:15Z</time>
      </trkpt>
      <trkpt lat="45.66077" lon="4.5597">
        <ele>729</ele>
        <time>2019-07-29T10:33:23Z</time>
      </trkpt>
      <trkpt lat="45.66131" lon="4.56005">
        <ele>726</ele>
        <time>2019-07-29T10:33:37Z</time>
      </trkpt>
      <trkpt lat="45.66163" lon="4.56032">
        <ele>725</ele>
        <time>2019-07-29T10:33:45Z</time>
      </trkpt>
      <trkpt lat="45.66229" lon="4.56126">
        <ele>730</ele>
        <time>2019-07-29T10:34:07Z</time>
      </trkpt>
      <trkpt lat="45.66257" lon="4.56194">
        <ele>733</ele>
        <time>2019-07-29T10:34:20Z</time>
      </trkpt>
      <trkpt lat="45.66288" lon="4.56254">
        <ele>736</ele>
        <time>2019-07-29T10:34:32Z</time>
      </trkpt>
      <trkpt lat="45.66294" lon="4.56286">
        <ele>736</ele>
        <time>2019-07-29T10:34:38Z</time>
      </trkpt>
      <trkpt lat="45.66296" lon="4.56335">
        <ele>736</ele>
        <time>2019-07-29T10:34:46Z</time>
      </trkpt>
      <trkpt lat="45.66324" lon="4.56406">
        <ele>735</ele>
        <time>2019-07-29T10:34:59Z</time>
      </trkpt>
      <trkpt lat="45.66347" lon="4.56499">
        <ele>734</ele>
        <time>2019-07-29T10:35:15Z</time>
      </trkpt>
      <trkpt lat="45.6639" lon="4.56607">
        <ele>731</ele>
        <time>2019-07-29T10:35:35Z</time>
      </trkpt>
      <trkpt lat="45.66408" lon="4.56673">
        <ele>731</ele>
        <time>2019-07-29T10:35:47Z</time>
      </trkpt>
      <trkpt lat="45.66407" lon="4.56722">
        <ele>732</ele>
        <time>2019-07-29T10:35:55Z</time>
      </trkpt>
      <trkpt lat="45.66416" lon="4.56827">
        <ele>735</ele>
        <time>2019-07-29T10:36:12Z</time>
      </trkpt>
      <trkpt lat="45.6643" lon="4.56912">
        <ele>736</ele>
        <time>2019-07-29T10:36:26Z</time>
      </trkpt>
      <trkpt lat="45.66438" lon="4.56941">
        <ele>736</ele>
        <time>2019-07-29T10:36:32Z</time>
      </trkpt>
      <trkpt lat="45.66452" lon="4.56967">
        <ele>736</ele>
        <time>2019-07-29T10:36:37Z</time>
      </trkpt>
      <trkpt lat="45.66477" lon="4.56996">
        <ele>736</ele>
        <time>2019-07-29T10:36:44Z</time>
      </trkpt>
      <trkpt lat="45.66494" lon="4.57045">
        <ele>735</ele>
        <time>2019-07-29T10:36:53Z</time>
      </trkpt>
      <trkpt lat="45.66499" lon="4.57128">
        <ele>732</ele>
        <time>2019-07-29T10:37:07Z</time>
      </trkpt>
      <trkpt lat="45.66505" lon="4.57183">
        <ele>731</ele>
        <time>2019-07-29T10:37:16Z</time>
      </trkpt>
      <trkpt lat="45.66511" lon="4.57209">
        <ele>730</ele>
        <time>2019-07-29T10:37:21Z</time>
      </trkpt>
      <trkpt lat="45.66521" lon="4.57236">
        <ele>728</ele>
        <time>2019-07-29T10:37:26Z</time>
      </trkpt>
      <trkpt lat="45.66558" lon="4.5729">
        <ele>722</ele>
        <time>2019-07-29T10:37:38Z</time>
      </trkpt>
      <trkpt lat="45.66571" lon="4.57306">
        <ele>719</ele>
        <time>2019-07-29T10:37:42Z</time>
      </trkpt>
      <trkpt lat="45.66579" lon="4.57312">
        <ele>717</ele>
        <time>2019-07-29T10:37:44Z</time>
      </trkpt>
      <trkpt lat="45.66587" lon="4.57317">
        <ele>716</ele>
        <time>2019-07-29T10:37:46Z</time>
      </trkpt>
      <trkpt lat="45.66602" lon="4.57319">
        <ele>716</ele>
        <time>2019-07-29T10:37:50Z</time>
      </trkpt>
      <trkpt lat="45.66619" lon="4.57307">
        <ele>717</ele>
        <time>2019-07-29T10:37:54Z</time>
      </trkpt>
      <trkpt lat="45.66634" lon="4.57304">
        <ele>718</ele>
        <time>2019-07-29T10:37:57Z</time>
      </trkpt>
      <trkpt lat="45.66682" lon="4.57303">
        <ele>718</ele>
        <time>2019-07-29T10:38:09Z</time>
      </trkpt>
      <trkpt lat="45.66768" lon="4.57312">
        <ele>718</ele>
        <time>2019-07-29T10:38:29Z</time>
      </trkpt>
      <trkpt lat="45.66828" lon="4.57292">
        <ele>724</ele>
        <time>2019-07-29T10:38:43Z</time>
      </trkpt>
      <trkpt lat="45.66881" lon="4.57313">
        <ele>718</ele>
        <time>2019-07-29T10:38:56Z</time>
      </trkpt>
      <trkpt lat="45.66895" lon="4.57309">
        <ele>717</ele>
        <time>2019-07-29T10:38:59Z</time>
      </trkpt>
      <trkpt lat="45.66902" lon="4.57288">
        <ele>720</ele>
        <time>2019-07-29T10:39:03Z</time>
      </trkpt>
      <trkpt lat="45.66915" lon="4.57209">
        <ele>726</ele>
        <time>2019-07-29T10:39:16Z</time>
      </trkpt>
      <trkpt lat="45.66936" lon="4.57024">
        <ele>730</ele>
        <time>2019-07-29T10:39:47Z</time>
      </trkpt>
      <trkpt lat="45.66951" lon="4.56959">
        <ele>734</ele>
        <time>2019-07-29T10:39:58Z</time>
      </trkpt>
      <trkpt lat="45.66988" lon="4.56865">
        <ele>735</ele>
        <time>2019-07-29T10:40:16Z</time>
      </trkpt>
      <trkpt lat="45.6703" lon="4.5681">
        <ele>732</ele>
        <time>2019-07-29T10:40:29Z</time>
      </trkpt>
      <trkpt lat="45.67048" lon="4.56774">
        <ele>732</ele>
        <time>2019-07-29T10:40:36Z</time>
      </trkpt>
      <trkpt lat="45.67099" lon="4.56756">
        <ele>728</ele>
        <time>2019-07-29T10:40:49Z</time>
      </trkpt>
      <trkpt lat="45.6715" lon="4.56761">
        <ele>725</ele>
        <time>2019-07-29T10:41:01Z</time>
      </trkpt>
      <trkpt lat="45.67235" lon="4.56729">
        <ele>720</ele>
        <time>2019-07-29T10:41:21Z</time>
      </trkpt>
      <trkpt lat="45.67262" lon="4.56721">
        <ele>719</ele>
        <time>2019-07-29T10:41:28Z</time>
      </trkpt>
      <trkpt lat="45.67277" lon="4.56713">
        <ele>719</ele>
        <time>2019-07-29T10:41:31Z</time>
      </trkpt>
      <trkpt lat="45.67301" lon="4.56681">
        <ele>720</ele>
        <time>2019-07-29T10:41:39Z</time>
      </trkpt>
      <trkpt lat="45.67371" lon="4.56562">
        <ele>717</ele>
        <time>2019-07-29T10:42:04Z</time>
      </trkpt>
      <trkpt lat="45.6741" lon="4.56508">
        <ele>717</ele>
        <time>2019-07-29T10:42:17Z</time>
      </trkpt>
      <trkpt lat="45.67507" lon="4.56395">
        <ele>714</ele>
        <time>2019-07-29T10:42:46Z</time>
      </trkpt>
      <trkpt lat="45.67552" lon="4.56347">
        <ele>716</ele>
        <time>2019-07-29T10:42:59Z</time>
      </trkpt>
      <trkpt lat="45.67576" lon="4.56327">
        <ele>716</ele>
        <time>2019-07-29T10:43:06Z</time>
      </trkpt>
      <trkpt lat="45.67631" lon="4.56308">
        <ele>715</ele>
        <time>2019-07-29T10:43:19Z</time>
      </trkpt>
      <trkpt lat="45.67685" lon="4.56312">
        <ele>715</ele>
        <time>2019-07-29T10:43:32Z</time>
      </trkpt>
      <trkpt lat="45.67783" lon="4.56354">
        <ele>715</ele>
        <time>2019-07-29T10:43:55Z</time>
      </trkpt>
      <trkpt lat="45.67797" lon="4.56356">
        <ele>715</ele>
        <time>2019-07-29T10:43:59Z</time>
      </trkpt>
      <trkpt lat="45.67817" lon="4.56354">
        <ele>714</ele>
        <time>2019-07-29T10:44:03Z</time>
      </trkpt>
      <trkpt lat="45.67865" lon="4.5633">
        <ele>712</ele>
        <time>2019-07-29T10:44:15Z</time>
      </trkpt>
      <trkpt lat="45.6792" lon="4.56317">
        <ele>710</ele>
        <time>2019-07-29T10:44:28Z</time>
      </trkpt>
      <trkpt lat="45.67973" lon="4.56316">
        <ele>703</ele>
        <time>2019-07-29T10:44:41Z</time>
      </trkpt>
      <trkpt lat="45.6801" lon="4.56279">
        <ele>697</ele>
        <time>2019-07-29T10:44:51Z</time>
      </trkpt>
      <trkpt lat="45.68035" lon="4.56235">
        <ele>693</ele>
        <time>2019-07-29T10:45:01Z</time>
      </trkpt>
      <trkpt lat="45.68042" lon="4.56227">
        <ele>693</ele>
        <time>2019-07-29T10:45:03Z</time>
      </trkpt>
      <trkpt lat="45.68075" lon="4.56205">
        <ele>690</ele>
        <time>2019-07-29T10:45:11Z</time>
      </trkpt>
      <trkpt lat="45.68082" lon="4.56197">
        <ele>689</ele>
        <time>2019-07-29T10:45:13Z</time>
      </trkpt>
      <trkpt lat="45.68117" lon="4.56128">
        <ele>690</ele>
        <time>2019-07-29T10:45:27Z</time>
      </trkpt>
      <trkpt lat="45.68135" lon="4.56104">
        <ele>691</ele>
        <time>2019-07-29T10:45:33Z</time>
      </trkpt>
      <trkpt lat="45.68187" lon="4.56076">
        <ele>696</ele>
        <time>2019-07-29T10:45:46Z</time>
      </trkpt>
      <trkpt lat="45.68273" lon="4.56037">
        <ele>703</ele>
        <time>2019-07-29T10:46:07Z</time>
      </trkpt>
      <trkpt lat="45.68302" lon="4.56028">
        <ele>706</ele>
        <time>2019-07-29T10:46:14Z</time>
      </trkpt>
      <trkpt lat="45.68411" lon="4.56018">
        <ele>715</ele>
        <time>2019-07-29T10:46:39Z</time>
      </trkpt>
      <trkpt lat="45.68431" lon="4.56021">
        <ele>714</ele>
        <time>2019-07-29T10:46:44Z</time>
      </trkpt>
      <trkpt lat="45.68488" lon="4.56016">
        <ele>711</ele>
        <time>2019-07-29T10:46:57Z</time>
      </trkpt>
      <trkpt lat="45.68545" lon="4.55945">
        <ele>710</ele>
        <time>2019-07-29T10:47:15Z</time>
      </trkpt>
      <trkpt lat="45.68563" lon="4.55903">
        <ele>709</ele>
        <time>2019-07-29T10:47:23Z</time>
      </trkpt>
      <trkpt lat="45.68599" lon="4.5584">
        <ele>710</ele>
        <time>2019-07-29T10:47:36Z</time>
      </trkpt>
      <trkpt lat="45.68616" lon="4.55817">
        <ele>712</ele>
        <time>2019-07-29T10:47:42Z</time>
      </trkpt>
      <trkpt lat="45.68629" lon="4.55791">
        <ele>713</ele>
        <time>2019-07-29T10:47:47Z</time>
      </trkpt>
      <trkpt lat="45.68636" lon="4.55758">
        <ele>714</ele>
        <time>2019-07-29T10:47:53Z</time>
      </trkpt>
      <trkpt lat="45.68646" lon="4.55726">
        <ele>713</ele>
        <time>2019-07-29T10:47:58Z</time>
      </trkpt>
      <trkpt lat="45.68695" lon="4.557">
        <ele>716</ele>
        <time>2019-07-29T10:48:11Z</time>
      </trkpt>
      <trkpt lat="45.6874" lon="4.55695">
        <ele>720</ele>
        <time>2019-07-29T10:48:21Z</time>
      </trkpt>
      <trkpt lat="45.68786" lon="4.55668">
        <ele>723</ele>
        <time>2019-07-29T10:48:33Z</time>
      </trkpt>
      <trkpt lat="45.68794" lon="4.5565">
        <ele>722</ele>
        <time>2019-07-29T10:48:36Z</time>
      </trkpt>
      <trkpt lat="45.68797" lon="4.55567">
        <ele>716</ele>
        <time>2019-07-29T10:48:50Z</time>
      </trkpt>
      <trkpt lat="45.68803" lon="4.5553">
        <ele>712</ele>
        <time>2019-07-29T10:48:56Z</time>
      </trkpt>
      <trkpt lat="45.68827" lon="4.55468">
        <ele>708</ele>
        <time>2019-07-29T10:49:08Z</time>
      </trkpt>
      <trkpt lat="45.68837" lon="4.55419">
        <ele>705</ele>
        <time>2019-07-29T10:49:16Z</time>
      </trkpt>
      <trkpt lat="45.6884" lon="4.55375">
        <ele>700</ele>
        <time>2019-07-29T10:49:23Z</time>
      </trkpt>
      <trkpt lat="45.68857" lon="4.55341">
        <ele>698</ele>
        <time>2019-07-29T10:49:30Z</time>
      </trkpt>
      <trkpt lat="45.68874" lon="4.55298">
        <ele>699</ele>
        <time>2019-07-29T10:49:38Z</time>
      </trkpt>
      <trkpt lat="45.68881" lon="4.55294">
        <ele>699</ele>
        <time>2019-07-29T10:49:40Z</time>
      </trkpt>
      <trkpt lat="45.68905" lon="4.55299">
        <ele>701</ele>
        <time>2019-07-29T10:49:45Z</time>
      </trkpt>
      <trkpt lat="45.68925" lon="4.55309">
        <ele>702</ele>
        <time>2019-07-29T10:49:50Z</time>
      </trkpt>
      <trkpt lat="45.68942" lon="4.55313">
        <ele>703</ele>
        <time>2019-07-29T10:49:54Z</time>
      </trkpt>
      <trkpt lat="45.68956" lon="4.55305">
        <ele>705</ele>
        <time>2019-07-29T10:49:58Z</time>
      </trkpt>
      <trkpt lat="45.68984" lon="4.5527">
        <ele>711</ele>
        <time>2019-07-29T10:50:07Z</time>
      </trkpt>
      <trkpt lat="45.69027" lon="4.55211">
        <ele>720</ele>
        <time>2019-07-29T10:50:20Z</time>
      </trkpt>
      <trkpt lat="45.69035" lon="4.55192">
        <ele>722</ele>
        <time>2019-07-29T10:50:24Z</time>
      </trkpt>
      <trkpt lat="45.69037" lon="4.55174">
        <ele>724</ele>
        <time>2019-07-29T10:50:27Z</time>
      </trkpt>
      <trkpt lat="45.69034" lon="4.55139">
        <ele>727</ele>
        <time>2019-07-29T10:50:33Z</time>
      </trkpt>
      <trkpt lat="45.69027" lon="4.55111">
        <ele>730</ele>
        <time>2019-07-29T10:50:38Z</time>
      </trkpt>
      <trkpt lat="45.69031" lon="4.55069">
        <ele>733</ele>
        <time>2019-07-29T10:50:45Z</time>
      </trkpt>
      <trkpt lat="45.69038" lon="4.55055">
        <ele>735</ele>
        <time>2019-07-29T10:50:47Z</time>
      </trkpt>
      <trkpt lat="45.69103" lon="4.54995">
        <ele>749</ele>
        <time>2019-07-29T10:51:05Z</time>
      </trkpt>
      <trkpt lat="45.69121" lon="4.5498">
        <ele>755</ele>
        <time>2019-07-29T10:51:10Z</time>
      </trkpt>
      <trkpt lat="45.69134" lon="4.54977">
        <ele>759</ele>
        <time>2019-07-29T10:51:13Z</time>
      </trkpt>
      <trkpt lat="45.69147" lon="4.54981">
        <ele>761</ele>
        <time>2019-07-29T10:51:16Z</time>
      </trkpt>
      <trkpt lat="45.69189" lon="4.55032">
        <ele>760</ele>
        <time>2019-07-29T10:51:29Z</time>
      </trkpt>
      <trkpt lat="45.69226" lon="4.55095">
        <ele>756</ele>
        <time>2019-07-29T10:51:43Z</time>
      </trkpt>
      <trkpt lat="45.69253" lon="4.55128">
        <ele>754</ele>
        <time>2019-07-29T10:51:51Z</time>
      </trkpt>
      <trkpt lat="45.69257" lon="4.55131">
        <ele>754</ele>
        <time>2019-07-29T10:51:52Z</time>
      </trkpt>
      <trkpt lat="45.69277" lon="4.55134">
        <ele>755</ele>
        <time>2019-07-29T10:51:57Z</time>
      </trkpt>
      <trkpt lat="45.69303" lon="4.55134">
        <ele>758</ele>
        <time>2019-07-29T10:52:03Z</time>
      </trkpt>
      <trkpt lat="45.69325" lon="4.5513">
        <ele>761</ele>
        <time>2019-07-29T10:52:08Z</time>
      </trkpt>
      <trkpt lat="45.69349" lon="4.55121">
        <ele>763</ele>
        <time>2019-07-29T10:52:14Z</time>
      </trkpt>
      <trkpt lat="45.69365" lon="4.55112">
        <ele>764</ele>
        <time>2019-07-29T10:52:18Z</time>
      </trkpt>
      <trkpt lat="45.69392" lon="4.55076">
        <ele>770</ele>
        <time>2019-07-29T10:52:26Z</time>
      </trkpt>
      <trkpt lat="45.69439" lon="4.55044">
        <ele>775</ele>
        <time>2019-07-29T10:52:39Z</time>
      </trkpt>
      <trkpt lat="45.69465" lon="4.55014">
        <ele>781</ele>
        <time>2019-07-29T10:52:46Z</time>
      </trkpt>
      <trkpt lat="45.69488" lon="4.54993">
        <ele>784</ele>
        <time>2019-07-29T10:52:53Z</time>
      </trkpt>
      <trkpt lat="45.69501" lon="4.5499">
        <ele>783</ele>
        <time>2019-07-29T10:52:56Z</time>
      </trkpt>
      <trkpt lat="45.69529" lon="4.54991">
        <ele>784</ele>
        <time>2019-07-29T10:53:02Z</time>
      </trkpt>
      <trkpt lat="45.69559" lon="4.54978">
        <ele>789</ele>
        <time>2019-07-29T10:53:10Z</time>
      </trkpt>
      <trkpt lat="45.69608" lon="4.54966">
        <ele>794</ele>
        <time>2019-07-29T10:53:21Z</time>
      </trkpt>
      <trkpt lat="45.69654" lon="4.54962">
        <ele>796</ele>
        <time>2019-07-29T10:53:32Z</time>
      </trkpt>
      <trkpt lat="45.69676" lon="4.54968">
        <ele>797</ele>
        <time>2019-07-29T10:53:37Z</time>
      </trkpt>
      <trkpt lat="45.69682" lon="4.54973">
        <ele>797</ele>
        <time>2019-07-29T10:53:39Z</time>
      </trkpt>
      <trkpt lat="45.69688" lon="4.54981">
        <ele>797</ele>
        <time>2019-07-29T10:53:41Z</time>
      </trkpt>
      <trkpt lat="45.69694" lon="4.54996">
        <ele>797</ele>
        <time>2019-07-29T10:53:44Z</time>
      </trkpt>
      <trkpt lat="45.69709" lon="4.55009">
        <ele>800</ele>
        <time>2019-07-29T10:53:48Z</time>
      </trkpt>
      <trkpt lat="45.69719" lon="4.55">
        <ele>801</ele>
        <time>2019-07-29T10:53:51Z</time>
      </trkpt>
      <trkpt lat="45.69759" lon="4.54946">
        <ele>807</ele>
        <time>2019-07-29T10:54:03Z</time>
      </trkpt>
      <trkpt lat="45.69781" lon="4.54893">
        <ele>811</ele>
        <time>2019-07-29T10:54:13Z</time>
      </trkpt>
      <trkpt lat="45.69811" lon="4.54862">
        <ele>816</ele>
        <time>2019-07-29T10:54:22Z</time>
      </trkpt>
      <trkpt lat="45.69825" lon="4.54838">
        <ele>817</ele>
        <time>2019-07-29T10:54:27Z</time>
      </trkpt>
      <trkpt lat="45.69839" lon="4.54804">
        <ele>819</ele>
        <time>2019-07-29T10:54:34Z</time>
      </trkpt>
      <trkpt lat="45.69831" lon="4.54771">
        <ele>819</ele>
        <time>2019-07-29T10:54:39Z</time>
      </trkpt>
      <trkpt lat="45.6984" lon="4.54762">
        <ele>819</ele>
        <time>2019-07-29T10:54:42Z</time>
      </trkpt>
      <trkpt lat="45.69852" lon="4.54759">
        <ele>819</ele>
        <time>2019-07-29T10:54:45Z</time>
      </trkpt>
      <trkpt lat="45.69886" lon="4.54661">
        <ele>818</ele>
        <time>2019-07-29T10:55:03Z</time>
      </trkpt>
      <trkpt lat="45.6989" lon="4.54636">
        <ele>818</ele>
        <time>2019-07-29T10:55:07Z</time>
      </trkpt>
      <trkpt lat="45.69892" lon="4.54545">
        <ele>816</ele>
        <time>2019-07-29T10:55:22Z</time>
      </trkpt>
      <trkpt lat="45.69928" lon="4.54439">
        <ele>816</ele>
        <time>2019-07-29T10:55:41Z</time>
      </trkpt>
      <trkpt lat="45.69953" lon="4.5441">
        <ele>814</ele>
        <time>2019-07-29T10:55:48Z</time>
      </trkpt>
      <trkpt lat="45.69966" lon="4.54402">
        <ele>814</ele>
        <time>2019-07-29T10:55:52Z</time>
      </trkpt>
      <trkpt lat="45.69991" lon="4.54441">
        <ele>812</ele>
        <time>2019-07-29T10:56:00Z</time>
      </trkpt>
      <trkpt lat="45.69996" lon="4.54463">
        <ele>812</ele>
        <time>2019-07-29T10:56:04Z</time>
      </trkpt>
      <trkpt lat="45.70005" lon="4.54485">
        <ele>811</ele>
        <time>2019-07-29T10:56:08Z</time>
      </trkpt>
      <trkpt lat="45.70026" lon="4.54513">
        <ele>808</ele>
        <time>2019-07-29T10:56:15Z</time>
      </trkpt>
      <trkpt lat="45.70072" lon="4.54552">
        <ele>801</ele>
        <time>2019-07-29T10:56:27Z</time>
      </trkpt>
      <trkpt lat="45.70089" lon="4.54574">
        <ele>800</ele>
        <time>2019-07-29T10:56:33Z</time>
      </trkpt>
      <trkpt lat="45.70102" lon="4.546">
        <ele>798</ele>
        <time>2019-07-29T10:56:38Z</time>
      </trkpt>
      <trkpt lat="45.70114" lon="4.5466">
        <ele>797</ele>
        <time>2019-07-29T10:56:48Z</time>
      </trkpt>
      <trkpt lat="45.70119" lon="4.54671">
        <ele>796</ele>
        <time>2019-07-29T10:56:50Z</time>
      </trkpt>
      <trkpt lat="45.70125" lon="4.54678">
        <ele>796</ele>
        <time>2019-07-29T10:56:52Z</time>
      </trkpt>
      <trkpt lat="45.70138" lon="4.54685">
        <ele>794</ele>
        <time>2019-07-29T10:56:55Z</time>
      </trkpt>
      <trkpt lat="45.70151" lon="4.54688">
        <ele>792</ele>
        <time>2019-07-29T10:56:58Z</time>
      </trkpt>
      <trkpt lat="45.70161" lon="4.54681">
        <ele>790</ele>
        <time>2019-07-29T10:57:01Z</time>
      </trkpt>
      <trkpt lat="45.70163" lon="4.54665">
        <ele>789</ele>
        <time>2019-07-29T10:57:04Z</time>
      </trkpt>
      <trkpt lat="45.70159" lon="4.54635">
        <ele>789</ele>
        <time>2019-07-29T10:57:09Z</time>
      </trkpt>
      <trkpt lat="45.70161" lon="4.54626">
        <ele>789</ele>
        <time>2019-07-29T10:57:10Z</time>
      </trkpt>
      <trkpt lat="45.7017" lon="4.54619">
        <ele>788</ele>
        <time>2019-07-29T10:57:13Z</time>
      </trkpt>
      <trkpt lat="45.70183" lon="4.54626">
        <ele>788</ele>
        <time>2019-07-29T10:57:16Z</time>
      </trkpt>
      <trkpt lat="45.70208" lon="4.54658">
        <ele>789</ele>
        <time>2019-07-29T10:57:24Z</time>
      </trkpt>
      <trkpt lat="45.70214" lon="4.54658">
        <ele>789</ele>
        <time>2019-07-29T10:57:25Z</time>
      </trkpt>
      <trkpt lat="45.70225" lon="4.54646">
        <ele>788</ele>
        <time>2019-07-29T10:57:28Z</time>
      </trkpt>
      <trkpt lat="45.70241" lon="4.54573">
        <ele>784</ele>
        <time>2019-07-29T10:57:41Z</time>
      </trkpt>
      <trkpt lat="45.70258" lon="4.54542">
        <ele>781</ele>
        <time>2019-07-29T10:57:47Z</time>
      </trkpt>
      <trkpt lat="45.70324" lon="4.54471">
        <ele>779</ele>
        <time>2019-07-29T10:58:06Z</time>
      </trkpt>
      <trkpt lat="45.70345" lon="4.5446">
        <ele>779</ele>
        <time>2019-07-29T10:58:12Z</time>
      </trkpt>
      <trkpt lat="45.70357" lon="4.54443">
        <ele>779</ele>
        <time>2019-07-29T10:58:16Z</time>
      </trkpt>
      <trkpt lat="45.70376" lon="4.54399">
        <ele>779</ele>
        <time>2019-07-29T10:58:24Z</time>
      </trkpt>
      <trkpt lat="45.70378" lon="4.54384">
        <ele>779</ele>
        <time>2019-07-29T10:58:27Z</time>
      </trkpt>
      <trkpt lat="45.70365" lon="4.54381">
        <ele>778</ele>
        <time>2019-07-29T10:58:30Z</time>
      </trkpt>
      <trkpt lat="45.70314" lon="4.5435">
        <ele>774</ele>
        <time>2019-07-29T10:58:43Z</time>
      </trkpt>
      <trkpt lat="45.70301" lon="4.54336">
        <ele>774</ele>
        <time>2019-07-29T10:58:46Z</time>
      </trkpt>
      <trkpt lat="45.70289" lon="4.54318">
        <ele>774</ele>
        <time>2019-07-29T10:58:50Z</time>
      </trkpt>
      <trkpt lat="45.70279" lon="4.54289">
        <ele>774</ele>
        <time>2019-07-29T10:58:56Z</time>
      </trkpt>
      <trkpt lat="45.70254" lon="4.54191">
        <ele>775</ele>
        <time>2019-07-29T10:59:13Z</time>
      </trkpt>
      <trkpt lat="45.70197" lon="4.54118">
        <ele>784</ele>
        <time>2019-07-29T10:59:31Z</time>
      </trkpt>
      <trkpt lat="45.70131" lon="4.54073">
        <ele>787</ele>
        <time>2019-07-29T10:59:48Z</time>
      </trkpt>
      <trkpt lat="45.70094" lon="4.54054">
        <ele>784</ele>
        <time>2019-07-29T10:59:57Z</time>
      </trkpt>
      <trkpt lat="45.70068" lon="4.54019">
        <ele>781</ele>
        <time>2019-07-29T11:00:05Z</time>
      </trkpt>
      <trkpt lat="45.70039" lon="4.53958">
        <ele>774</ele>
        <time>2019-07-29T11:00:17Z</time>
      </trkpt>
      <trkpt lat="45.70027" lon="4.53946">
        <ele>771</ele>
        <time>2019-07-29T11:00:21Z</time>
      </trkpt>
      <trkpt lat="45.70002" lon="4.53931">
        <ele>766</ele>
        <time>2019-07-29T11:00:27Z</time>
      </trkpt>
      <trkpt lat="45.69944" lon="4.53906">
        <ele>759</ele>
        <time>2019-07-29T11:00:41Z</time>
      </trkpt>
      <trkpt lat="45.69911" lon="4.53902">
        <ele>756</ele>
        <time>2019-07-29T11:00:49Z</time>
      </trkpt>
      <trkpt lat="45.6988" lon="4.53894">
        <ele>750</ele>
        <time>2019-07-29T11:00:56Z</time>
      </trkpt>
      <trkpt lat="45.69853" lon="4.5389">
        <ele>747</ele>
        <time>2019-07-29T11:01:03Z</time>
      </trkpt>
      <trkpt lat="45.69787" lon="4.53919">
        <ele>744</ele>
        <time>2019-07-29T11:01:19Z</time>
      </trkpt>
      <trkpt lat="45.69727" lon="4.53969">
        <ele>744</ele>
        <time>2019-07-29T11:01:35Z</time>
      </trkpt>
      <trkpt lat="45.69702" lon="4.53985">
        <ele>746</ele>
        <time>2019-07-29T11:01:41Z</time>
      </trkpt>
      <trkpt lat="45.6969" lon="4.5398">
        <ele>746</ele>
        <time>2019-07-29T11:01:44Z</time>
      </trkpt>
      <trkpt lat="45.6969" lon="4.53941">
        <ele>745</ele>
        <time>2019-07-29T11:01:51Z</time>
      </trkpt>
      <trkpt lat="45.69683" lon="4.53924">
        <ele>745</ele>
        <time>2019-07-29T11:01:54Z</time>
      </trkpt>
      <trkpt lat="45.69677" lon="4.53916">
        <ele>746</ele>
        <time>2019-07-29T11:01:56Z</time>
      </trkpt>
      <trkpt lat="45.69657" lon="4.53896">
        <ele>748</ele>
        <time>2019-07-29T11:02:01Z</time>
      </trkpt>
      <trkpt lat="45.69606" lon="4.53836">
        <ele>755</ele>
        <time>2019-07-29T11:02:17Z</time>
      </trkpt>
      <trkpt lat="45.69581" lon="4.53823">
        <ele>757</ele>
        <time>2019-07-29T11:02:23Z</time>
      </trkpt>
      <trkpt lat="45.69544" lon="4.53809">
        <ele>762</ele>
        <time>2019-07-29T11:02:32Z</time>
      </trkpt>
      <trkpt lat="45.69538" lon="4.53802">
        <ele>763</ele>
        <time>2019-07-29T11:02:34Z</time>
      </trkpt>
      <trkpt lat="45.69509" lon="4.53711">
        <ele>763</ele>
        <time>2019-07-29T11:02:50Z</time>
      </trkpt>
      <trkpt lat="45.69499" lon="4.53686">
        <ele>764</ele>
        <time>2019-07-29T11:02:55Z</time>
      </trkpt>
      <trkpt lat="45.69491" lon="4.53693">
        <ele>764</ele>
        <time>2019-07-29T11:02:57Z</time>
      </trkpt>
      <trkpt lat="45.69477" lon="4.53725">
        <ele>765</ele>
        <time>2019-07-29T11:03:03Z</time>
      </trkpt>
      <trkpt lat="45.69459" lon="4.53749">
        <ele>768</ele>
        <time>2019-07-29T11:03:09Z</time>
      </trkpt>
      <trkpt lat="45.6944" lon="4.53767">
        <ele>771</ele>
        <time>2019-07-29T11:03:14Z</time>
      </trkpt>
      <trkpt lat="45.69412" lon="4.53778">
        <ele>774</ele>
        <time>2019-07-29T11:03:21Z</time>
      </trkpt>
      <trkpt lat="45.69321" lon="4.53773">
        <ele>777</ele>
        <time>2019-07-29T11:03:42Z</time>
      </trkpt>
      <trkpt lat="45.69242" lon="4.53774">
        <ele>781</ele>
        <time>2019-07-29T11:04:01Z</time>
      </trkpt>
      <trkpt lat="45.692" lon="4.53772">
        <ele>783</ele>
        <time>2019-07-29T11:04:10Z</time>
      </trkpt>
      <trkpt lat="45.69181" lon="4.53778">
        <ele>784</ele>
        <time>2019-07-29T11:04:15Z</time>
      </trkpt>
      <trkpt lat="45.69172" lon="4.53776">
        <ele>784</ele>
        <time>2019-07-29T11:04:17Z</time>
      </trkpt>
      <trkpt lat="45.69114" lon="4.53722">
        <ele>782</ele>
        <time>2019-07-29T11:04:33Z</time>
      </trkpt>
      <trkpt lat="45.69069" lon="4.53676">
        <ele>782</ele>
        <time>2019-07-29T11:04:46Z</time>
      </trkpt>
      <trkpt lat="45.68951" lon="4.5355">
        <ele>781</ele>
        <time>2019-07-29T11:05:21Z</time>
      </trkpt>
      <trkpt lat="45.68903" lon="4.53507">
        <ele>784</ele>
        <time>2019-07-29T11:05:34Z</time>
      </trkpt>
      <trkpt lat="45.68871" lon="4.53489">
        <ele>786</ele>
        <time>2019-07-29T11:05:42Z</time>
      </trkpt>
      <trkpt lat="45.68806" lon="4.53465">
        <ele>789</ele>
        <time>2019-07-29T11:05:58Z</time>
      </trkpt>
      <trkpt lat="45.68757" lon="4.53426">
        <ele>790</ele>
        <time>2019-07-29T11:06:11Z</time>
      </trkpt>
      <trkpt lat="45.68656" lon="4.53289">
        <ele>796</ele>
        <time>2019-07-29T11:06:43Z</time>
      </trkpt>
      <trkpt lat="45.68628" lon="4.53256">
        <ele>796</ele>
        <time>2019-07-29T11:06:52Z</time>
      </trkpt>
      <trkpt lat="45.68589" lon="4.53196">
        <ele>795</ele>
        <time>2019-07-29T11:07:05Z</time>
      </trkpt>
      <trkpt lat="45.68548" lon="4.53098">
        <ele>791</ele>
        <time>2019-07-29T11:07:24Z</time>
      </trkpt>
      <trkpt lat="45.68544" lon="4.53082">
        <ele>791</ele>
        <time>2019-07-29T11:07:26Z</time>
      </trkpt>
      <trkpt lat="45.68545" lon="4.53078">
        <ele>791</ele>
        <time>2019-07-29T11:07:27Z</time>
      </trkpt>
      <trkpt lat="45.68571" lon="4.53064">
        <ele>791</ele>
        <time>2019-07-29T11:07:34Z</time>
      </trkpt>
      <trkpt lat="45.6859" lon="4.53007">
        <ele>791</ele>
        <time>2019-07-29T11:07:44Z</time>
      </trkpt>
      <trkpt lat="45.68603" lon="4.52929">
        <ele>791</ele>
        <time>2019-07-29T11:07:57Z</time>
      </trkpt>
      <trkpt lat="45.68615" lon="4.52887">
        <ele>792</ele>
        <time>2019-07-29T11:08:04Z</time>
      </trkpt>
      <trkpt lat="45.68624" lon="4.52865">
        <ele>793</ele>
        <time>2019-07-29T11:08:08Z</time>
      </trkpt>
      <trkpt lat="45.68672" lon="4.52786">
        <ele>793</ele>
        <time>2019-07-29T11:08:26Z</time>
      </trkpt>
      <trkpt lat="45.68704" lon="4.52723">
        <ele>795</ele>
        <time>2019-07-29T11:08:38Z</time>
      </trkpt>
      <trkpt lat="45.68712" lon="4.52699">
        <ele>796</ele>
        <time>2019-07-29T11:08:43Z</time>
      </trkpt>
      <trkpt lat="45.68717" lon="4.52658">
        <ele>798</ele>
        <time>2019-07-29T11:08:49Z</time>
      </trkpt>
      <trkpt lat="45.68717" lon="4.52632">
        <ele>800</ele>
        <time>2019-07-29T11:08:54Z</time>
      </trkpt>
      <trkpt lat="45.68714" lon="4.52611">
        <ele>802</ele>
        <time>2019-07-29T11:08:57Z</time>
      </trkpt>
      <trkpt lat="45.68715" lon="4.52565">
        <ele>805</ele>
        <time>2019-07-29T11:09:05Z</time>
      </trkpt>
      <trkpt lat="45.68719" lon="4.52526">
        <ele>805</ele>
        <time>2019-07-29T11:09:11Z</time>
      </trkpt>
      <trkpt lat="45.68718" lon="4.52497">
        <ele>806</ele>
        <time>2019-07-29T11:09:16Z</time>
      </trkpt>
      <trkpt lat="45.68713" lon="4.52459">
        <ele>802</ele>
        <time>2019-07-29T11:09:22Z</time>
      </trkpt>
      <trkpt lat="45.68698" lon="4.52458">
        <ele>800</ele>
        <time>2019-07-29T11:09:26Z</time>
      </trkpt>
      <trkpt lat="45.68576" lon="4.52501">
        <ele>805</ele>
        <time>2019-07-29T11:09:55Z</time>
      </trkpt>
      <trkpt lat="45.68536" lon="4.52512">
        <ele>807</ele>
        <time>2019-07-29T11:10:04Z</time>
      </trkpt>
      <trkpt lat="45.68472" lon="4.52553">
        <ele>807</ele>
        <time>2019-07-29T11:10:21Z</time>
      </trkpt>
      <trkpt lat="45.68457" lon="4.52551">
        <ele>806</ele>
        <time>2019-07-29T11:10:24Z</time>
      </trkpt>
      <trkpt lat="45.68449" lon="4.52579">
        <ele>804</ele>
        <time>2019-07-29T11:10:29Z</time>
      </trkpt>
      <trkpt lat="45.68445" lon="4.52644">
        <ele>803</ele>
        <time>2019-07-29T11:10:40Z</time>
      </trkpt>
      <trkpt lat="45.68442" lon="4.52657">
        <ele>802</ele>
        <time>2019-07-29T11:10:42Z</time>
      </trkpt>
      <trkpt lat="45.68395" lon="4.52656">
        <ele>797</ele>
        <time>2019-07-29T11:10:53Z</time>
      </trkpt>
      <trkpt lat="45.68387" lon="4.52651">
        <ele>797</ele>
        <time>2019-07-29T11:10:55Z</time>
      </trkpt>
      <trkpt lat="45.68385" lon="4.52634">
        <ele>797</ele>
        <time>2019-07-29T11:10:58Z</time>
      </trkpt>
      <trkpt lat="45.68396" lon="4.52605">
        <ele>799</ele>
        <time>2019-07-29T11:11:03Z</time>
      </trkpt>
      <trkpt lat="45.68398" lon="4.52571">
        <ele>801</ele>
        <time>2019-07-29T11:11:09Z</time>
      </trkpt>
      <trkpt lat="45.68382" lon="4.5256">
        <ele>801</ele>
        <time>2019-07-29T11:11:13Z</time>
      </trkpt>
      <trkpt lat="45.68375" lon="4.52551">
        <ele>802</ele>
        <time>2019-07-29T11:11:15Z</time>
      </trkpt>
      <trkpt lat="45.68373" lon="4.52536">
        <ele>803</ele>
        <time>2019-07-29T11:11:18Z</time>
      </trkpt>
      <trkpt lat="45.68362" lon="4.52537">
        <ele>802</ele>
        <time>2019-07-29T11:11:20Z</time>
      </trkpt>
      <trkpt lat="45.68353" lon="4.52529">
        <ele>802</ele>
        <time>2019-07-29T11:11:23Z</time>
      </trkpt>
      <trkpt lat="45.68356" lon="4.52513">
        <ele>803</ele>
        <time>2019-07-29T11:11:26Z</time>
      </trkpt>
      <trkpt lat="45.6835" lon="4.52489">
        <ele>805</ele>
        <time>2019-07-29T11:11:30Z</time>
      </trkpt>
      <trkpt lat="45.68389" lon="4.52431">
        <ele>812</ele>
        <time>2019-07-29T11:11:43Z</time>
      </trkpt>
      <trkpt lat="45.68389" lon="4.52418">
        <ele>814</ele>
        <time>2019-07-29T11:11:45Z</time>
      </trkpt>
      <trkpt lat="45.68374" lon="4.52382">
        <ele>814</ele>
        <time>2019-07-29T11:11:52Z</time>
      </trkpt>
      <trkpt lat="45.6836" lon="4.52333">
        <ele>815</ele>
        <time>2019-07-29T11:12:00Z</time>
      </trkpt>
      <trkpt lat="45.68356" lon="4.52294">
        <ele>818</ele>
        <time>2019-07-29T11:12:07Z</time>
      </trkpt>
      <trkpt lat="45.68368" lon="4.52207">
        <ele>825</ele>
        <time>2019-07-29T11:12:21Z</time>
      </trkpt>
      <trkpt lat="45.68369" lon="4.5214">
        <ele>828</ele>
        <time>2019-07-29T11:12:32Z</time>
      </trkpt>
      <trkpt lat="45.68355" lon="4.52039">
        <ele>835</ele>
        <time>2019-07-29T11:12:49Z</time>
      </trkpt>
      <trkpt lat="45.68357" lon="4.51986">
        <ele>841</ele>
        <time>2019-07-29T11:12:58Z</time>
      </trkpt>
      <trkpt lat="45.6835" lon="4.51938">
        <ele>844</ele>
        <time>2019-07-29T11:13:06Z</time>
      </trkpt>
      <trkpt lat="45.68349" lon="4.51884">
        <ele>845</ele>
        <time>2019-07-29T11:13:15Z</time>
      </trkpt>
      <trkpt lat="45.68339" lon="4.51736">
        <ele>851</ele>
        <time>2019-07-29T11:13:39Z</time>
      </trkpt>
      <trkpt lat="45.68329" lon="4.51692">
        <ele>854</ele>
        <time>2019-07-29T11:13:46Z</time>
      </trkpt>
      <trkpt lat="45.68288" lon="4.51581">
        <ele>860</ele>
        <time>2019-07-29T11:14:07Z</time>
      </trkpt>
      <trkpt lat="45.68278" lon="4.51537">
        <ele>859</ele>
        <time>2019-07-29T11:14:14Z</time>
      </trkpt>
      <trkpt lat="45.6827" lon="4.51438">
        <ele>859</ele>
        <time>2019-07-29T11:14:31Z</time>
      </trkpt>
      <trkpt lat="45.68246" lon="4.51347">
        <ele>862</ele>
        <time>2019-07-29T11:14:47Z</time>
      </trkpt>
      <trkpt lat="45.68235" lon="4.51294">
        <ele>865</ele>
        <time>2019-07-29T11:14:56Z</time>
      </trkpt>
      <trkpt lat="45.68229" lon="4.51275">
        <ele>866</ele>
        <time>2019-07-29T11:14:59Z</time>
      </trkpt>
      <trkpt lat="45.68214" lon="4.51255">
        <ele>867</ele>
        <time>2019-07-29T11:15:04Z</time>
      </trkpt>
      <trkpt lat="45.68201" lon="4.51227">
        <ele>868</ele>
        <time>2019-07-29T11:15:09Z</time>
      </trkpt>
      <trkpt lat="45.68112" lon="4.5111">
        <ele>874</ele>
        <time>2019-07-29T11:15:37Z</time>
      </trkpt>
      <trkpt lat="45.68099" lon="4.51096">
        <ele>876</ele>
        <time>2019-07-29T11:15:41Z</time>
      </trkpt>
      <trkpt lat="45.68049" lon="4.51061">
        <ele>877</ele>
        <time>2019-07-29T11:15:54Z</time>
      </trkpt>
      <trkpt lat="45.68031" lon="4.51043">
        <ele>878</ele>
        <time>2019-07-29T11:15:59Z</time>
      </trkpt>
      <trkpt lat="45.68024" lon="4.51029">
        <ele>880</ele>
        <time>2019-07-29T11:16:02Z</time>
      </trkpt>
      <trkpt lat="45.68012" lon="4.51004">
        <ele>883</ele>
        <time>2019-07-29T11:16:07Z</time>
      </trkpt>
      <trkpt lat="45.67998" lon="4.50964">
        <ele>886</ele>
        <time>2019-07-29T11:16:14Z</time>
      </trkpt>
      <trkpt lat="45.67949" lon="4.50739">
        <ele>894</ele>
        <time>2019-07-29T11:16:53Z</time>
      </trkpt>
      <trkpt lat="45.67935" lon="4.50693">
        <ele>896</ele>
        <time>2019-07-29T11:17:01Z</time>
      </trkpt>
      <trkpt lat="45.67916" lon="4.50653">
        <ele>899</ele>
        <time>2019-07-29T11:17:09Z</time>
      </trkpt>
      <trkpt lat="45.67904" lon="4.50637">
        <ele>900</ele>
        <time>2019-07-29T11:17:13Z</time>
      </trkpt>
      <trkpt lat="45.67873" lon="4.50614">
        <ele>901</ele>
        <time>2019-07-29T11:17:21Z</time>
      </trkpt>
      <trkpt lat="45.67766" lon="4.50563">
        <ele>902</ele>
        <time>2019-07-29T11:17:47Z</time>
      </trkpt>
      <trkpt lat="45.67717" lon="4.50529">
        <ele>899</ele>
        <time>2019-07-29T11:18:00Z</time>
      </trkpt>
      <trkpt lat="45.67647" lon="4.50418">
        <ele>894</ele>
        <time>2019-07-29T11:18:24Z</time>
      </trkpt>
      <trkpt lat="45.6763" lon="4.50384">
        <ele>891</ele>
        <time>2019-07-29T11:18:31Z</time>
      </trkpt>
      <trkpt lat="45.67617" lon="4.50351">
        <ele>888</ele>
        <time>2019-07-29T11:18:37Z</time>
      </trkpt>
      <trkpt lat="45.67608" lon="4.5032">
        <ele>886</ele>
        <time>2019-07-29T11:18:43Z</time>
      </trkpt>
      <trkpt lat="45.67591" lon="4.50276">
        <ele>882</ele>
        <time>2019-07-29T11:18:51Z</time>
      </trkpt>
      <trkpt lat="45.67581" lon="4.50257">
        <ele>881</ele>
        <time>2019-07-29T11:18:55Z</time>
      </trkpt>
      <trkpt lat="45.67574" lon="4.50234">
        <ele>879</ele>
        <time>2019-07-29T11:18:59Z</time>
      </trkpt>
      <trkpt lat="45.67554" lon="4.50114">
        <ele>873</ele>
        <time>2019-07-29T11:19:19Z</time>
      </trkpt>
      <trkpt lat="45.6755" lon="4.50047">
        <ele>868</ele>
        <time>2019-07-29T11:19:30Z</time>
      </trkpt>
      <trkpt lat="45.67552" lon="4.50015">
        <ele>865</ele>
        <time>2019-07-29T11:19:35Z</time>
      </trkpt>
      <trkpt lat="45.6756" lon="4.49977">
        <ele>860</ele>
        <time>2019-07-29T11:19:42Z</time>
      </trkpt>
      <trkpt lat="45.67561" lon="4.49933">
        <ele>856</ele>
        <time>2019-07-29T11:19:49Z</time>
      </trkpt>
      <trkpt lat="45.67555" lon="4.4984">
        <ele>853</ele>
        <time>2019-07-29T11:20:04Z</time>
      </trkpt>
      <trkpt lat="45.67555" lon="4.49791">
        <ele>854</ele>
        <time>2019-07-29T11:20:12Z</time>
      </trkpt>
      <trkpt lat="45.67549" lon="4.49765">
        <ele>857</ele>
        <time>2019-07-29T11:20:17Z</time>
      </trkpt>
      <trkpt lat="45.67535" lon="4.4967">
        <ele>855</ele>
        <time>2019-07-29T11:20:33Z</time>
      </trkpt>
      <trkpt lat="45.6752" lon="4.49639">
        <ele>855</ele>
        <time>2019-07-29T11:20:39Z</time>
      </trkpt>
      <trkpt lat="45.67497" lon="4.49611">
        <ele>855</ele>
        <time>2019-07-29T11:20:46Z</time>
      </trkpt>
      <trkpt lat="45.67468" lon="4.49591">
        <ele>852</ele>
        <time>2019-07-29T11:20:53Z</time>
      </trkpt>
      <trkpt lat="45.6741" lon="4.49599">
        <ele>854</ele>
        <time>2019-07-29T11:21:07Z</time>
      </trkpt>
      <trkpt lat="45.67396" lon="4.49607">
        <ele>852</ele>
        <time>2019-07-29T11:21:10Z</time>
      </trkpt>
      <trkpt lat="45.6733" lon="4.49686">
        <ele>846</ele>
        <time>2019-07-29T11:21:31Z</time>
      </trkpt>
      <trkpt lat="45.67309" lon="4.49724">
        <ele>844</ele>
        <time>2019-07-29T11:21:38Z</time>
      </trkpt>
      <trkpt lat="45.67302" lon="4.49742">
        <ele>844</ele>
        <time>2019-07-29T11:21:42Z</time>
      </trkpt>
      <trkpt lat="45.67296" lon="4.49774">
        <ele>844</ele>
        <time>2019-07-29T11:21:47Z</time>
      </trkpt>
      <trkpt lat="45.67293" lon="4.49776">
        <ele>843</ele>
        <time>2019-07-29T11:21:48Z</time>
      </trkpt>
      <trkpt lat="45.67276" lon="4.49766">
        <ele>837</ele>
        <time>2019-07-29T11:21:52Z</time>
      </trkpt>
      <trkpt lat="45.67266" lon="4.49763">
        <ele>834</ele>
        <time>2019-07-29T11:21:55Z</time>
      </trkpt>
      <trkpt lat="45.67207" lon="4.49764">
        <ele>830</ele>
        <time>2019-07-29T11:22:08Z</time>
      </trkpt>
      <trkpt lat="45.6719" lon="4.49752">
        <ele>830</ele>
        <time>2019-07-29T11:22:13Z</time>
      </trkpt>
      <trkpt lat="45.67135" lon="4.49748">
        <ele>830</ele>
        <time>2019-07-29T11:22:26Z</time>
      </trkpt>
      <trkpt lat="45.67074" lon="4.49754">
        <ele>828</ele>
        <time>2019-07-29T11:22:40Z</time>
      </trkpt>
      <trkpt lat="45.67041" lon="4.49766">
        <ele>824</ele>
        <time>2019-07-29T11:22:48Z</time>
      </trkpt>
      <trkpt lat="45.67007" lon="4.49787">
        <ele>823</ele>
        <time>2019-07-29T11:22:57Z</time>
      </trkpt>
      <trkpt lat="45.66942" lon="4.49852">
        <ele>814</ele>
        <time>2019-07-29T11:23:15Z</time>
      </trkpt>
      <trkpt lat="45.66931" lon="4.49869">
        <ele>812</ele>
        <time>2019-07-29T11:23:19Z</time>
      </trkpt>
      <trkpt lat="45.66889" lon="4.49911">
        <ele>801</ele>
        <time>2019-07-29T11:23:31Z</time>
      </trkpt>
      <trkpt lat="45.66864" lon="4.49969">
        <ele>792</ele>
        <time>2019-07-29T11:23:42Z</time>
      </trkpt>
      <trkpt lat="45.66839" lon="4.50037">
        <ele>784</ele>
        <time>2019-07-29T11:23:55Z</time>
      </trkpt>
      <trkpt lat="45.66802" lon="4.50152">
        <ele>784</ele>
        <time>2019-07-29T11:24:15Z</time>
      </trkpt>
      <trkpt lat="45.66769" lon="4.5021">
        <ele>784</ele>
        <time>2019-07-29T11:24:27Z</time>
      </trkpt>
      <trkpt lat="45.66748" lon="4.50219">
        <ele>782</ele>
        <time>2019-07-29T11:24:33Z</time>
      </trkpt>
      <trkpt lat="45.66714" lon="4.50214">
        <ele>782</ele>
        <time>2019-07-29T11:24:41Z</time>
      </trkpt>
      <trkpt lat="45.66658" lon="4.50211">
        <ele>783</ele>
        <time>2019-07-29T11:24:54Z</time>
      </trkpt>
      <trkpt lat="45.66625" lon="4.50216">
        <ele>784</ele>
        <time>2019-07-29T11:25:01Z</time>
      </trkpt>
      <trkpt lat="45.66589" lon="4.50233">
        <ele>787</ele>
        <time>2019-07-29T11:25:10Z</time>
      </trkpt>
      <trkpt lat="45.66568" lon="4.50246">
        <ele>788</ele>
        <time>2019-07-29T11:25:16Z</time>
      </trkpt>
      <trkpt lat="45.66538" lon="4.50256">
        <ele>787</ele>
        <time>2019-07-29T11:25:23Z</time>
      </trkpt>
      <trkpt lat="45.66513" lon="4.50271">
        <ele>787</ele>
        <time>2019-07-29T11:25:29Z</time>
      </trkpt>
      <trkpt lat="45.66494" lon="4.50273">
        <ele>785</ele>
        <time>2019-07-29T11:25:34Z</time>
      </trkpt>
      <trkpt lat="45.6644" lon="4.50252">
        <ele>781</ele>
        <time>2019-07-29T11:25:47Z</time>
      </trkpt>
      <trkpt lat="45.66394" lon="4.50196">
        <ele>773</ele>
        <time>2019-07-29T11:26:01Z</time>
      </trkpt>
      <trkpt lat="45.66364" lon="4.50151">
        <ele>769</ele>
        <time>2019-07-29T11:26:11Z</time>
      </trkpt>
      <trkpt lat="45.66334" lon="4.50095">
        <ele>768</ele>
        <time>2019-07-29T11:26:22Z</time>
      </trkpt>
      <trkpt lat="45.66322" lon="4.50079">
        <ele>767</ele>
        <time>2019-07-29T11:26:26Z</time>
      </trkpt>
      <trkpt lat="45.66309" lon="4.50064">
        <ele>766</ele>
        <time>2019-07-29T11:26:30Z</time>
      </trkpt>
      <trkpt lat="45.66231" lon="4.50001">
        <ele>766</ele>
        <time>2019-07-29T11:26:51Z</time>
      </trkpt>
      <trkpt lat="45.66218" lon="4.49986">
        <ele>766</ele>
        <time>2019-07-29T11:26:55Z</time>
      </trkpt>
      <trkpt lat="45.66183" lon="4.4992">
        <ele>765</ele>
        <time>2019-07-29T11:27:08Z</time>
      </trkpt>
      <trkpt lat="45.66142" lon="4.49899">
        <ele>763</ele>
        <time>2019-07-29T11:27:19Z</time>
      </trkpt>
      <trkpt lat="45.66126" lon="4.49899">
        <ele>763</ele>
        <time>2019-07-29T11:27:22Z</time>
      </trkpt>
      <trkpt lat="45.66123" lon="4.49892">
        <ele>763</ele>
        <time>2019-07-29T11:27:24Z</time>
      </trkpt>
      <trkpt lat="45.66134" lon="4.49863">
        <ele>761</ele>
        <time>2019-07-29T11:27:29Z</time>
      </trkpt>
      <trkpt lat="45.66153" lon="4.4983">
        <ele>760</ele>
        <time>2019-07-29T11:27:36Z</time>
      </trkpt>
      <trkpt lat="45.66149" lon="4.49719">
        <ele>754</ele>
        <time>2019-07-29T11:27:54Z</time>
      </trkpt>
      <trkpt lat="45.66141" lon="4.4965">
        <ele>748</ele>
        <time>2019-07-29T11:28:06Z</time>
      </trkpt>
      <trkpt lat="45.66131" lon="4.49617">
        <ele>743</ele>
        <time>2019-07-29T11:28:11Z</time>
      </trkpt>
      <trkpt lat="45.66118" lon="4.49594">
        <ele>740</ele>
        <time>2019-07-29T11:28:16Z</time>
      </trkpt>
      <trkpt lat="45.66108" lon="4.4957">
        <ele>737</ele>
        <time>2019-07-29T11:28:21Z</time>
      </trkpt>
      <trkpt lat="45.66089" lon="4.4951">
        <ele>731</ele>
        <time>2019-07-29T11:28:32Z</time>
      </trkpt>
      <trkpt lat="45.66037" lon="4.49411">
        <ele>722</ele>
        <time>2019-07-29T11:28:52Z</time>
      </trkpt>
      <trkpt lat="45.66004" lon="4.49341">
        <ele>721</ele>
        <time>2019-07-29T11:29:06Z</time>
      </trkpt>
      <trkpt lat="45.65999" lon="4.49322">
        <ele>721</ele>
        <time>2019-07-29T11:29:09Z</time>
      </trkpt>
      <trkpt lat="45.65996" lon="4.49292">
        <ele>722</ele>
        <time>2019-07-29T11:29:14Z</time>
      </trkpt>
      <trkpt lat="45.65979" lon="4.49253">
        <ele>723</ele>
        <time>2019-07-29T11:29:21Z</time>
      </trkpt>
      <trkpt lat="45.65919" lon="4.49189">
        <ele>723</ele>
        <time>2019-07-29T11:29:39Z</time>
      </trkpt>
      <trkpt lat="45.65869" lon="4.49153">
        <ele>720</ele>
        <time>2019-07-29T11:29:52Z</time>
      </trkpt>
      <trkpt lat="45.65828" lon="4.49127">
        <ele>719</ele>
        <time>2019-07-29T11:30:02Z</time>
      </trkpt>
      <trkpt lat="45.65803" lon="4.49118">
        <ele>717</ele>
        <time>2019-07-29T11:30:08Z</time>
      </trkpt>
      <trkpt lat="45.65784" lon="4.49097">
        <ele>715</ele>
        <time>2019-07-29T11:30:14Z</time>
      </trkpt>
      <trkpt lat="45.65769" lon="4.49091">
        <ele>714</ele>
        <time>2019-07-29T11:30:18Z</time>
      </trkpt>
      <trkpt lat="45.65766" lon="4.49087">
        <ele>714</ele>
        <time>2019-07-29T11:30:19Z</time>
      </trkpt>
      <trkpt lat="45.65746" lon="4.49023">
        <ele>712</ele>
        <time>2019-07-29T11:30:30Z</time>
      </trkpt>
      <trkpt lat="45.65742" lon="4.48919">
        <ele>709</ele>
        <time>2019-07-29T11:30:47Z</time>
      </trkpt>
      <trkpt lat="45.65745" lon="4.48876">
        <ele>708</ele>
        <time>2019-07-29T11:30:54Z</time>
      </trkpt>
      <trkpt lat="45.65757" lon="4.48823">
        <ele>707</ele>
        <time>2019-07-29T11:31:03Z</time>
      </trkpt>
      <trkpt lat="45.65759" lon="4.48795">
        <ele>707</ele>
        <time>2019-07-29T11:31:08Z</time>
      </trkpt>
      <trkpt lat="45.65743" lon="4.48745">
        <ele>704</ele>
        <time>2019-07-29T11:31:17Z</time>
      </trkpt>
      <trkpt lat="45.65739" lon="4.48723">
        <ele>704</ele>
        <time>2019-07-29T11:31:20Z</time>
      </trkpt>
      <trkpt lat="45.65727" lon="4.48691">
        <ele>703</ele>
        <time>2019-07-29T11:31:26Z</time>
      </trkpt>
      <trkpt lat="45.65713" lon="4.48642">
        <ele>703</ele>
        <time>2019-07-29T11:31:35Z</time>
      </trkpt>
      <trkpt lat="45.65712" lon="4.48611">
        <ele>705</ele>
        <time>2019-07-29T11:31:40Z</time>
      </trkpt>
      <trkpt lat="45.65715" lon="4.48527">
        <ele>707</ele>
        <time>2019-07-29T11:31:54Z</time>
      </trkpt>
      <trkpt lat="45.65712" lon="4.485">
        <ele>707</ele>
        <time>2019-07-29T11:31:58Z</time>
      </trkpt>
      <trkpt lat="45.65714" lon="4.48478">
        <ele>704</ele>
        <time>2019-07-29T11:32:02Z</time>
      </trkpt>
      <trkpt lat="45.65739" lon="4.48397">
        <ele>696</ele>
        <time>2019-07-29T11:32:16Z</time>
      </trkpt>
      <trkpt lat="45.65755" lon="4.48384">
        <ele>695</ele>
        <time>2019-07-29T11:32:21Z</time>
      </trkpt>
      <trkpt lat="45.65799" lon="4.4836">
        <ele>694</ele>
        <time>2019-07-29T11:32:32Z</time>
      </trkpt>
      <trkpt lat="45.65813" lon="4.48342">
        <ele>693</ele>
        <time>2019-07-29T11:32:36Z</time>
      </trkpt>
      <trkpt lat="45.65848" lon="4.48285">
        <ele>690</ele>
        <time>2019-07-29T11:32:48Z</time>
      </trkpt>
      <trkpt lat="45.65828" lon="4.4831">
        <ele>692</ele>
        <time>2019-07-29T11:32:55Z</time>
      </trkpt>
      <trkpt lat="45.65784" lon="4.48354">
        <ele>692</ele>
        <time>2019-07-29T11:33:07Z</time>
      </trkpt>
      <trkpt lat="45.65735" lon="4.48384">
        <ele>693</ele>
        <time>2019-07-29T11:33:20Z</time>
      </trkpt>
      <trkpt lat="45.65726" lon="4.48425">
        <ele>698</ele>
        <time>2019-07-29T11:33:27Z</time>
      </trkpt>
      <trkpt lat="45.65724" lon="4.48416">
        <ele>697</ele>
        <time>2019-07-29T11:33:28Z</time>
      </trkpt>
      <trkpt lat="45.65735" lon="4.4839">
        <ele>694</ele>
        <time>2019-07-29T11:33:33Z</time>
      </trkpt>
      <trkpt lat="45.65779" lon="4.48371">
        <ele>694</ele>
        <time>2019-07-29T11:33:44Z</time>
      </trkpt>
      <trkpt lat="45.65819" lon="4.48329">
        <ele>693</ele>
        <time>2019-07-29T11:33:55Z</time>
      </trkpt>
      <trkpt lat="45.65864" lon="4.48257">
        <ele>687</ele>
        <time>2019-07-29T11:34:11Z</time>
      </trkpt>
      <trkpt lat="45.65876" lon="4.48222">
        <ele>684</ele>
        <time>2019-07-29T11:34:18Z</time>
      </trkpt>
      <trkpt lat="45.65886" lon="4.48208">
        <ele>682</ele>
        <time>2019-07-29T11:34:21Z</time>
      </trkpt>
      <trkpt lat="45.65901" lon="4.48199">
        <ele>680</ele>
        <time>2019-07-29T11:34:25Z</time>
      </trkpt>
      <trkpt lat="45.65922" lon="4.48193">
        <ele>677</ele>
        <time>2019-07-29T11:34:30Z</time>
      </trkpt>
      <trkpt lat="45.65927" lon="4.48189">
        <ele>676</ele>
        <time>2019-07-29T11:34:31Z</time>
      </trkpt>
      <trkpt lat="45.65928" lon="4.48185">
        <ele>675</ele>
        <time>2019-07-29T11:34:32Z</time>
      </trkpt>
      <trkpt lat="45.65871" lon="4.48103">
        <ele>673</ele>
        <time>2019-07-29T11:34:51Z</time>
      </trkpt>
      <trkpt lat="45.65792" lon="4.48007">
        <ele>668</ele>
        <time>2019-07-29T11:35:15Z</time>
      </trkpt>
      <trkpt lat="45.65777" lon="4.47996">
        <ele>668</ele>
        <time>2019-07-29T11:35:19Z</time>
      </trkpt>
      <trkpt lat="45.65736" lon="4.47976">
        <ele>667</ele>
        <time>2019-07-29T11:35:29Z</time>
      </trkpt>
      <trkpt lat="45.65688" lon="4.47934">
        <ele>667</ele>
        <time>2019-07-29T11:35:42Z</time>
      </trkpt>
      <trkpt lat="45.65606" lon="4.47839">
        <ele>665</ele>
        <time>2019-07-29T11:36:07Z</time>
      </trkpt>
      <trkpt lat="45.65556" lon="4.4781">
        <ele>667</ele>
        <time>2019-07-29T11:36:19Z</time>
      </trkpt>
      <trkpt lat="45.65507" lon="4.4781">
        <ele>669</ele>
        <time>2019-07-29T11:36:31Z</time>
      </trkpt>
      <trkpt lat="45.65537" lon="4.47872">
        <ele>667</ele>
        <time>2019-07-29T11:36:43Z</time>
      </trkpt>
      <trkpt lat="45.65553" lon="4.47946">
        <ele>667</ele>
        <time>2019-07-29T11:36:56Z</time>
      </trkpt>
      <trkpt lat="45.65556" lon="4.4797">
        <ele>667</ele>
        <time>2019-07-29T11:37:00Z</time>
      </trkpt>
      <trkpt lat="45.65554" lon="4.48004">
        <ele>666</ele>
        <time>2019-07-29T11:37:05Z</time>
      </trkpt>
      <trkpt lat="45.65534" lon="4.48062">
        <ele>664</ele>
        <time>2019-07-29T11:37:16Z</time>
      </trkpt>
      <trkpt lat="45.65469" lon="4.48138">
        <ele>663</ele>
        <time>2019-07-29T11:37:35Z</time>
      </trkpt>
      <trkpt lat="45.65448" lon="4.48149">
        <ele>664</ele>
        <time>2019-07-29T11:37:41Z</time>
      </trkpt>
      <trkpt lat="45.65417" lon="4.48151">
        <ele>665</ele>
        <time>2019-07-29T11:37:48Z</time>
      </trkpt>
      <trkpt lat="45.6535" lon="4.48135">
        <ele>671</ele>
        <time>2019-07-29T11:38:04Z</time>
      </trkpt>
      <trkpt lat="45.65313" lon="4.4812">
        <ele>672</ele>
        <time>2019-07-29T11:38:13Z</time>
      </trkpt>
      <trkpt lat="45.65249" lon="4.4811">
        <ele>675</ele>
        <time>2019-07-29T11:38:28Z</time>
      </trkpt>
      <trkpt lat="45.65224" lon="4.48111">
        <ele>673</ele>
        <time>2019-07-29T11:38:33Z</time>
      </trkpt>
      <trkpt lat="45.6522" lon="4.48115">
        <ele>673</ele>
        <time>2019-07-29T11:38:35Z</time>
      </trkpt>
      <trkpt lat="45.65222" lon="4.48147">
        <ele>677</ele>
        <time>2019-07-29T11:38:40Z</time>
      </trkpt>
      <trkpt lat="45.65218" lon="4.48187">
        <ele>681</ele>
        <time>2019-07-29T11:38:46Z</time>
      </trkpt>
      <trkpt lat="45.6522" lon="4.48219">
        <ele>684</ele>
        <time>2019-07-29T11:38:52Z</time>
      </trkpt>
      <trkpt lat="45.65224" lon="4.4824">
        <ele>686</ele>
        <time>2019-07-29T11:38:55Z</time>
      </trkpt>
      <trkpt lat="45.65247" lon="4.48337">
        <ele>694</ele>
        <time>2019-07-29T11:39:12Z</time>
      </trkpt>
      <trkpt lat="45.65253" lon="4.48352">
        <ele>695</ele>
        <time>2019-07-29T11:39:15Z</time>
      </trkpt>
      <trkpt lat="45.65256" lon="4.48372">
        <ele>696</ele>
        <time>2019-07-29T11:39:18Z</time>
      </trkpt>
      <trkpt lat="45.65256" lon="4.4847">
        <ele>702</ele>
        <time>2019-07-29T11:39:34Z</time>
      </trkpt>
      <trkpt lat="45.65259" lon="4.48507">
        <ele>703</ele>
        <time>2019-07-29T11:39:40Z</time>
      </trkpt>
      <trkpt lat="45.65265" lon="4.4854">
        <ele>704</ele>
        <time>2019-07-29T11:39:46Z</time>
      </trkpt>
      <trkpt lat="45.65275" lon="4.48579">
        <ele>704</ele>
        <time>2019-07-29T11:39:53Z</time>
      </trkpt>
      <trkpt lat="45.65304" lon="4.48639">
        <ele>706</ele>
        <time>2019-07-29T11:40:04Z</time>
      </trkpt>
      <trkpt lat="45.65313" lon="4.48699">
        <ele>708</ele>
        <time>2019-07-29T11:40:15Z</time>
      </trkpt>
      <trkpt lat="45.65323" lon="4.48732">
        <ele>708</ele>
        <time>2019-07-29T11:40:20Z</time>
      </trkpt>
      <trkpt lat="45.65341" lon="4.48772">
        <ele>708</ele>
        <time>2019-07-29T11:40:28Z</time>
      </trkpt>
      <trkpt lat="45.65373" lon="4.48885">
        <ele>707</ele>
        <time>2019-07-29T11:40:48Z</time>
      </trkpt>
      <trkpt lat="45.65396" lon="4.48945">
        <ele>709</ele>
        <time>2019-07-29T11:40:59Z</time>
      </trkpt>
      <trkpt lat="45.65418" lon="4.48988">
        <ele>711</ele>
        <time>2019-07-29T11:41:08Z</time>
      </trkpt>
      <trkpt lat="45.65459" lon="4.49083">
        <ele>713</ele>
        <time>2019-07-29T11:41:26Z</time>
      </trkpt>
      <trkpt lat="45.65478" lon="4.49158">
        <ele>713</ele>
        <time>2019-07-29T11:41:39Z</time>
      </trkpt>
      <trkpt lat="45.6548" lon="4.49179">
        <ele>713</ele>
        <time>2019-07-29T11:41:43Z</time>
      </trkpt>
      <trkpt lat="45.65477" lon="4.49257">
        <ele>714</ele>
        <time>2019-07-29T11:41:55Z</time>
      </trkpt>
      <trkpt lat="45.65474" lon="4.49276">
        <ele>715</ele>
        <time>2019-07-29T11:41:59Z</time>
      </trkpt>
      <trkpt lat="45.65485" lon="4.49308">
        <ele>716</ele>
        <time>2019-07-29T11:42:04Z</time>
      </trkpt>
      <trkpt lat="45.65505" lon="4.49343">
        <ele>719</ele>
        <time>2019-07-29T11:42:12Z</time>
      </trkpt>
      <trkpt lat="45.6553" lon="4.49368">
        <ele>720</ele>
        <time>2019-07-29T11:42:19Z</time>
      </trkpt>
      <trkpt lat="45.65574" lon="4.49401">
        <ele>720</ele>
        <time>2019-07-29T11:42:30Z</time>
      </trkpt>
      <trkpt lat="45.65582" lon="4.49413">
        <ele>721</ele>
        <time>2019-07-29T11:42:33Z</time>
      </trkpt>
      <trkpt lat="45.65579" lon="4.49443">
        <ele>724</ele>
        <time>2019-07-29T11:42:38Z</time>
      </trkpt>
      <trkpt lat="45.65568" lon="4.49483">
        <ele>728</ele>
        <time>2019-07-29T11:42:45Z</time>
      </trkpt>
      <trkpt lat="45.65546" lon="4.49535">
        <ele>735</ele>
        <time>2019-07-29T11:42:55Z</time>
      </trkpt>
      <trkpt lat="45.65539" lon="4.49559">
        <ele>738</ele>
        <time>2019-07-29T11:42:59Z</time>
      </trkpt>
      <trkpt lat="45.65532" lon="4.49604">
        <ele>744</ele>
        <time>2019-07-29T11:43:07Z</time>
      </trkpt>
      <trkpt lat="45.65525" lon="4.49607">
        <ele>745</ele>
        <time>2019-07-29T11:43:09Z</time>
      </trkpt>
      <trkpt lat="45.65517" lon="4.49605">
        <ele>745</ele>
        <time>2019-07-29T11:43:10Z</time>
      </trkpt>
      <trkpt lat="45.65517" lon="4.49608">
        <ele>745</ele>
        <time>2019-07-29T11:43:11Z</time>
      </trkpt>
      <trkpt lat="45.65522" lon="4.49604">
        <ele>745</ele>
        <time>2019-07-29T11:43:12Z</time>
      </trkpt>
      <trkpt lat="45.65526" lon="4.4961">
        <ele>745</ele>
        <time>2019-07-29T11:43:14Z</time>
      </trkpt>
      <trkpt lat="45.65521" lon="4.49622">
        <ele>747</ele>
        <time>2019-07-29T11:43:16Z</time>
      </trkpt>
      <trkpt lat="45.65515" lon="4.49657">
        <ele>751</ele>
        <time>2019-07-29T11:43:22Z</time>
      </trkpt>
      <trkpt lat="45.65507" lon="4.49682">
        <ele>755</ele>
        <time>2019-07-29T11:43:26Z</time>
      </trkpt>
      <trkpt lat="45.65496" lon="4.49737">
        <ele>761</ele>
        <time>2019-07-29T11:43:36Z</time>
      </trkpt>
      <trkpt lat="45.655" lon="4.49796">
        <ele>767</ele>
        <time>2019-07-29T11:43:45Z</time>
      </trkpt>
      <trkpt lat="45.65482" lon="4.49854">
        <ele>771</ele>
        <time>2019-07-29T11:43:56Z</time>
      </trkpt>
      <trkpt lat="45.65468" lon="4.49887">
        <ele>772</ele>
        <time>2019-07-29T11:44:02Z</time>
      </trkpt>
      <trkpt lat="45.65463" lon="4.49914">
        <ele>773</ele>
        <time>2019-07-29T11:44:07Z</time>
      </trkpt>
      <trkpt lat="45.65466" lon="4.49919">
        <ele>773</ele>
        <time>2019-07-29T11:44:08Z</time>
      </trkpt>
      <trkpt lat="45.65463" lon="4.49916">
        <ele>773</ele>
        <time>2019-07-29T11:44:08Z</time>
      </trkpt>
      <trkpt lat="45.65465" lon="4.49984">
        <ele>770</ele>
        <time>2019-07-29T11:44:20Z</time>
      </trkpt>
      <trkpt lat="45.65463" lon="4.49985">
        <ele>770</ele>
        <time>2019-07-29T11:44:20Z</time>
      </trkpt>
      <trkpt lat="45.65403" lon="4.49955">
        <ele>771</ele>
        <time>2019-07-29T11:44:35Z</time>
      </trkpt>
      <trkpt lat="45.65368" lon="4.49944">
        <ele>768</ele>
        <time>2019-07-29T11:44:43Z</time>
      </trkpt>
      <trkpt lat="45.65345" lon="4.4994">
        <ele>767</ele>
        <time>2019-07-29T11:44:49Z</time>
      </trkpt>
      <trkpt lat="45.65327" lon="4.49944">
        <ele>767</ele>
        <time>2019-07-29T11:44:53Z</time>
      </trkpt>
      <trkpt lat="45.65318" lon="4.49953">
        <ele>768</ele>
        <time>2019-07-29T11:44:55Z</time>
      </trkpt>
      <trkpt lat="45.65297" lon="4.50003">
        <ele>769</ele>
        <time>2019-07-29T11:45:05Z</time>
      </trkpt>
      <trkpt lat="45.65231" lon="4.50114">
        <ele>763</ele>
        <time>2019-07-29T11:45:29Z</time>
      </trkpt>
      <trkpt lat="45.65188" lon="4.50159">
        <ele>761</ele>
        <time>2019-07-29T11:45:41Z</time>
      </trkpt>
      <trkpt lat="45.65095" lon="4.50203">
        <ele>758</ele>
        <time>2019-07-29T11:46:04Z</time>
      </trkpt>
      <trkpt lat="45.65048" lon="4.50239">
        <ele>754</ele>
        <time>2019-07-29T11:46:17Z</time>
      </trkpt>
      <trkpt lat="45.65026" lon="4.50273">
        <ele>751</ele>
        <time>2019-07-29T11:46:24Z</time>
      </trkpt>
      <trkpt lat="45.64977" lon="4.50366">
        <ele>747</ele>
        <time>2019-07-29T11:46:43Z</time>
      </trkpt>
      <trkpt lat="45.64961" lon="4.50385">
        <ele>747</ele>
        <time>2019-07-29T11:46:48Z</time>
      </trkpt>
      <trkpt lat="45.64882" lon="4.5053">
        <ele>742</ele>
        <time>2019-07-29T11:47:18Z</time>
      </trkpt>
      <trkpt lat="45.64874" lon="4.50548">
        <ele>740</ele>
        <time>2019-07-29T11:47:21Z</time>
      </trkpt>
      <trkpt lat="45.64855" lon="4.5061">
        <ele>734</ele>
        <time>2019-07-29T11:47:33Z</time>
      </trkpt>
      <trkpt lat="45.64849" lon="4.50681">
        <ele>728</ele>
        <time>2019-07-29T11:47:44Z</time>
      </trkpt>
      <trkpt lat="45.64838" lon="4.50713">
        <ele>726</ele>
        <time>2019-07-29T11:47:50Z</time>
      </trkpt>
      <trkpt lat="45.64821" lon="4.5075">
        <ele>721</ele>
        <time>2019-07-29T11:47:57Z</time>
      </trkpt>
      <trkpt lat="45.64809" lon="4.5077">
        <ele>716</ele>
        <time>2019-07-29T11:48:02Z</time>
      </trkpt>
      <trkpt lat="45.6479" lon="4.50824">
        <ele>708</ele>
        <time>2019-07-29T11:48:11Z</time>
      </trkpt>
      <trkpt lat="45.64775" lon="4.50853">
        <ele>703</ele>
        <time>2019-07-29T11:48:17Z</time>
      </trkpt>
      <trkpt lat="45.64756" lon="4.50878">
        <ele>698</ele>
        <time>2019-07-29T11:48:23Z</time>
      </trkpt>
      <trkpt lat="45.64749" lon="4.50883">
        <ele>697</ele>
        <time>2019-07-29T11:48:25Z</time>
      </trkpt>
      <trkpt lat="45.64735" lon="4.50888">
        <ele>695</ele>
        <time>2019-07-29T11:48:29Z</time>
      </trkpt>
      <trkpt lat="45.64734" lon="4.50895">
        <ele>694</ele>
        <time>2019-07-29T11:48:30Z</time>
      </trkpt>
      <trkpt lat="45.6474" lon="4.50919">
        <ele>694</ele>
        <time>2019-07-29T11:48:34Z</time>
      </trkpt>
      <trkpt lat="45.64747" lon="4.5093">
        <ele>693</ele>
        <time>2019-07-29T11:48:36Z</time>
      </trkpt>
      <trkpt lat="45.64766" lon="4.50951">
        <ele>691</ele>
        <time>2019-07-29T11:48:42Z</time>
      </trkpt>
      <trkpt lat="45.64781" lon="4.50959">
        <ele>690</ele>
        <time>2019-07-29T11:48:46Z</time>
      </trkpt>
      <trkpt lat="45.64795" lon="4.5096">
        <ele>690</ele>
        <time>2019-07-29T11:48:49Z</time>
      </trkpt>
      <trkpt lat="45.64808" lon="4.50956">
        <ele>691</ele>
        <time>2019-07-29T11:48:52Z</time>
      </trkpt>
      <trkpt lat="45.64823" lon="4.50956">
        <ele>691</ele>
        <time>2019-07-29T11:48:56Z</time>
      </trkpt>
      <trkpt lat="45.64837" lon="4.50963">
        <ele>689</ele>
        <time>2019-07-29T11:48:59Z</time>
      </trkpt>
      <trkpt lat="45.64891" lon="4.50973">
        <ele>683</ele>
        <time>2019-07-29T11:49:12Z</time>
      </trkpt>
      <trkpt lat="45.64911" lon="4.5098">
        <ele>679</ele>
        <time>2019-07-29T11:49:17Z</time>
      </trkpt>
      <trkpt lat="45.64936" lon="4.50999">
        <ele>676</ele>
        <time>2019-07-29T11:49:23Z</time>
      </trkpt>
      <trkpt lat="45.64985" lon="4.51054">
        <ele>671</ele>
        <time>2019-07-29T11:49:38Z</time>
      </trkpt>
      <trkpt lat="45.65004" lon="4.51072">
        <ele>669</ele>
        <time>2019-07-29T11:49:43Z</time>
      </trkpt>
      <trkpt lat="45.65032" lon="4.51091">
        <ele>665</ele>
        <time>2019-07-29T11:49:50Z</time>
      </trkpt>
      <trkpt lat="45.65055" lon="4.51098">
        <ele>664</ele>
        <time>2019-07-29T11:49:56Z</time>
      </trkpt>
      <trkpt lat="45.65087" lon="4.511">
        <ele>663</ele>
        <time>2019-07-29T11:50:03Z</time>
      </trkpt>
      <trkpt lat="45.65128" lon="4.51089">
        <ele>663</ele>
        <time>2019-07-29T11:50:13Z</time>
      </trkpt>
      <trkpt lat="45.65146" lon="4.51081">
        <ele>662</ele>
        <time>2019-07-29T11:50:17Z</time>
      </trkpt>
      <trkpt lat="45.65213" lon="4.51024">
        <ele>662</ele>
        <time>2019-07-29T11:50:36Z</time>
      </trkpt>
      <trkpt lat="45.65227" lon="4.51008">
        <ele>662</ele>
        <time>2019-07-29T11:50:40Z</time>
      </trkpt>
      <trkpt lat="45.65238" lon="4.51005">
        <ele>662</ele>
        <time>2019-07-29T11:50:42Z</time>
      </trkpt>
      <trkpt lat="45.65268" lon="4.51043">
        <ele>661</ele>
        <time>2019-07-29T11:50:52Z</time>
      </trkpt>
      <trkpt lat="45.65262" lon="4.51059">
        <ele>660</ele>
        <time>2019-07-29T11:50:55Z</time>
      </trkpt>
      <trkpt lat="45.65225" lon="4.51115">
        <ele>663</ele>
        <time>2019-07-29T11:51:07Z</time>
      </trkpt>
      <trkpt lat="45.65185" lon="4.51173">
        <ele>664</ele>
        <time>2019-07-29T11:51:21Z</time>
      </trkpt>
      <trkpt lat="45.65151" lon="4.51214">
        <ele>665</ele>
        <time>2019-07-29T11:51:31Z</time>
      </trkpt>
      <trkpt lat="45.65042" lon="4.51302">
        <ele>663</ele>
        <time>2019-07-29T11:52:00Z</time>
      </trkpt>
      <trkpt lat="45.65022" lon="4.51322">
        <ele>662</ele>
        <time>2019-07-29T11:52:06Z</time>
      </trkpt>
      <trkpt lat="45.64978" lon="4.51412">
        <ele>660</ele>
        <time>2019-07-29T11:52:24Z</time>
      </trkpt>
      <trkpt lat="45.64946" lon="4.5143">
        <ele>658</ele>
        <time>2019-07-29T11:52:32Z</time>
      </trkpt>
      <trkpt lat="45.64874" lon="4.51451">
        <ele>656</ele>
        <time>2019-07-29T11:52:49Z</time>
      </trkpt>
      <trkpt lat="45.64838" lon="4.51497">
        <ele>661</ele>
        <time>2019-07-29T11:53:00Z</time>
      </trkpt>
      <trkpt lat="45.6482" lon="4.51591">
        <ele>668</ele>
        <time>2019-07-29T11:53:16Z</time>
      </trkpt>
      <trkpt lat="45.64813" lon="4.51617">
        <ele>672</ele>
        <time>2019-07-29T11:53:21Z</time>
      </trkpt>
      <trkpt lat="45.64789" lon="4.51688">
        <ele>680</ele>
        <time>2019-07-29T11:53:34Z</time>
      </trkpt>
      <trkpt lat="45.64773" lon="4.51727">
        <ele>684</ele>
        <time>2019-07-29T11:53:41Z</time>
      </trkpt>
      <trkpt lat="45.64751" lon="4.5183">
        <ele>692</ele>
        <time>2019-07-29T11:53:59Z</time>
      </trkpt>
      <trkpt lat="45.64748" lon="4.51883">
        <ele>695</ele>
        <time>2019-07-29T11:54:07Z</time>
      </trkpt>
      <trkpt lat="45.64761" lon="4.5201">
        <ele>701</ele>
        <time>2019-07-29T11:54:28Z</time>
      </trkpt>
      <trkpt lat="45.64764" lon="4.52013">
        <ele>701</ele>
        <time>2019-07-29T11:54:29Z</time>
      </trkpt>
      <trkpt lat="45.64795" lon="4.52097">
        <ele>704</ele>
        <time>2019-07-29T11:54:45Z</time>
      </trkpt>
      <trkpt lat="45.6483" lon="4.52178">
        <ele>704</ele>
        <time>2019-07-29T11:55:00Z</time>
      </trkpt>
      <trkpt lat="45.64845" lon="4.52225">
        <ele>700</ele>
        <time>2019-07-29T11:55:09Z</time>
      </trkpt>
      <trkpt lat="45.64896" lon="4.52411">
        <ele>691</ele>
        <time>2019-07-29T11:55:41Z</time>
      </trkpt>
      <trkpt lat="45.64915" lon="4.52468">
        <ele>695</ele>
        <time>2019-07-29T11:55:51Z</time>
      </trkpt>
      <trkpt lat="45.64942" lon="4.52522">
        <ele>698</ele>
        <time>2019-07-29T11:56:02Z</time>
      </trkpt>
      <trkpt lat="45.64999" lon="4.52691">
        <ele>695</ele>
        <time>2019-07-29T11:56:33Z</time>
      </trkpt>
      <trkpt lat="45.65049" lon="4.52729">
        <ele>694</ele>
        <time>2019-07-29T11:56:46Z</time>
      </trkpt>
      <trkpt lat="45.65088" lon="4.52755">
        <ele>692</ele>
        <time>2019-07-29T11:56:56Z</time>
      </trkpt>
      <trkpt lat="45.6512" lon="4.52781">
        <ele>690</ele>
        <time>2019-07-29T11:57:05Z</time>
      </trkpt>
      <trkpt lat="45.65145" lon="4.52797">
        <ele>688</ele>
        <time>2019-07-29T11:57:11Z</time>
      </trkpt>
      <trkpt lat="45.65175" lon="4.52804">
        <ele>688</ele>
        <time>2019-07-29T11:57:18Z</time>
      </trkpt>
      <trkpt lat="45.65261" lon="4.5281">
        <ele>693</ele>
        <time>2019-07-29T11:57:38Z</time>
      </trkpt>
      <trkpt lat="45.65289" lon="4.52834">
        <ele>691</ele>
        <time>2019-07-29T11:57:46Z</time>
      </trkpt>
      <trkpt lat="45.65331" lon="4.52885">
        <ele>690</ele>
        <time>2019-07-29T11:57:59Z</time>
      </trkpt>
      <trkpt lat="45.65359" lon="4.52927">
        <ele>685</ele>
        <time>2019-07-29T11:58:08Z</time>
      </trkpt>
      <trkpt lat="45.65377" lon="4.52958">
        <ele>683</ele>
        <time>2019-07-29T11:58:15Z</time>
      </trkpt>
      <trkpt lat="45.65414" lon="4.53013">
        <ele>679</ele>
        <time>2019-07-29T11:58:27Z</time>
      </trkpt>
      <trkpt lat="45.6542" lon="4.53024">
        <ele>678</ele>
        <time>2019-07-29T11:58:30Z</time>
      </trkpt>
      <trkpt lat="45.65423" lon="4.53043">
        <ele>677</ele>
        <time>2019-07-29T11:58:33Z</time>
      </trkpt>
      <trkpt lat="45.65427" lon="4.53045">
        <ele>677</ele>
        <time>2019-07-29T11:58:34Z</time>
      </trkpt>
      <trkpt lat="45.65441" lon="4.53031">
        <ele>676</ele>
        <time>2019-07-29T11:58:38Z</time>
      </trkpt>
      <trkpt lat="45.65453" lon="4.53032">
        <ele>675</ele>
        <time>2019-07-29T11:58:41Z</time>
      </trkpt>
      <trkpt lat="45.65516" lon="4.53102">
        <ele>672</ele>
        <time>2019-07-29T11:58:59Z</time>
      </trkpt>
      <trkpt lat="45.65522" lon="4.53112">
        <ele>672</ele>
        <time>2019-07-29T11:59:01Z</time>
      </trkpt>
      <trkpt lat="45.65541" lon="4.5316">
        <ele>673</ele>
        <time>2019-07-29T11:59:10Z</time>
      </trkpt>
      <trkpt lat="45.6558" lon="4.5319">
        <ele>677</ele>
        <time>2019-07-29T11:59:21Z</time>
      </trkpt>
      <trkpt lat="45.65585" lon="4.53197">
        <ele>678</ele>
        <time>2019-07-29T11:59:22Z</time>
      </trkpt>
      <trkpt lat="45.65594" lon="4.53219">
        <ele>679</ele>
        <time>2019-07-29T11:59:27Z</time>
      </trkpt>
      <trkpt lat="45.65606" lon="4.53262">
        <ele>680</ele>
        <time>2019-07-29T11:59:34Z</time>
      </trkpt>
      <trkpt lat="45.6562" lon="4.53339">
        <ele>682</ele>
        <time>2019-07-29T11:59:47Z</time>
      </trkpt>
      <trkpt lat="45.65626" lon="4.53359">
        <ele>683</ele>
        <time>2019-07-29T11:59:51Z</time>
      </trkpt>
      <trkpt lat="45.65638" lon="4.5338">
        <ele>685</ele>
        <time>2019-07-29T11:59:55Z</time>
      </trkpt>
      <trkpt lat="45.65726" lon="4.53484">
        <ele>688</ele>
        <time>2019-07-29T12:00:22Z</time>
      </trkpt>
      <trkpt lat="45.65814" lon="4.53567">
        <ele>680</ele>
        <time>2019-07-29T12:00:46Z</time>
      </trkpt>
      <trkpt lat="45.65827" lon="4.53583">
        <ele>678</ele>
        <time>2019-07-29T12:00:50Z</time>
      </trkpt>
      <trkpt lat="45.65833" lon="4.536">
        <ele>677</ele>
        <time>2019-07-29T12:00:53Z</time>
      </trkpt>
      <trkpt lat="45.65835" lon="4.53616">
        <ele>675</ele>
        <time>2019-07-29T12:00:56Z</time>
      </trkpt>
      <trkpt lat="45.65835" lon="4.53674">
        <ele>671</ele>
        <time>2019-07-29T12:01:06Z</time>
      </trkpt>
      <trkpt lat="45.65824" lon="4.53745">
        <ele>669</ele>
        <time>2019-07-29T12:01:17Z</time>
      </trkpt>
      <trkpt lat="45.65827" lon="4.53812">
        <ele>667</ele>
        <time>2019-07-29T12:01:28Z</time>
      </trkpt>
      <trkpt lat="45.65824" lon="4.53869">
        <ele>665</ele>
        <time>2019-07-29T12:01:38Z</time>
      </trkpt>
      <trkpt lat="45.65816" lon="4.53946">
        <ele>663</ele>
        <time>2019-07-29T12:01:50Z</time>
      </trkpt>
      <trkpt lat="45.65818" lon="4.53972">
        <ele>661</ele>
        <time>2019-07-29T12:01:55Z</time>
      </trkpt>
      <trkpt lat="45.65827" lon="4.54001">
        <ele>660</ele>
        <time>2019-07-29T12:02:00Z</time>
      </trkpt>
      <trkpt lat="45.65827" lon="4.54021">
        <ele>659</ele>
        <time>2019-07-29T12:02:03Z</time>
      </trkpt>
      <trkpt lat="45.65848" lon="4.54151">
        <ele>646</ele>
        <time>2019-07-29T12:02:25Z</time>
      </trkpt>
      <trkpt lat="45.65858" lon="4.54264">
        <ele>637</ele>
        <time>2019-07-29T12:02:44Z</time>
      </trkpt>
      <trkpt lat="45.65852" lon="4.54314">
        <ele>633</ele>
        <time>2019-07-29T12:02:52Z</time>
      </trkpt>
      <trkpt lat="45.65825" lon="4.54391">
        <ele>626</ele>
        <time>2019-07-29T12:03:06Z</time>
      </trkpt>
      <trkpt lat="45.6582" lon="4.54461">
        <ele>625</ele>
        <time>2019-07-29T12:03:17Z</time>
      </trkpt>
      <trkpt lat="45.65811" lon="4.54519">
        <ele>625</ele>
        <time>2019-07-29T12:03:27Z</time>
      </trkpt>
      <trkpt lat="45.65812" lon="4.54582">
        <ele>626</ele>
        <time>2019-07-29T12:03:37Z</time>
      </trkpt>
      <trkpt lat="45.65822" lon="4.54623">
        <ele>628</ele>
        <time>2019-07-29T12:03:44Z</time>
      </trkpt>
      <trkpt lat="45.65847" lon="4.54688">
        <ele>632</ele>
        <time>2019-07-29T12:03:57Z</time>
      </trkpt>
      <trkpt lat="45.65849" lon="4.547">
        <ele>633</ele>
        <time>2019-07-29T12:03:59Z</time>
      </trkpt>
      <trkpt lat="45.65848" lon="4.54754">
        <ele>639</ele>
        <time>2019-07-29T12:04:07Z</time>
      </trkpt>
      <trkpt lat="45.65851" lon="4.54781">
        <ele>642</ele>
        <time>2019-07-29T12:04:12Z</time>
      </trkpt>
      <trkpt lat="45.65857" lon="4.54799">
        <ele>643</ele>
        <time>2019-07-29T12:04:15Z</time>
      </trkpt>
      <trkpt lat="45.65863" lon="4.54808">
        <ele>643</ele>
        <time>2019-07-29T12:04:17Z</time>
      </trkpt>
      <trkpt lat="45.65877" lon="4.54866">
        <ele>649</ele>
        <time>2019-07-29T12:04:27Z</time>
      </trkpt>
      <trkpt lat="45.65882" lon="4.54877">
        <ele>650</ele>
        <time>2019-07-29T12:04:29Z</time>
      </trkpt>
      <trkpt lat="45.65881" lon="4.54881">
        <ele>650</ele>
        <time>2019-07-29T12:04:30Z</time>
      </trkpt>
      <trkpt lat="45.65877" lon="4.54881">
        <ele>651</ele>
        <time>2019-07-29T12:04:31Z</time>
      </trkpt>
      <trkpt lat="45.65867" lon="4.54848">
        <ele>648</ele>
        <time>2019-07-29T12:04:37Z</time>
      </trkpt>
      <trkpt lat="45.65851" lon="4.54839">
        <ele>648</ele>
        <time>2019-07-29T12:04:41Z</time>
      </trkpt>
      <trkpt lat="45.65836" lon="4.54887">
        <ele>655</ele>
        <time>2019-07-29T12:04:49Z</time>
      </trkpt>
      <trkpt lat="45.65831" lon="4.54896">
        <ele>656</ele>
        <time>2019-07-29T12:04:51Z</time>
      </trkpt>
      <trkpt lat="45.65811" lon="4.54987">
        <ele>665</ele>
        <time>2019-07-29T12:05:07Z</time>
      </trkpt>
      <trkpt lat="45.65777" lon="4.55065">
        <ele>671</ele>
        <time>2019-07-29T12:05:22Z</time>
      </trkpt>
      <trkpt lat="45.65814" lon="4.55119">
        <ele>676</ele>
        <time>2019-07-29T12:05:34Z</time>
      </trkpt>
      <trkpt lat="45.65837" lon="4.55133">
        <ele>678</ele>
        <time>2019-07-29T12:05:40Z</time>
      </trkpt>
      <trkpt lat="45.65886" lon="4.55148">
        <ele>677</ele>
        <time>2019-07-29T12:05:52Z</time>
      </trkpt>
      <trkpt lat="45.65886" lon="4.5516">
        <ele>678</ele>
        <time>2019-07-29T12:05:54Z</time>
      </trkpt>
      <trkpt lat="45.65874" lon="4.55203">
        <ele>681</ele>
        <time>2019-07-29T12:06:01Z</time>
      </trkpt>
      <trkpt lat="45.65867" lon="4.55263">
        <ele>685</ele>
        <time>2019-07-29T12:06:11Z</time>
      </trkpt>
      <trkpt lat="45.65868" lon="4.55295">
        <ele>687</ele>
        <time>2019-07-29T12:06:16Z</time>
      </trkpt>
      <trkpt lat="45.65874" lon="4.5534">
        <ele>690</ele>
        <time>2019-07-29T12:06:24Z</time>
      </trkpt>
      <trkpt lat="45.65878" lon="4.55396">
        <ele>690</ele>
        <time>2019-07-29T12:06:33Z</time>
      </trkpt>
      <trkpt lat="45.65871" lon="4.55531">
        <ele>693</ele>
        <time>2019-07-29T12:06:55Z</time>
      </trkpt>
      <trkpt lat="45.65873" lon="4.5558">
        <ele>695</ele>
        <time>2019-07-29T12:07:03Z</time>
      </trkpt>
      <trkpt lat="45.659" lon="4.55713">
        <ele>705</ele>
        <time>2019-07-29T12:07:26Z</time>
      </trkpt>
      <trkpt lat="45.65899" lon="4.55716">
        <ele>706</ele>
        <time>2019-07-29T12:07:26Z</time>
      </trkpt>
      <trkpt lat="45.65895" lon="4.55718">
        <ele>705</ele>
        <time>2019-07-29T12:07:27Z</time>
      </trkpt>
      <trkpt lat="45.65881" lon="4.55712">
        <ele>704</ele>
        <time>2019-07-29T12:07:31Z</time>
      </trkpt>
      <trkpt lat="45.65837" lon="4.55664">
        <ele>699</ele>
        <time>2019-07-29T12:07:44Z</time>
      </trkpt>
      <trkpt lat="45.65791" lon="4.55606">
        <ele>693</ele>
        <time>2019-07-29T12:07:58Z</time>
      </trkpt>
      <trkpt lat="45.65787" lon="4.55591">
        <ele>692</ele>
        <time>2019-07-29T12:08:01Z</time>
      </trkpt>
      <trkpt lat="45.65784" lon="4.55551">
        <ele>690</ele>
        <time>2019-07-29T12:08:07Z</time>
      </trkpt>
      <trkpt lat="45.65775" lon="4.55569">
        <ele>690</ele>
        <time>2019-07-29T12:08:11Z</time>
      </trkpt>
      <trkpt lat="45.65773" lon="4.556">
        <ele>692</ele>
        <time>2019-07-29T12:08:16Z</time>
      </trkpt>
      <trkpt lat="45.65769" lon="4.55599">
        <ele>691</ele>
        <time>2019-07-29T12:08:17Z</time>
      </trkpt>
    </trkseg>
  </trk>
  <trk>
    <name><![CDATA[9436202-SAINT MARTIN EN HAUT]]></name>
    <trkseg>
      <trkpt lat="45.65905" lon="4.56398">
        <ele>728</ele>
        <time>2019-07-29T10:04:14Z</time>
      </trkpt>
      <trkpt lat="45.6598" lon="4.56396">
        <ele>732</ele>
        <time>2019-07-29T10:04:32Z</time>
      </trkpt>
      <trkpt lat="45.66092" lon="4.56342">
        <ele>734</ele>
        <time>2019-07-29T10:04:59Z</time>
      </trkpt>
      <trkpt lat="45.66173" lon="4.5631">
        <ele>733</ele>
        <time>2019-07-29T10:05:19Z</time>
      </trkpt>
      <trkpt lat="45.66294" lon="4.56293">
        <ele>736</ele>
        <time>2019-07-29T10:05:47Z</time>
      </trkpt>
      <trkpt lat="45.66298" lon="4.56299">
        <ele>736</ele>
        <time>2019-07-29T10:05:48Z</time>
      </trkpt>
      <trkpt lat="45.66296" lon="4.56315">
        <ele>736</ele>
        <time>2019-07-29T10:05:51Z</time>
      </trkpt>
      <trkpt lat="45.66298" lon="4.56338">
        <ele>736</ele>
        <time>2019-07-29T10:05:55Z</time>
      </trkpt>
      <trkpt lat="45.66324" lon="4.56407">
        <ele>735</ele>
        <time>2019-07-29T10:06:08Z</time>
      </trkpt>
      <trkpt lat="45.66359" lon="4.5653">
        <ele>732</ele>
        <time>2019-07-29T10:06:29Z</time>
      </trkpt>
      <trkpt lat="45.66383" lon="4.5658">
        <ele>732</ele>
        <time>2019-07-29T10:06:39Z</time>
      </trkpt>
      <trkpt lat="45.66412" lon="4.56678">
        <ele>732</ele>
        <time>2019-07-29T10:06:57Z</time>
      </trkpt>
      <trkpt lat="45.6641" lon="4.56742">
        <ele>733</ele>
        <time>2019-07-29T10:07:07Z</time>
      </trkpt>
      <trkpt lat="45.66432" lon="4.56913">
        <ele>737</ele>
        <time>2019-07-29T10:07:35Z</time>
      </trkpt>
      <trkpt lat="45.66454" lon="4.56967">
        <ele>736</ele>
        <time>2019-07-29T10:07:46Z</time>
      </trkpt>
      <trkpt lat="45.66481" lon="4.56995">
        <ele>736</ele>
        <time>2019-07-29T10:07:53Z</time>
      </trkpt>
      <trkpt lat="45.66499" lon="4.57065">
        <ele>735</ele>
        <time>2019-07-29T10:08:06Z</time>
      </trkpt>
      <trkpt lat="45.66502" lon="4.57164">
        <ele>731</ele>
        <time>2019-07-29T10:08:22Z</time>
      </trkpt>
      <trkpt lat="45.66524" lon="4.57237">
        <ele>728</ele>
        <time>2019-07-29T10:08:35Z</time>
      </trkpt>
      <trkpt lat="45.66565" lon="4.57301">
        <ele>720</ele>
        <time>2019-07-29T10:08:49Z</time>
      </trkpt>
      <trkpt lat="45.66595" lon="4.57317">
        <ele>716</ele>
        <time>2019-07-29T10:08:56Z</time>
      </trkpt>
      <trkpt lat="45.66623" lon="4.57298">
        <ele>719</ele>
        <time>2019-07-29T10:09:04Z</time>
      </trkpt>
      <trkpt lat="45.66658" lon="4.57297">
        <ele>719</ele>
        <time>2019-07-29T10:09:12Z</time>
      </trkpt>
      <trkpt lat="45.66774" lon="4.57313">
        <ele>718</ele>
        <time>2019-07-29T10:09:39Z</time>
      </trkpt>
      <trkpt lat="45.66802" lon="4.57293">
        <ele>724</ele>
        <time>2019-07-29T10:09:46Z</time>
      </trkpt>
      <trkpt lat="45.66843" lon="4.57284">
        <ele>725</ele>
        <time>2019-07-29T10:09:56Z</time>
      </trkpt>
      <trkpt lat="45.6688" lon="4.57305">
        <ele>719</ele>
        <time>2019-07-29T10:10:05Z</time>
      </trkpt>
      <trkpt lat="45.669" lon="4.57309">
        <ele>717</ele>
        <time>2019-07-29T10:10:10Z</time>
      </trkpt>
      <trkpt lat="45.66914" lon="4.57289">
        <ele>719</ele>
        <time>2019-07-29T10:10:15Z</time>
      </trkpt>
      <trkpt lat="45.66915" lon="4.57248">
        <ele>724</ele>
        <time>2019-07-29T10:10:21Z</time>
      </trkpt>
      <trkpt lat="45.66941" lon="4.5718">
        <ele>720</ele>
        <time>2019-07-29T10:10:34Z</time>
      </trkpt>
      <trkpt lat="45.66955" lon="4.57161">
        <ele>717</ele>
        <time>2019-07-29T10:10:39Z</time>
      </trkpt>
      <trkpt lat="45.66976" lon="4.57168">
        <ele>711</ele>
        <time>2019-07-29T10:10:44Z</time>
      </trkpt>
      <trkpt lat="45.66969" lon="4.57234">
        <ele>711</ele>
        <time>2019-07-29T10:10:54Z</time>
      </trkpt>
      <trkpt lat="45.67004" lon="4.57284">
        <ele>699</ele>
        <time>2019-07-29T10:11:06Z</time>
      </trkpt>
      <trkpt lat="45.67013" lon="4.57354">
        <ele>691</ele>
        <time>2019-07-29T10:11:18Z</time>
      </trkpt>
      <trkpt lat="45.67006" lon="4.5738">
        <ele>688</ele>
        <time>2019-07-29T10:11:22Z</time>
      </trkpt>
      <trkpt lat="45.66953" lon="4.57449">
        <ele>683</ele>
        <time>2019-07-29T10:11:39Z</time>
      </trkpt>
      <trkpt lat="45.66919" lon="4.5747">
        <ele>680</ele>
        <time>2019-07-29T10:11:48Z</time>
      </trkpt>
      <trkpt lat="45.66917" lon="4.57479">
        <ele>678</ele>
        <time>2019-07-29T10:11:49Z</time>
      </trkpt>
      <trkpt lat="45.67016" lon="4.57536">
        <ele>660</ele>
        <time>2019-07-29T10:12:14Z</time>
      </trkpt>
      <trkpt lat="45.67053" lon="4.57525">
        <ele>664</ele>
        <time>2019-07-29T10:12:23Z</time>
      </trkpt>
      <trkpt lat="45.67069" lon="4.57571">
        <ele>661</ele>
        <time>2019-07-29T10:12:31Z</time>
      </trkpt>
      <trkpt lat="45.67041" lon="4.57641">
        <ele>655</ele>
        <time>2019-07-29T10:12:44Z</time>
      </trkpt>
      <trkpt lat="45.67004" lon="4.57673">
        <ele>644</ele>
        <time>2019-07-29T10:12:55Z</time>
      </trkpt>
      <trkpt lat="45.66995" lon="4.57686">
        <ele>643</ele>
        <time>2019-07-29T10:12:57Z</time>
      </trkpt>
      <trkpt lat="45.66959" lon="4.57857">
        <ele>645</ele>
        <time>2019-07-29T10:13:27Z</time>
      </trkpt>
      <trkpt lat="45.66958" lon="4.57914">
        <ele>649</ele>
        <time>2019-07-29T10:13:36Z</time>
      </trkpt>
      <trkpt lat="45.6695" lon="4.57989">
        <ele>649</ele>
        <time>2019-07-29T10:13:48Z</time>
      </trkpt>
      <trkpt lat="45.66974" lon="4.58158">
        <ele>658</ele>
        <time>2019-07-29T10:14:16Z</time>
      </trkpt>
      <trkpt lat="45.66991" lon="4.58203">
        <ele>661</ele>
        <time>2019-07-29T10:14:25Z</time>
      </trkpt>
      <trkpt lat="45.67013" lon="4.58252">
        <ele>661</ele>
        <time>2019-07-29T10:14:34Z</time>
      </trkpt>
      <trkpt lat="45.67045" lon="4.58294">
        <ele>656</ele>
        <time>2019-07-29T10:14:44Z</time>
      </trkpt>
      <trkpt lat="45.67059" lon="4.583">
        <ele>655</ele>
        <time>2019-07-29T10:14:48Z</time>
      </trkpt>
      <trkpt lat="45.67113" lon="4.58264">
        <ele>667</ele>
        <time>2019-07-29T10:15:02Z</time>
      </trkpt>
      <trkpt lat="45.67127" lon="4.58273">
        <ele>667</ele>
        <time>2019-07-29T10:15:05Z</time>
      </trkpt>
      <trkpt lat="45.67143" lon="4.58341">
        <ele>658</ele>
        <time>2019-07-29T10:15:17Z</time>
      </trkpt>
      <trkpt lat="45.67164" lon="4.5839">
        <ele>649</ele>
        <time>2019-07-29T10:15:26Z</time>
      </trkpt>
      <trkpt lat="45.67196" lon="4.58438">
        <ele>647</ele>
        <time>2019-07-29T10:15:37Z</time>
      </trkpt>
      <trkpt lat="45.67198" lon="4.58513">
        <ele>637</ele>
        <time>2019-07-29T10:15:50Z</time>
      </trkpt>
      <trkpt lat="45.67207" lon="4.58542">
        <ele>635</ele>
        <time>2019-07-29T10:15:55Z</time>
      </trkpt>
      <trkpt lat="45.67233" lon="4.5857">
        <ele>638</ele>
        <time>2019-07-29T10:16:02Z</time>
      </trkpt>
      <trkpt lat="45.67275" lon="4.58587">
        <ele>642</ele>
        <time>2019-07-29T10:16:12Z</time>
      </trkpt>
      <trkpt lat="45.67339" lon="4.58574">
        <ele>651</ele>
        <time>2019-07-29T10:16:28Z</time>
      </trkpt>
      <trkpt lat="45.67407" lon="4.58569">
        <ele>654</ele>
        <time>2019-07-29T10:16:43Z</time>
      </trkpt>
      <trkpt lat="45.6749" lon="4.58631">
        <ele>641</ele>
        <time>2019-07-29T10:17:05Z</time>
      </trkpt>
      <trkpt lat="45.67533" lon="4.58613">
        <ele>640</ele>
        <time>2019-07-29T10:17:16Z</time>
      </trkpt>
      <trkpt lat="45.67564" lon="4.58555">
        <ele>647</ele>
        <time>2019-07-29T10:17:28Z</time>
      </trkpt>
      <trkpt lat="45.67617" lon="4.58426">
        <ele>663</ele>
        <time>2019-07-29T10:17:52Z</time>
      </trkpt>
      <trkpt lat="45.6763" lon="4.58366">
        <ele>667</ele>
        <time>2019-07-29T10:18:02Z</time>
      </trkpt>
      <trkpt lat="45.67631" lon="4.58324">
        <ele>672</ele>
        <time>2019-07-29T10:18:09Z</time>
      </trkpt>
      <trkpt lat="45.67635" lon="4.58286">
        <ele>677</ele>
        <time>2019-07-29T10:18:16Z</time>
      </trkpt>
      <trkpt lat="45.67646" lon="4.58279">
        <ele>676</ele>
        <time>2019-07-29T10:18:18Z</time>
      </trkpt>
      <trkpt lat="45.67672" lon="4.58299">
        <ele>669</ele>
        <time>2019-07-29T10:18:25Z</time>
      </trkpt>
      <trkpt lat="45.67714" lon="4.58316">
        <ele>667</ele>
        <time>2019-07-29T10:18:35Z</time>
      </trkpt>
      <trkpt lat="45.67756" lon="4.58305">
        <ele>670</ele>
        <time>2019-07-29T10:18:45Z</time>
      </trkpt>
      <trkpt lat="45.67786" lon="4.58236">
        <ele>683</ele>
        <time>2019-07-29T10:18:59Z</time>
      </trkpt>
      <trkpt lat="45.6782" lon="4.58205">
        <ele>685</ele>
        <time>2019-07-29T10:19:08Z</time>
      </trkpt>
      <trkpt lat="45.67854" lon="4.58165">
        <ele>692</ele>
        <time>2019-07-29T10:19:18Z</time>
      </trkpt>
      <trkpt lat="45.67927" lon="4.58152">
        <ele>694</ele>
        <time>2019-07-29T10:19:36Z</time>
      </trkpt>
      <trkpt lat="45.67975" lon="4.58132">
        <ele>703</ele>
        <time>2019-07-29T10:19:47Z</time>
      </trkpt>
      <trkpt lat="45.68006" lon="4.58151">
        <ele>704</ele>
        <time>2019-07-29T10:19:55Z</time>
      </trkpt>
      <trkpt lat="45.68029" lon="4.58197">
        <ele>703</ele>
        <time>2019-07-29T10:20:04Z</time>
      </trkpt>
      <trkpt lat="45.68042" lon="4.58192">
        <ele>707</ele>
        <time>2019-07-29T10:20:07Z</time>
      </trkpt>
      <trkpt lat="45.68052" lon="4.58168">
        <ele>712</ele>
        <time>2019-07-29T10:20:12Z</time>
      </trkpt>
      <trkpt lat="45.68045" lon="4.581">
        <ele>724</ele>
        <time>2019-07-29T10:20:23Z</time>
      </trkpt>
      <trkpt lat="45.68021" lon="4.58055">
        <ele>730</ele>
        <time>2019-07-29T10:20:32Z</time>
      </trkpt>
      <trkpt lat="45.68017" lon="4.58031">
        <ele>736</ele>
        <time>2019-07-29T10:20:36Z</time>
      </trkpt>
      <trkpt lat="45.68061" lon="4.58062">
        <ele>738</ele>
        <time>2019-07-29T10:20:48Z</time>
      </trkpt>
      <trkpt lat="45.68109" lon="4.58118">
        <ele>737</ele>
        <time>2019-07-29T10:21:02Z</time>
      </trkpt>
      <trkpt lat="45.68215" lon="4.58288">
        <ele>736</ele>
        <time>2019-07-29T10:21:40Z</time>
      </trkpt>
      <trkpt lat="45.6823" lon="4.5833">
        <ele>735</ele>
        <time>2019-07-29T10:21:47Z</time>
      </trkpt>
      <trkpt lat="45.68351" lon="4.58362">
        <ele>754</ele>
        <time>2019-07-29T10:22:16Z</time>
      </trkpt>
      <trkpt lat="45.6838" lon="4.58339">
        <ele>755</ele>
        <time>2019-07-29T10:22:24Z</time>
      </trkpt>
      <trkpt lat="45.68397" lon="4.58311">
        <ele>758</ele>
        <time>2019-07-29T10:22:30Z</time>
      </trkpt>
      <trkpt lat="45.68434" lon="4.58297">
        <ele>762</ele>
        <time>2019-07-29T10:22:39Z</time>
      </trkpt>
      <trkpt lat="45.68497" lon="4.5823">
        <ele>770</ele>
        <time>2019-07-29T10:22:57Z</time>
      </trkpt>
      <trkpt lat="45.68515" lon="4.58159">
        <ele>770</ele>
        <time>2019-07-29T10:23:09Z</time>
      </trkpt>
      <trkpt lat="45.68545" lon="4.58212">
        <ele>766</ele>
        <time>2019-07-29T10:23:21Z</time>
      </trkpt>
      <trkpt lat="45.68564" lon="4.58212">
        <ele>764</ele>
        <time>2019-07-29T10:23:25Z</time>
      </trkpt>
      <trkpt lat="45.68605" lon="4.5819">
        <ele>759</ele>
        <time>2019-07-29T10:23:35Z</time>
      </trkpt>
      <trkpt lat="45.6863" lon="4.58185">
        <ele>754</ele>
        <time>2019-07-29T10:23:41Z</time>
      </trkpt>
      <trkpt lat="45.68665" lon="4.58144">
        <ele>747</ele>
        <time>2019-07-29T10:23:52Z</time>
      </trkpt>
      <trkpt lat="45.68674" lon="4.58144">
        <ele>745</ele>
        <time>2019-07-29T10:23:54Z</time>
      </trkpt>
      <trkpt lat="45.68679" lon="4.58156">
        <ele>744</ele>
        <time>2019-07-29T10:23:56Z</time>
      </trkpt>
      <trkpt lat="45.68682" lon="4.58236">
        <ele>745</ele>
        <time>2019-07-29T10:24:09Z</time>
      </trkpt>
      <trkpt lat="45.68659" lon="4.58321">
        <ele>742</ele>
        <time>2019-07-29T10:24:24Z</time>
      </trkpt>
      <trkpt lat="45.68656" lon="4.58354">
        <ele>737</ele>
        <time>2019-07-29T10:24:29Z</time>
      </trkpt>
      <trkpt lat="45.68725" lon="4.58228">
        <ele>733</ele>
        <time>2019-07-29T10:24:56Z</time>
      </trkpt>
      <trkpt lat="45.68745" lon="4.58165">
        <ele>726</ele>
        <time>2019-07-29T10:25:07Z</time>
      </trkpt>
      <trkpt lat="45.68748" lon="4.5814">
        <ele>725</ele>
        <time>2019-07-29T10:25:11Z</time>
      </trkpt>
      <trkpt lat="45.68739" lon="4.58086">
        <ele>726</ele>
        <time>2019-07-29T10:25:20Z</time>
      </trkpt>
      <trkpt lat="45.68763" lon="4.58037">
        <ele>726</ele>
        <time>2019-07-29T10:25:30Z</time>
      </trkpt>
      <trkpt lat="45.68775" lon="4.57996">
        <ele>729</ele>
        <time>2019-07-29T10:25:37Z</time>
      </trkpt>
      <trkpt lat="45.68792" lon="4.57987">
        <ele>726</ele>
        <time>2019-07-29T10:25:41Z</time>
      </trkpt>
      <trkpt lat="45.68831" lon="4.57912">
        <ele>722</ele>
        <time>2019-07-29T10:25:57Z</time>
      </trkpt>
      <trkpt lat="45.68844" lon="4.57907">
        <ele>723</ele>
        <time>2019-07-29T10:26:00Z</time>
      </trkpt>
      <trkpt lat="45.68861" lon="4.57923">
        <ele>724</ele>
        <time>2019-07-29T10:26:04Z</time>
      </trkpt>
      <trkpt lat="45.68876" lon="4.57984">
        <ele>726</ele>
        <time>2019-07-29T10:26:15Z</time>
      </trkpt>
      <trkpt lat="45.68885" lon="4.5806">
        <ele>726</ele>
        <time>2019-07-29T10:26:28Z</time>
      </trkpt>
      <trkpt lat="45.68896" lon="4.58103">
        <ele>727</ele>
        <time>2019-07-29T10:26:35Z</time>
      </trkpt>
      <trkpt lat="45.68921" lon="4.58123">
        <ele>731</ele>
        <time>2019-07-29T10:26:42Z</time>
      </trkpt>
      <trkpt lat="45.68948" lon="4.58091">
        <ele>737</ele>
        <time>2019-07-29T10:26:50Z</time>
      </trkpt>
      <trkpt lat="45.6897" lon="4.58039">
        <ele>742</ele>
        <time>2019-07-29T10:27:00Z</time>
      </trkpt>
      <trkpt lat="45.68996" lon="4.57999">
        <ele>749</ele>
        <time>2019-07-29T10:27:09Z</time>
      </trkpt>
      <trkpt lat="45.69083" lon="4.57983">
        <ele>764</ele>
        <time>2019-07-29T10:27:29Z</time>
      </trkpt>
      <trkpt lat="45.69106" lon="4.57964">
        <ele>765</ele>
        <time>2019-07-29T10:27:35Z</time>
      </trkpt>
      <trkpt lat="45.69114" lon="4.57898">
        <ele>768</ele>
        <time>2019-07-29T10:27:46Z</time>
      </trkpt>
      <trkpt lat="45.69123" lon="4.57874">
        <ele>769</ele>
        <time>2019-07-29T10:27:51Z</time>
      </trkpt>
      <trkpt lat="45.69148" lon="4.57857">
        <ele>772</ele>
        <time>2019-07-29T10:27:57Z</time>
      </trkpt>
      <trkpt lat="45.69194" lon="4.57856">
        <ele>775</ele>
        <time>2019-07-29T10:28:08Z</time>
      </trkpt>
      <trkpt lat="45.69227" lon="4.57848">
        <ele>777</ele>
        <time>2019-07-29T10:28:16Z</time>
      </trkpt>
      <trkpt lat="45.69335" lon="4.57728">
        <ele>787</ele>
        <time>2019-07-29T10:28:48Z</time>
      </trkpt>
      <trkpt lat="45.69389" lon="4.57676">
        <ele>785</ele>
        <time>2019-07-29T10:29:03Z</time>
      </trkpt>
      <trkpt lat="45.69435" lon="4.57602">
        <ele>785</ele>
        <time>2019-07-29T10:29:19Z</time>
      </trkpt>
      <trkpt lat="45.69463" lon="4.57593">
        <ele>783</ele>
        <time>2019-07-29T10:29:26Z</time>
      </trkpt>
      <trkpt lat="45.69491" lon="4.57567">
        <ele>783</ele>
        <time>2019-07-29T10:29:34Z</time>
      </trkpt>
      <trkpt lat="45.69498" lon="4.5754">
        <ele>785</ele>
        <time>2019-07-29T10:29:38Z</time>
      </trkpt>
      <trkpt lat="45.69486" lon="4.57536">
        <ele>785</ele>
        <time>2019-07-29T10:29:41Z</time>
      </trkpt>
      <trkpt lat="45.69492" lon="4.57456">
        <ele>794</ele>
        <time>2019-07-29T10:29:54Z</time>
      </trkpt>
      <trkpt lat="45.69507" lon="4.57378">
        <ele>805</ele>
        <time>2019-07-29T10:30:07Z</time>
      </trkpt>
      <trkpt lat="45.69516" lon="4.57367">
        <ele>807</ele>
        <time>2019-07-29T10:30:10Z</time>
      </trkpt>
      <trkpt lat="45.69528" lon="4.57324">
        <ele>814</ele>
        <time>2019-07-29T10:30:18Z</time>
      </trkpt>
      <trkpt lat="45.69559" lon="4.57303">
        <ele>822</ele>
        <time>2019-07-29T10:30:26Z</time>
      </trkpt>
      <trkpt lat="45.69577" lon="4.57273">
        <ele>830</ele>
        <time>2019-07-29T10:30:32Z</time>
      </trkpt>
      <trkpt lat="45.6961" lon="4.57163">
        <ele>849</ele>
        <time>2019-07-29T10:30:52Z</time>
      </trkpt>
      <trkpt lat="45.69632" lon="4.57152">
        <ele>852</ele>
        <time>2019-07-29T10:30:57Z</time>
      </trkpt>
      <trkpt lat="45.69667" lon="4.57096">
        <ele>863</ele>
        <time>2019-07-29T10:31:09Z</time>
      </trkpt>
      <trkpt lat="45.69663" lon="4.57061">
        <ele>868</ele>
        <time>2019-07-29T10:31:15Z</time>
      </trkpt>
      <trkpt lat="45.69662" lon="4.57021">
        <ele>873</ele>
        <time>2019-07-29T10:31:22Z</time>
      </trkpt>
      <trkpt lat="45.69669" lon="4.5696">
        <ele>882</ele>
        <time>2019-07-29T10:31:32Z</time>
      </trkpt>
      <trkpt lat="45.69729" lon="4.56929">
        <ele>888</ele>
        <time>2019-07-29T10:31:47Z</time>
      </trkpt>
      <trkpt lat="45.69779" lon="4.56842">
        <ele>896</ele>
        <time>2019-07-29T10:32:05Z</time>
      </trkpt>
      <trkpt lat="45.69841" lon="4.56774">
        <ele>895</ele>
        <time>2019-07-29T10:32:23Z</time>
      </trkpt>
      <trkpt lat="45.69882" lon="4.56745">
        <ele>891</ele>
        <time>2019-07-29T10:32:34Z</time>
      </trkpt>
      <trkpt lat="45.69919" lon="4.56669">
        <ele>892</ele>
        <time>2019-07-29T10:32:49Z</time>
      </trkpt>
      <trkpt lat="45.69962" lon="4.566">
        <ele>886</ele>
        <time>2019-07-29T10:33:04Z</time>
      </trkpt>
      <trkpt lat="45.69998" lon="4.56555">
        <ele>884</ele>
        <time>2019-07-29T10:33:15Z</time>
      </trkpt>
      <trkpt lat="45.70034" lon="4.56477">
        <ele>883</ele>
        <time>2019-07-29T10:33:31Z</time>
      </trkpt>
      <trkpt lat="45.70066" lon="4.56451">
        <ele>881</ele>
        <time>2019-07-29T10:33:39Z</time>
      </trkpt>
      <trkpt lat="45.70102" lon="4.56447">
        <ele>880</ele>
        <time>2019-07-29T10:33:48Z</time>
      </trkpt>
      <trkpt lat="45.70146" lon="4.56454">
        <ele>879</ele>
        <time>2019-07-29T10:33:58Z</time>
      </trkpt>
      <trkpt lat="45.70158" lon="4.56407">
        <ele>877</ele>
        <time>2019-07-29T10:34:06Z</time>
      </trkpt>
      <trkpt lat="45.70205" lon="4.56365">
        <ele>871</ele>
        <time>2019-07-29T10:34:19Z</time>
      </trkpt>
      <trkpt lat="45.7026" lon="4.56358">
        <ele>870</ele>
        <time>2019-07-29T10:34:32Z</time>
      </trkpt>
      <trkpt lat="45.70333" lon="4.56327">
        <ele>869</ele>
        <time>2019-07-29T10:34:50Z</time>
      </trkpt>
      <trkpt lat="45.70396" lon="4.56269">
        <ele>866</ele>
        <time>2019-07-29T10:35:07Z</time>
      </trkpt>
      <trkpt lat="45.70422" lon="4.56257">
        <ele>868</ele>
        <time>2019-07-29T10:35:14Z</time>
      </trkpt>
      <trkpt lat="45.70464" lon="4.56223">
        <ele>868</ele>
        <time>2019-07-29T10:35:25Z</time>
      </trkpt>
      <trkpt lat="45.7048" lon="4.56198">
        <ele>870</ele>
        <time>2019-07-29T10:35:30Z</time>
      </trkpt>
      <trkpt lat="45.70512" lon="4.56133">
        <ele>874</ele>
        <time>2019-07-29T10:35:43Z</time>
      </trkpt>
      <trkpt lat="45.70563" lon="4.56067">
        <ele>882</ele>
        <time>2019-07-29T10:35:59Z</time>
      </trkpt>
      <trkpt lat="45.70629" lon="4.55968">
        <ele>887</ele>
        <time>2019-07-29T10:36:22Z</time>
      </trkpt>
      <trkpt lat="45.70699" lon="4.55838">
        <ele>896</ele>
        <time>2019-07-29T10:36:49Z</time>
      </trkpt>
      <trkpt lat="45.70779" lon="4.55681">
        <ele>892</ele>
        <time>2019-07-29T10:37:20Z</time>
      </trkpt>
      <trkpt lat="45.70813" lon="4.55639">
        <ele>888</ele>
        <time>2019-07-29T10:37:31Z</time>
      </trkpt>
      <trkpt lat="45.70894" lon="4.55603">
        <ele>885</ele>
        <time>2019-07-29T10:37:51Z</time>
      </trkpt>
      <trkpt lat="45.7093" lon="4.55571">
        <ele>881</ele>
        <time>2019-07-29T10:38:00Z</time>
      </trkpt>
      <trkpt lat="45.70975" lon="4.55546">
        <ele>876</ele>
        <time>2019-07-29T10:38:12Z</time>
      </trkpt>
      <trkpt lat="45.70991" lon="4.55529">
        <ele>873</ele>
        <time>2019-07-29T10:38:16Z</time>
      </trkpt>
      <trkpt lat="45.71075" lon="4.55455">
        <ele>862</ele>
        <time>2019-07-29T10:38:39Z</time>
      </trkpt>
      <trkpt lat="45.7108" lon="4.5543">
        <ele>861</ele>
        <time>2019-07-29T10:38:44Z</time>
      </trkpt>
      <trkpt lat="45.71077" lon="4.55382">
        <ele>856</ele>
        <time>2019-07-29T10:38:52Z</time>
      </trkpt>
      <trkpt lat="45.71067" lon="4.55337">
        <ele>852</ele>
        <time>2019-07-29T10:38:59Z</time>
      </trkpt>
      <trkpt lat="45.71035" lon="4.55247">
        <ele>844</ele>
        <time>2019-07-29T10:39:16Z</time>
      </trkpt>
      <trkpt lat="45.70985" lon="4.55151">
        <ele>841</ele>
        <time>2019-07-29T10:39:35Z</time>
      </trkpt>
      <trkpt lat="45.70941" lon="4.55082">
        <ele>842</ele>
        <time>2019-07-29T10:39:50Z</time>
      </trkpt>
      <trkpt lat="45.70916" lon="4.5506">
        <ele>843</ele>
        <time>2019-07-29T10:39:57Z</time>
      </trkpt>
      <trkpt lat="45.70869" lon="4.55001">
        <ele>839</ele>
        <time>2019-07-29T10:40:12Z</time>
      </trkpt>
      <trkpt lat="45.70848" lon="4.54962">
        <ele>839</ele>
        <time>2019-07-29T10:40:20Z</time>
      </trkpt>
      <trkpt lat="45.70791" lon="4.54903">
        <ele>831</ele>
        <time>2019-07-29T10:40:36Z</time>
      </trkpt>
      <trkpt lat="45.70745" lon="4.54802">
        <ele>820</ele>
        <time>2019-07-29T10:40:56Z</time>
      </trkpt>
      <trkpt lat="45.70701" lon="4.54747">
        <ele>814</ele>
        <time>2019-07-29T10:41:10Z</time>
      </trkpt>
      <trkpt lat="45.70679" lon="4.54741">
        <ele>812</ele>
        <time>2019-07-29T10:41:15Z</time>
      </trkpt>
      <trkpt lat="45.70636" lon="4.5471">
        <ele>808</ele>
        <time>2019-07-29T10:41:26Z</time>
      </trkpt>
      <trkpt lat="45.70563" lon="4.54628">
        <ele>801</ele>
        <time>2019-07-29T10:41:48Z</time>
      </trkpt>
      <trkpt lat="45.70527" lon="4.5455">
        <ele>796</ele>
        <time>2019-07-29T10:42:03Z</time>
      </trkpt>
      <trkpt lat="45.70409" lon="4.54371">
        <ele>783</ele>
        <time>2019-07-29T10:42:43Z</time>
      </trkpt>
      <trkpt lat="45.70386" lon="4.54381">
        <ele>780</ele>
        <time>2019-07-29T10:42:49Z</time>
      </trkpt>
      <trkpt lat="45.70457" lon="4.54197">
        <ele>783</ele>
        <time>2019-07-29T10:43:23Z</time>
      </trkpt>
      <trkpt lat="45.70464" lon="4.54083">
        <ele>774</ele>
        <time>2019-07-29T10:43:42Z</time>
      </trkpt>
      <trkpt lat="45.70457" lon="4.5402">
        <ele>771</ele>
        <time>2019-07-29T10:43:52Z</time>
      </trkpt>
      <trkpt lat="45.70459" lon="4.53864">
        <ele>768</ele>
        <time>2019-07-29T10:44:18Z</time>
      </trkpt>
      <trkpt lat="45.70453" lon="4.53783">
        <ele>762</ele>
        <time>2019-07-29T10:44:31Z</time>
      </trkpt>
      <trkpt lat="45.70449" lon="4.53518">
        <ele>741</ele>
        <time>2019-07-29T10:45:14Z</time>
      </trkpt>
      <trkpt lat="45.70458" lon="4.53484">
        <ele>739</ele>
        <time>2019-07-29T10:45:20Z</time>
      </trkpt>
      <trkpt lat="45.7043" lon="4.53419">
        <ele>732</ele>
        <time>2019-07-29T10:45:32Z</time>
      </trkpt>
      <trkpt lat="45.70407" lon="4.53315">
        <ele>719</ele>
        <time>2019-07-29T10:45:50Z</time>
      </trkpt>
      <trkpt lat="45.70388" lon="4.53248">
        <ele>707</ele>
        <time>2019-07-29T10:46:02Z</time>
      </trkpt>
      <trkpt lat="45.70393" lon="4.53202">
        <ele>701</ele>
        <time>2019-07-29T10:46:10Z</time>
      </trkpt>
      <trkpt lat="45.70411" lon="4.53141">
        <ele>694</ele>
        <time>2019-07-29T10:46:20Z</time>
      </trkpt>
      <trkpt lat="45.70447" lon="4.53037">
        <ele>676</ele>
        <time>2019-07-29T10:46:39Z</time>
      </trkpt>
      <trkpt lat="45.70558" lon="4.5288">
        <ele>651</ele>
        <time>2019-07-29T10:47:16Z</time>
      </trkpt>
      <trkpt lat="45.70602" lon="4.52808">
        <ele>628</ele>
        <time>2019-07-29T10:47:31Z</time>
      </trkpt>
      <trkpt lat="45.70638" lon="4.52763">
        <ele>614</ele>
        <time>2019-07-29T10:47:43Z</time>
      </trkpt>
      <trkpt lat="45.70637" lon="4.52671">
        <ele>594</ele>
        <time>2019-07-29T10:47:58Z</time>
      </trkpt>
      <trkpt lat="45.70629" lon="4.5264">
        <ele>587</ele>
        <time>2019-07-29T10:48:03Z</time>
      </trkpt>
      <trkpt lat="45.70612" lon="4.52627">
        <ele>583</ele>
        <time>2019-07-29T10:48:07Z</time>
      </trkpt>
      <trkpt lat="45.706" lon="4.52683">
        <ele>594</ele>
        <time>2019-07-29T10:48:17Z</time>
      </trkpt>
      <trkpt lat="45.70567" lon="4.52724">
        <ele>602</ele>
        <time>2019-07-29T10:48:27Z</time>
      </trkpt>
      <trkpt lat="45.70495" lon="4.52772">
        <ele>610</ele>
        <time>2019-07-29T10:48:46Z</time>
      </trkpt>
      <trkpt lat="45.70462" lon="4.52785">
        <ele>608</ele>
        <time>2019-07-29T10:48:54Z</time>
      </trkpt>
      <trkpt lat="45.70412" lon="4.52831">
        <ele>611</ele>
        <time>2019-07-29T10:49:08Z</time>
      </trkpt>
      <trkpt lat="45.70373" lon="4.52878">
        <ele>614</ele>
        <time>2019-07-29T10:49:20Z</time>
      </trkpt>
      <trkpt lat="45.70348" lon="4.52942">
        <ele>622</ele>
        <time>2019-07-29T10:49:32Z</time>
      </trkpt>
      <trkpt lat="45.70318" lon="4.53008">
        <ele>634</ele>
        <time>2019-07-29T10:49:44Z</time>
      </trkpt>
      <trkpt lat="45.70312" lon="4.53007">
        <ele>636</ele>
        <time>2019-07-29T10:49:46Z</time>
      </trkpt>
      <trkpt lat="45.70292" lon="4.52859">
        <ele>612</ele>
        <time>2019-07-29T10:50:10Z</time>
      </trkpt>
      <trkpt lat="45.7029" lon="4.52795">
        <ele>596</ele>
        <time>2019-07-29T10:50:21Z</time>
      </trkpt>
      <trkpt lat="45.70296" lon="4.52762">
        <ele>586</ele>
        <time>2019-07-29T10:50:26Z</time>
      </trkpt>
      <trkpt lat="45.70289" lon="4.52737">
        <ele>581</ele>
        <time>2019-07-29T10:50:31Z</time>
      </trkpt>
      <trkpt lat="45.70265" lon="4.52717">
        <ele>582</ele>
        <time>2019-07-29T10:50:37Z</time>
      </trkpt>
      <trkpt lat="45.7021" lon="4.52707">
        <ele>588</ele>
        <time>2019-07-29T10:50:50Z</time>
      </trkpt>
      <trkpt lat="45.70184" lon="4.52724">
        <ele>591</ele>
        <time>2019-07-29T10:50:57Z</time>
      </trkpt>
      <trkpt lat="45.70147" lon="4.52735">
        <ele>596</ele>
        <time>2019-07-29T10:51:06Z</time>
      </trkpt>
      <trkpt lat="45.70127" lon="4.52751">
        <ele>599</ele>
        <time>2019-07-29T10:51:11Z</time>
      </trkpt>
      <trkpt lat="45.70114" lon="4.52777">
        <ele>604</ele>
        <time>2019-07-29T10:51:16Z</time>
      </trkpt>
      <trkpt lat="45.70115" lon="4.52743">
        <ele>602</ele>
        <time>2019-07-29T10:51:22Z</time>
      </trkpt>
      <trkpt lat="45.70132" lon="4.52675">
        <ele>605</ele>
        <time>2019-07-29T10:51:34Z</time>
      </trkpt>
      <trkpt lat="45.7014" lon="4.52632">
        <ele>613</ele>
        <time>2019-07-29T10:51:41Z</time>
      </trkpt>
      <trkpt lat="45.70161" lon="4.52597">
        <ele>618</ele>
        <time>2019-07-29T10:51:48Z</time>
      </trkpt>
      <trkpt lat="45.70242" lon="4.52488">
        <ele>629</ele>
        <time>2019-07-29T10:52:14Z</time>
      </trkpt>
      <trkpt lat="45.70252" lon="4.52447">
        <ele>632</ele>
        <time>2019-07-29T10:52:21Z</time>
      </trkpt>
      <trkpt lat="45.7025" lon="4.524">
        <ele>636</ele>
        <time>2019-07-29T10:52:29Z</time>
      </trkpt>
      <trkpt lat="45.70226" lon="4.52342">
        <ele>642</ele>
        <time>2019-07-29T10:52:40Z</time>
      </trkpt>
      <trkpt lat="45.70165" lon="4.52233">
        <ele>650</ele>
        <time>2019-07-29T10:53:03Z</time>
      </trkpt>
      <trkpt lat="45.70078" lon="4.52174">
        <ele>669</ele>
        <time>2019-07-29T10:53:25Z</time>
      </trkpt>
      <trkpt lat="45.70066" lon="4.52143">
        <ele>674</ele>
        <time>2019-07-29T10:53:31Z</time>
      </trkpt>
      <trkpt lat="45.70047" lon="4.52104">
        <ele>683</ele>
        <time>2019-07-29T10:53:39Z</time>
      </trkpt>
      <trkpt lat="45.7005" lon="4.52089">
        <ele>682</ele>
        <time>2019-07-29T10:53:41Z</time>
      </trkpt>
      <trkpt lat="45.70082" lon="4.5207">
        <ele>669</ele>
        <time>2019-07-29T10:53:50Z</time>
      </trkpt>
      <trkpt lat="45.70083" lon="4.51993">
        <ele>679</ele>
        <time>2019-07-29T10:54:02Z</time>
      </trkpt>
      <trkpt lat="45.70094" lon="4.5185">
        <ele>684</ele>
        <time>2019-07-29T10:54:26Z</time>
      </trkpt>
      <trkpt lat="45.70091" lon="4.5182">
        <ele>687</ele>
        <time>2019-07-29T10:54:31Z</time>
      </trkpt>
      <trkpt lat="45.70084" lon="4.51787">
        <ele>691</ele>
        <time>2019-07-29T10:54:36Z</time>
      </trkpt>
      <trkpt lat="45.70092" lon="4.51768">
        <ele>692</ele>
        <time>2019-07-29T10:54:40Z</time>
      </trkpt>
      <trkpt lat="45.70157" lon="4.51762">
        <ele>687</ele>
        <time>2019-07-29T10:54:55Z</time>
      </trkpt>
      <trkpt lat="45.70161" lon="4.51747">
        <ele>690</ele>
        <time>2019-07-29T10:54:58Z</time>
      </trkpt>
      <trkpt lat="45.70162" lon="4.51719">
        <ele>692</ele>
        <time>2019-07-29T10:55:02Z</time>
      </trkpt>
      <trkpt lat="45.70155" lon="4.51668">
        <ele>697</ele>
        <time>2019-07-29T10:55:11Z</time>
      </trkpt>
      <trkpt lat="45.70154" lon="4.51574">
        <ele>697</ele>
        <time>2019-07-29T10:55:26Z</time>
      </trkpt>
      <trkpt lat="45.70142" lon="4.51498">
        <ele>693</ele>
        <time>2019-07-29T10:55:39Z</time>
      </trkpt>
      <trkpt lat="45.70082" lon="4.51407">
        <ele>698</ele>
        <time>2019-07-29T10:55:59Z</time>
      </trkpt>
      <trkpt lat="45.70074" lon="4.51387">
        <ele>697</ele>
        <time>2019-07-29T10:56:03Z</time>
      </trkpt>
      <trkpt lat="45.70064" lon="4.51382">
        <ele>699</ele>
        <time>2019-07-29T10:56:05Z</time>
      </trkpt>
      <trkpt lat="45.70043" lon="4.5136">
        <ele>701</ele>
        <time>2019-07-29T10:56:11Z</time>
      </trkpt>
      <trkpt lat="45.70031" lon="4.5133">
        <ele>700</ele>
        <time>2019-07-29T10:56:17Z</time>
      </trkpt>
      <trkpt lat="45.70032" lon="4.51274">
        <ele>696</ele>
        <time>2019-07-29T10:56:26Z</time>
      </trkpt>
      <trkpt lat="45.70011" lon="4.51193">
        <ele>696</ele>
        <time>2019-07-29T10:56:40Z</time>
      </trkpt>
      <trkpt lat="45.70002" lon="4.51121">
        <ele>697</ele>
        <time>2019-07-29T10:56:52Z</time>
      </trkpt>
      <trkpt lat="45.69968" lon="4.51057">
        <ele>704</ele>
        <time>2019-07-29T10:57:05Z</time>
      </trkpt>
      <trkpt lat="45.69977" lon="4.51028">
        <ele>705</ele>
        <time>2019-07-29T10:57:10Z</time>
      </trkpt>
      <trkpt lat="45.70011" lon="4.51007">
        <ele>706</ele>
        <time>2019-07-29T10:57:19Z</time>
      </trkpt>
      <trkpt lat="45.70105" lon="4.51035">
        <ele>709</ele>
        <time>2019-07-29T10:57:42Z</time>
      </trkpt>
      <trkpt lat="45.70139" lon="4.51032">
        <ele>710</ele>
        <time>2019-07-29T10:57:50Z</time>
      </trkpt>
      <trkpt lat="45.70142" lon="4.51007">
        <ele>714</ele>
        <time>2019-07-29T10:57:54Z</time>
      </trkpt>
      <trkpt lat="45.7012" lon="4.50983">
        <ele>717</ele>
        <time>2019-07-29T10:58:00Z</time>
      </trkpt>
      <trkpt lat="45.70116" lon="4.50963">
        <ele>718</ele>
        <time>2019-07-29T10:58:03Z</time>
      </trkpt>
      <trkpt lat="45.70097" lon="4.50953">
        <ele>719</ele>
        <time>2019-07-29T10:58:08Z</time>
      </trkpt>
      <trkpt lat="45.70087" lon="4.50885">
        <ele>724</ele>
        <time>2019-07-29T10:58:20Z</time>
      </trkpt>
      <trkpt lat="45.70069" lon="4.5086">
        <ele>726</ele>
        <time>2019-07-29T10:58:25Z</time>
      </trkpt>
      <trkpt lat="45.70036" lon="4.50843">
        <ele>727</ele>
        <time>2019-07-29T10:58:34Z</time>
      </trkpt>
      <trkpt lat="45.69963" lon="4.50828">
        <ele>731</ele>
        <time>2019-07-29T10:58:51Z</time>
      </trkpt>
      <trkpt lat="45.6987" lon="4.50793">
        <ele>737</ele>
        <time>2019-07-29T10:59:13Z</time>
      </trkpt>
      <trkpt lat="45.69799" lon="4.5076">
        <ele>745</ele>
        <time>2019-07-29T10:59:31Z</time>
      </trkpt>
      <trkpt lat="45.69749" lon="4.50846">
        <ele>755</ele>
        <time>2019-07-29T10:59:49Z</time>
      </trkpt>
      <trkpt lat="45.69739" lon="4.50883">
        <ele>761</ele>
        <time>2019-07-29T10:59:55Z</time>
      </trkpt>
      <trkpt lat="45.69733" lon="4.51001">
        <ele>772</ele>
        <time>2019-07-29T11:00:15Z</time>
      </trkpt>
      <trkpt lat="45.69653" lon="4.51219">
        <ele>815</ele>
        <time>2019-07-29T11:00:55Z</time>
      </trkpt>
      <trkpt lat="45.6965" lon="4.51283">
        <ele>818</ele>
        <time>2019-07-29T11:01:05Z</time>
      </trkpt>
      <trkpt lat="45.69599" lon="4.51421">
        <ele>826</ele>
        <time>2019-07-29T11:01:31Z</time>
      </trkpt>
      <trkpt lat="45.69574" lon="4.51469">
        <ele>828</ele>
        <time>2019-07-29T11:01:41Z</time>
      </trkpt>
      <trkpt lat="45.69493" lon="4.51583">
        <ele>835</ele>
        <time>2019-07-29T11:02:07Z</time>
      </trkpt>
      <trkpt lat="45.69441" lon="4.51645">
        <ele>838</ele>
        <time>2019-07-29T11:02:23Z</time>
      </trkpt>
      <trkpt lat="45.69377" lon="4.51681">
        <ele>841</ele>
        <time>2019-07-29T11:02:39Z</time>
      </trkpt>
      <trkpt lat="45.69303" lon="4.5171">
        <ele>838</ele>
        <time>2019-07-29T11:02:57Z</time>
      </trkpt>
      <trkpt lat="45.69261" lon="4.51756">
        <ele>831</ele>
        <time>2019-07-29T11:03:09Z</time>
      </trkpt>
      <trkpt lat="45.69219" lon="4.5188">
        <ele>829</ele>
        <time>2019-07-29T11:03:32Z</time>
      </trkpt>
      <trkpt lat="45.69191" lon="4.51971">
        <ele>827</ele>
        <time>2019-07-29T11:03:48Z</time>
      </trkpt>
      <trkpt lat="45.6916" lon="4.52004">
        <ele>824</ele>
        <time>2019-07-29T11:03:57Z</time>
      </trkpt>
      <trkpt lat="45.69066" lon="4.52047">
        <ele>816</ele>
        <time>2019-07-29T11:04:20Z</time>
      </trkpt>
      <trkpt lat="45.69033" lon="4.52087">
        <ele>814</ele>
        <time>2019-07-29T11:04:30Z</time>
      </trkpt>
      <trkpt lat="45.68885" lon="4.52249">
        <ele>803</ele>
        <time>2019-07-29T11:05:14Z</time>
      </trkpt>
      <trkpt lat="45.68845" lon="4.52337">
        <ele>803</ele>
        <time>2019-07-29T11:05:31Z</time>
      </trkpt>
      <trkpt lat="45.68771" lon="4.52408">
        <ele>802</ele>
        <time>2019-07-29T11:05:52Z</time>
      </trkpt>
      <trkpt lat="45.68712" lon="4.52461">
        <ele>802</ele>
        <time>2019-07-29T11:06:08Z</time>
      </trkpt>
      <trkpt lat="45.68574" lon="4.52503">
        <ele>805</ele>
        <time>2019-07-29T11:06:41Z</time>
      </trkpt>
      <trkpt lat="45.6847" lon="4.52558">
        <ele>807</ele>
        <time>2019-07-29T11:07:07Z</time>
      </trkpt>
      <trkpt lat="45.68442" lon="4.52538">
        <ele>806</ele>
        <time>2019-07-29T11:07:14Z</time>
      </trkpt>
      <trkpt lat="45.68356" lon="4.52316">
        <ele>816</ele>
        <time>2019-07-29T11:07:55Z</time>
      </trkpt>
      <trkpt lat="45.68372" lon="4.52139">
        <ele>828</ele>
        <time>2019-07-29T11:08:25Z</time>
      </trkpt>
      <trkpt lat="45.68358" lon="4.52054">
        <ele>834</ele>
        <time>2019-07-29T11:08:39Z</time>
      </trkpt>
      <trkpt lat="45.68358" lon="4.51975">
        <ele>842</ele>
        <time>2019-07-29T11:08:52Z</time>
      </trkpt>
      <trkpt lat="45.68344" lon="4.51727">
        <ele>852</ele>
        <time>2019-07-29T11:09:32Z</time>
      </trkpt>
      <trkpt lat="45.68299" lon="4.51619">
        <ele>857</ele>
        <time>2019-07-29T11:09:53Z</time>
      </trkpt>
      <trkpt lat="45.68274" lon="4.5154">
        <ele>858</ele>
        <time>2019-07-29T11:10:07Z</time>
      </trkpt>
      <trkpt lat="45.68269" lon="4.51434">
        <ele>859</ele>
        <time>2019-07-29T11:10:24Z</time>
      </trkpt>
      <trkpt lat="45.68245" lon="4.51319">
        <ele>864</ele>
        <time>2019-07-29T11:10:44Z</time>
      </trkpt>
      <trkpt lat="45.68231" lon="4.51278">
        <ele>866</ele>
        <time>2019-07-29T11:10:51Z</time>
      </trkpt>
      <trkpt lat="45.68201" lon="4.51227">
        <ele>868</ele>
        <time>2019-07-29T11:11:02Z</time>
      </trkpt>
      <trkpt lat="45.68134" lon="4.51135">
        <ele>872</ele>
        <time>2019-07-29T11:11:24Z</time>
      </trkpt>
      <trkpt lat="45.68119" lon="4.51108">
        <ele>874</ele>
        <time>2019-07-29T11:11:29Z</time>
      </trkpt>
      <trkpt lat="45.68035" lon="4.51043">
        <ele>879</ele>
        <time>2019-07-29T11:11:52Z</time>
      </trkpt>
      <trkpt lat="45.68009" lon="4.50994">
        <ele>884</ele>
        <time>2019-07-29T11:12:02Z</time>
      </trkpt>
      <trkpt lat="45.67937" lon="4.50693">
        <ele>896</ele>
        <time>2019-07-29T11:12:54Z</time>
      </trkpt>
      <trkpt lat="45.67921" lon="4.50649">
        <ele>899</ele>
        <time>2019-07-29T11:13:02Z</time>
      </trkpt>
      <trkpt lat="45.6789" lon="4.50625">
        <ele>901</ele>
        <time>2019-07-29T11:13:10Z</time>
      </trkpt>
      <trkpt lat="45.67799" lon="4.50585">
        <ele>902</ele>
        <time>2019-07-29T11:13:32Z</time>
      </trkpt>
      <trkpt lat="45.67731" lon="4.5054">
        <ele>900</ele>
        <time>2019-07-29T11:13:50Z</time>
      </trkpt>
      <trkpt lat="45.67716" lon="4.50517">
        <ele>899</ele>
        <time>2019-07-29T11:13:55Z</time>
      </trkpt>
      <trkpt lat="45.67804" lon="4.50438">
        <ele>909</ele>
        <time>2019-07-29T11:14:19Z</time>
      </trkpt>
      <trkpt lat="45.6784" lon="4.5044">
        <ele>912</ele>
        <time>2019-07-29T11:14:28Z</time>
      </trkpt>
      <trkpt lat="45.6789" lon="4.50349">
        <ele>915</ele>
        <time>2019-07-29T11:14:46Z</time>
      </trkpt>
      <trkpt lat="45.67958" lon="4.50288">
        <ele>923</ele>
        <time>2019-07-29T11:15:05Z</time>
      </trkpt>
      <trkpt lat="45.6798" lon="4.50217">
        <ele>926</ele>
        <time>2019-07-29T11:15:18Z</time>
      </trkpt>
      <trkpt lat="45.68015" lon="4.50117">
        <ele>922</ele>
        <time>2019-07-29T11:15:36Z</time>
      </trkpt>
      <trkpt lat="45.68014" lon="4.50073">
        <ele>919</ele>
        <time>2019-07-29T11:15:43Z</time>
      </trkpt>
      <trkpt lat="45.68034" lon="4.50041">
        <ele>915</ele>
        <time>2019-07-29T11:15:50Z</time>
      </trkpt>
      <trkpt lat="45.68046" lon="4.49982">
        <ele>908</ele>
        <time>2019-07-29T11:16:00Z</time>
      </trkpt>
      <trkpt lat="45.68081" lon="4.49942">
        <ele>900</ele>
        <time>2019-07-29T11:16:11Z</time>
      </trkpt>
      <trkpt lat="45.6814" lon="4.49961">
        <ele>887</ele>
        <time>2019-07-29T11:16:25Z</time>
      </trkpt>
      <trkpt lat="45.68092" lon="4.49904">
        <ele>893</ele>
        <time>2019-07-29T11:16:39Z</time>
      </trkpt>
      <trkpt lat="45.68075" lon="4.49836">
        <ele>888</ele>
        <time>2019-07-29T11:16:51Z</time>
      </trkpt>
      <trkpt lat="45.68008" lon="4.49746">
        <ele>885</ele>
        <time>2019-07-29T11:17:13Z</time>
      </trkpt>
      <trkpt lat="45.6794" lon="4.49736">
        <ele>877</ele>
        <time>2019-07-29T11:17:29Z</time>
      </trkpt>
      <trkpt lat="45.67928" lon="4.49715">
        <ele>872</ele>
        <time>2019-07-29T11:17:33Z</time>
      </trkpt>
      <trkpt lat="45.67925" lon="4.49649">
        <ele>859</ele>
        <time>2019-07-29T11:17:44Z</time>
      </trkpt>
      <trkpt lat="45.67876" lon="4.49642">
        <ele>851</ele>
        <time>2019-07-29T11:17:55Z</time>
      </trkpt>
      <trkpt lat="45.67864" lon="4.49699">
        <ele>859</ele>
        <time>2019-07-29T11:18:05Z</time>
      </trkpt>
      <trkpt lat="45.67843" lon="4.49743">
        <ele>863</ele>
        <time>2019-07-29T11:18:14Z</time>
      </trkpt>
      <trkpt lat="45.67746" lon="4.49892">
        <ele>868</ele>
        <time>2019-07-29T11:18:47Z</time>
      </trkpt>
      <trkpt lat="45.67691" lon="4.49948">
        <ele>863</ele>
        <time>2019-07-29T11:19:03Z</time>
      </trkpt>
      <trkpt lat="45.67681" lon="4.50076">
        <ele>869</ele>
        <time>2019-07-29T11:19:24Z</time>
      </trkpt>
      <trkpt lat="45.67614" lon="4.50117">
        <ele>869</ele>
        <time>2019-07-29T11:19:41Z</time>
      </trkpt>
      <trkpt lat="45.67557" lon="4.50104">
        <ele>872</ele>
        <time>2019-07-29T11:19:54Z</time>
      </trkpt>
      <trkpt lat="45.67568" lon="4.50185">
        <ele>876</ele>
        <time>2019-07-29T11:20:08Z</time>
      </trkpt>
      <trkpt lat="45.67584" lon="4.50256">
        <ele>880</ele>
        <time>2019-07-29T11:20:20Z</time>
      </trkpt>
      <trkpt lat="45.67625" lon="4.50373">
        <ele>890</ele>
        <time>2019-07-29T11:20:41Z</time>
      </trkpt>
      <trkpt lat="45.67713" lon="4.50519">
        <ele>899</ele>
        <time>2019-07-29T11:21:13Z</time>
      </trkpt>
      <trkpt lat="45.67672" lon="4.50553">
        <ele>892</ele>
        <time>2019-07-29T11:21:24Z</time>
      </trkpt>
      <trkpt lat="45.67718" lon="4.50679">
        <ele>881</ele>
        <time>2019-07-29T11:21:47Z</time>
      </trkpt>
      <trkpt lat="45.67751" lon="4.50735">
        <ele>876</ele>
        <time>2019-07-29T11:21:59Z</time>
      </trkpt>
      <trkpt lat="45.67761" lon="4.50773">
        <ele>872</ele>
        <time>2019-07-29T11:22:06Z</time>
      </trkpt>
      <trkpt lat="45.67717" lon="4.50742">
        <ele>869</ele>
        <time>2019-07-29T11:22:17Z</time>
      </trkpt>
      <trkpt lat="45.67662" lon="4.5071">
        <ele>867</ele>
        <time>2019-07-29T11:22:31Z</time>
      </trkpt>
      <trkpt lat="45.67635" lon="4.50704">
        <ele>867</ele>
        <time>2019-07-29T11:22:37Z</time>
      </trkpt>
      <trkpt lat="45.67597" lon="4.50702">
        <ele>865</ele>
        <time>2019-07-29T11:22:46Z</time>
      </trkpt>
      <trkpt lat="45.67559" lon="4.5074">
        <ele>860</ele>
        <time>2019-07-29T11:22:57Z</time>
      </trkpt>
      <trkpt lat="45.67466" lon="4.50978">
        <ele>852</ele>
        <time>2019-07-29T11:23:41Z</time>
      </trkpt>
      <trkpt lat="45.67434" lon="4.50994">
        <ele>854</ele>
        <time>2019-07-29T11:23:49Z</time>
      </trkpt>
      <trkpt lat="45.67387" lon="4.5097">
        <ele>858</ele>
        <time>2019-07-29T11:24:01Z</time>
      </trkpt>
      <trkpt lat="45.67277" lon="4.50953">
        <ele>865</ele>
        <time>2019-07-29T11:24:27Z</time>
      </trkpt>
      <trkpt lat="45.67246" lon="4.50946">
        <ele>867</ele>
        <time>2019-07-29T11:24:34Z</time>
      </trkpt>
      <trkpt lat="45.67185" lon="4.50864">
        <ele>862</ele>
        <time>2019-07-29T11:24:54Z</time>
      </trkpt>
      <trkpt lat="45.67127" lon="4.50807">
        <ele>858</ele>
        <time>2019-07-29T11:25:10Z</time>
      </trkpt>
      <trkpt lat="45.67083" lon="4.50798">
        <ele>856</ele>
        <time>2019-07-29T11:25:21Z</time>
      </trkpt>
      <trkpt lat="45.67017" lon="4.50808">
        <ele>854</ele>
        <time>2019-07-29T11:25:36Z</time>
      </trkpt>
      <trkpt lat="45.66955" lon="4.50761">
        <ele>857</ele>
        <time>2019-07-29T11:25:52Z</time>
      </trkpt>
      <trkpt lat="45.66922" lon="4.50709">
        <ele>853</ele>
        <time>2019-07-29T11:26:04Z</time>
      </trkpt>
      <trkpt lat="45.66903" lon="4.50707">
        <ele>850</ele>
        <time>2019-07-29T11:26:08Z</time>
      </trkpt>
      <trkpt lat="45.66917" lon="4.50839">
        <ele>852</ele>
        <time>2019-07-29T11:26:30Z</time>
      </trkpt>
      <trkpt lat="45.66859" lon="4.509">
        <ele>854</ele>
        <time>2019-07-29T11:26:47Z</time>
      </trkpt>
      <trkpt lat="45.66756" lon="4.51118">
        <ele>844</ele>
        <time>2019-07-29T11:27:30Z</time>
      </trkpt>
      <trkpt lat="45.66739" lon="4.51202">
        <ele>839</ele>
        <time>2019-07-29T11:27:44Z</time>
      </trkpt>
      <trkpt lat="45.66676" lon="4.51259">
        <ele>824</ele>
        <time>2019-07-29T11:28:02Z</time>
      </trkpt>
      <trkpt lat="45.66655" lon="4.5124">
        <ele>821</ele>
        <time>2019-07-29T11:28:07Z</time>
      </trkpt>
      <trkpt lat="45.66644" lon="4.51279">
        <ele>815</ele>
        <time>2019-07-29T11:28:14Z</time>
      </trkpt>
      <trkpt lat="45.66643" lon="4.5133">
        <ele>810</ele>
        <time>2019-07-29T11:28:23Z</time>
      </trkpt>
      <trkpt lat="45.66706" lon="4.51487">
        <ele>798</ele>
        <time>2019-07-29T11:28:52Z</time>
      </trkpt>
      <trkpt lat="45.66749" lon="4.5151">
        <ele>797</ele>
        <time>2019-07-29T11:29:03Z</time>
      </trkpt>
      <trkpt lat="45.6661" lon="4.51589">
        <ele>783</ele>
        <time>2019-07-29T11:29:38Z</time>
      </trkpt>
      <trkpt lat="45.66533" lon="4.51642">
        <ele>779</ele>
        <time>2019-07-29T11:29:58Z</time>
      </trkpt>
      <trkpt lat="45.66604" lon="4.51689">
        <ele>779</ele>
        <time>2019-07-29T11:30:16Z</time>
      </trkpt>
      <trkpt lat="45.66667" lon="4.5171">
        <ele>772</ele>
        <time>2019-07-29T11:30:31Z</time>
      </trkpt>
      <trkpt lat="45.6669" lon="4.51739">
        <ele>768</ele>
        <time>2019-07-29T11:30:38Z</time>
      </trkpt>
      <trkpt lat="45.6673" lon="4.51821">
        <ele>760</ele>
        <time>2019-07-29T11:30:55Z</time>
      </trkpt>
      <trkpt lat="45.66756" lon="4.51891">
        <ele>756</ele>
        <time>2019-07-29T11:31:08Z</time>
      </trkpt>
      <trkpt lat="45.66769" lon="4.51959">
        <ele>753</ele>
        <time>2019-07-29T11:31:19Z</time>
      </trkpt>
      <trkpt lat="45.66776" lon="4.52022">
        <ele>753</ele>
        <time>2019-07-29T11:31:29Z</time>
      </trkpt>
      <trkpt lat="45.66818" lon="4.52123">
        <ele>748</ele>
        <time>2019-07-29T11:31:49Z</time>
      </trkpt>
      <trkpt lat="45.66815" lon="4.52163">
        <ele>749</ele>
        <time>2019-07-29T11:31:55Z</time>
      </trkpt>
      <trkpt lat="45.66856" lon="4.52251">
        <ele>746</ele>
        <time>2019-07-29T11:32:12Z</time>
      </trkpt>
      <trkpt lat="45.66919" lon="4.52311">
        <ele>738</ele>
        <time>2019-07-29T11:32:30Z</time>
      </trkpt>
      <trkpt lat="45.66956" lon="4.52317">
        <ele>735</ele>
        <time>2019-07-29T11:32:39Z</time>
      </trkpt>
      <trkpt lat="45.67017" lon="4.5236">
        <ele>731</ele>
        <time>2019-07-29T11:32:55Z</time>
      </trkpt>
      <trkpt lat="45.67074" lon="4.5234">
        <ele>729</ele>
        <time>2019-07-29T11:33:08Z</time>
      </trkpt>
      <trkpt lat="45.67122" lon="4.52401">
        <ele>728</ele>
        <time>2019-07-29T11:33:23Z</time>
      </trkpt>
      <trkpt lat="45.67162" lon="4.52436">
        <ele>729</ele>
        <time>2019-07-29T11:33:34Z</time>
      </trkpt>
      <trkpt lat="45.67216" lon="4.52436">
        <ele>727</ele>
        <time>2019-07-29T11:33:47Z</time>
      </trkpt>
      <trkpt lat="45.67229" lon="4.52465">
        <ele>727</ele>
        <time>2019-07-29T11:33:53Z</time>
      </trkpt>
      <trkpt lat="45.67233" lon="4.52501">
        <ele>728</ele>
        <time>2019-07-29T11:33:59Z</time>
      </trkpt>
      <trkpt lat="45.67255" lon="4.52522">
        <ele>730</ele>
        <time>2019-07-29T11:34:05Z</time>
      </trkpt>
      <trkpt lat="45.67198" lon="4.52587">
        <ele>733</ele>
        <time>2019-07-29T11:34:22Z</time>
      </trkpt>
      <trkpt lat="45.67056" lon="4.52502">
        <ele>739</ele>
        <time>2019-07-29T11:34:58Z</time>
      </trkpt>
      <trkpt lat="45.67036" lon="4.52537">
        <ele>743</ele>
        <time>2019-07-29T11:35:05Z</time>
      </trkpt>
      <trkpt lat="45.66794" lon="4.5257">
        <ele>757</ele>
        <time>2019-07-29T11:36:02Z</time>
      </trkpt>
      <trkpt lat="45.66682" lon="4.52613">
        <ele>762</ele>
        <time>2019-07-29T11:36:29Z</time>
      </trkpt>
      <trkpt lat="45.6661" lon="4.52645">
        <ele>765</ele>
        <time>2019-07-29T11:36:47Z</time>
      </trkpt>
      <trkpt lat="45.66503" lon="4.52757">
        <ele>766</ele>
        <time>2019-07-29T11:37:17Z</time>
      </trkpt>
      <trkpt lat="45.66447" lon="4.52787">
        <ele>770</ele>
        <time>2019-07-29T11:37:31Z</time>
      </trkpt>
      <trkpt lat="45.66398" lon="4.52759">
        <ele>775</ele>
        <time>2019-07-29T11:37:44Z</time>
      </trkpt>
      <trkpt lat="45.66329" lon="4.52747">
        <ele>774</ele>
        <time>2019-07-29T11:38:00Z</time>
      </trkpt>
      <trkpt lat="45.66159" lon="4.52862">
        <ele>763</ele>
        <time>2019-07-29T11:38:44Z</time>
      </trkpt>
      <trkpt lat="45.66128" lon="4.52879">
        <ele>759</ele>
        <time>2019-07-29T11:38:52Z</time>
      </trkpt>
      <trkpt lat="45.6609" lon="4.52885">
        <ele>754</ele>
        <time>2019-07-29T11:39:01Z</time>
      </trkpt>
      <trkpt lat="45.66019" lon="4.52894">
        <ele>744</ele>
        <time>2019-07-29T11:39:17Z</time>
      </trkpt>
      <trkpt lat="45.65951" lon="4.52864">
        <ele>734</ele>
        <time>2019-07-29T11:39:34Z</time>
      </trkpt>
      <trkpt lat="45.65909" lon="4.52871">
        <ele>729</ele>
        <time>2019-07-29T11:39:44Z</time>
      </trkpt>
      <trkpt lat="45.65838" lon="4.52861">
        <ele>721</ele>
        <time>2019-07-29T11:40:00Z</time>
      </trkpt>
      <trkpt lat="45.65721" lon="4.52863">
        <ele>705</ele>
        <time>2019-07-29T11:40:28Z</time>
      </trkpt>
      <trkpt lat="45.65594" lon="4.52857">
        <ele>687</ele>
        <time>2019-07-29T11:40:57Z</time>
      </trkpt>
      <trkpt lat="45.65529" lon="4.52842">
        <ele>682</ele>
        <time>2019-07-29T11:41:13Z</time>
      </trkpt>
      <trkpt lat="45.65513" lon="4.52865">
        <ele>680</ele>
        <time>2019-07-29T11:41:18Z</time>
      </trkpt>
      <trkpt lat="45.65455" lon="4.52899">
        <ele>680</ele>
        <time>2019-07-29T11:41:33Z</time>
      </trkpt>
      <trkpt lat="45.65417" lon="4.52946">
        <ele>680</ele>
        <time>2019-07-29T11:41:44Z</time>
      </trkpt>
      <trkpt lat="45.65394" lon="4.52994">
        <ele>681</ele>
        <time>2019-07-29T11:41:54Z</time>
      </trkpt>
      <trkpt lat="45.65352" lon="4.52981">
        <ele>684</ele>
        <time>2019-07-29T11:42:04Z</time>
      </trkpt>
      <trkpt lat="45.65317" lon="4.52966">
        <ele>685</ele>
        <time>2019-07-29T11:42:12Z</time>
      </trkpt>
      <trkpt lat="45.6535" lon="4.52909">
        <ele>686</ele>
        <time>2019-07-29T11:42:25Z</time>
      </trkpt>
      <trkpt lat="45.65427" lon="4.52805">
        <ele>692</ele>
        <time>2019-07-29T11:42:49Z</time>
      </trkpt>
      <trkpt lat="45.65442" lon="4.52757">
        <ele>694</ele>
        <time>2019-07-29T11:42:58Z</time>
      </trkpt>
      <trkpt lat="45.65439" lon="4.52697">
        <ele>699</ele>
        <time>2019-07-29T11:43:08Z</time>
      </trkpt>
      <trkpt lat="45.65407" lon="4.52625">
        <ele>709</ele>
        <time>2019-07-29T11:43:22Z</time>
      </trkpt>
      <trkpt lat="45.65404" lon="4.52471">
        <ele>718</ele>
        <time>2019-07-29T11:43:47Z</time>
      </trkpt>
      <trkpt lat="45.65446" lon="4.52339">
        <ele>731</ele>
        <time>2019-07-29T11:44:10Z</time>
      </trkpt>
      <trkpt lat="45.65447" lon="4.52268">
        <ele>741</ele>
        <time>2019-07-29T11:44:22Z</time>
      </trkpt>
      <trkpt lat="45.65421" lon="4.52133">
        <ele>743</ele>
        <time>2019-07-29T11:44:45Z</time>
      </trkpt>
      <trkpt lat="45.65352" lon="4.52248">
        <ele>761</ele>
        <time>2019-07-29T11:45:10Z</time>
      </trkpt>
      <trkpt lat="45.65312" lon="4.52277">
        <ele>763</ele>
        <time>2019-07-29T11:45:20Z</time>
      </trkpt>
      <trkpt lat="45.65275" lon="4.52277">
        <ele>763</ele>
        <time>2019-07-29T11:45:29Z</time>
      </trkpt>
      <trkpt lat="45.65084" lon="4.52199">
        <ele>751</ele>
        <time>2019-07-29T11:46:15Z</time>
      </trkpt>
      <trkpt lat="45.6502" lon="4.52132">
        <ele>741</ele>
        <time>2019-07-29T11:46:34Z</time>
      </trkpt>
      <trkpt lat="45.64867" lon="4.5204">
        <ele>714</ele>
        <time>2019-07-29T11:47:12Z</time>
      </trkpt>
      <trkpt lat="45.64754" lon="4.52001">
        <ele>700</ele>
        <time>2019-07-29T11:47:40Z</time>
      </trkpt>
      <trkpt lat="45.64666" lon="4.51991">
        <ele>695</ele>
        <time>2019-07-29T11:48:00Z</time>
      </trkpt>
      <trkpt lat="45.64615" lon="4.52009">
        <ele>696</ele>
        <time>2019-07-29T11:48:12Z</time>
      </trkpt>
      <trkpt lat="45.64619" lon="4.52095">
        <ele>691</ele>
        <time>2019-07-29T11:48:27Z</time>
      </trkpt>
      <trkpt lat="45.64598" lon="4.52121">
        <ele>691</ele>
        <time>2019-07-29T11:48:33Z</time>
      </trkpt>
      <trkpt lat="45.64518" lon="4.52148">
        <ele>690</ele>
        <time>2019-07-29T11:48:52Z</time>
      </trkpt>
      <trkpt lat="45.64488" lon="4.52148">
        <ele>688</ele>
        <time>2019-07-29T11:48:59Z</time>
      </trkpt>
      <trkpt lat="45.64466" lon="4.52124">
        <ele>687</ele>
        <time>2019-07-29T11:49:06Z</time>
      </trkpt>
      <trkpt lat="45.64464" lon="4.5204">
        <ele>685</ele>
        <time>2019-07-29T11:49:19Z</time>
      </trkpt>
      <trkpt lat="45.64452" lon="4.52022">
        <ele>683</ele>
        <time>2019-07-29T11:49:23Z</time>
      </trkpt>
      <trkpt lat="45.64339" lon="4.5208">
        <ele>674</ele>
        <time>2019-07-29T11:49:51Z</time>
      </trkpt>
      <trkpt lat="45.64267" lon="4.5206">
        <ele>668</ele>
        <time>2019-07-29T11:50:09Z</time>
      </trkpt>
      <trkpt lat="45.64187" lon="4.5223">
        <ele>666</ele>
        <time>2019-07-29T11:50:42Z</time>
      </trkpt>
      <trkpt lat="45.6415" lon="4.52229">
        <ele>664</ele>
        <time>2019-07-29T11:50:51Z</time>
      </trkpt>
      <trkpt lat="45.64123" lon="4.52243">
        <ele>662</ele>
        <time>2019-07-29T11:50:57Z</time>
      </trkpt>
      <trkpt lat="45.64112" lon="4.52293">
        <ele>659</ele>
        <time>2019-07-29T11:51:06Z</time>
      </trkpt>
      <trkpt lat="45.64132" lon="4.52357">
        <ele>657</ele>
        <time>2019-07-29T11:51:17Z</time>
      </trkpt>
      <trkpt lat="45.64155" lon="4.5248">
        <ele>654</ele>
        <time>2019-07-29T11:51:38Z</time>
      </trkpt>
      <trkpt lat="45.64142" lon="4.52496">
        <ele>652</ele>
        <time>2019-07-29T11:51:42Z</time>
      </trkpt>
      <trkpt lat="45.64113" lon="4.52639">
        <ele>647</ele>
        <time>2019-07-29T11:52:07Z</time>
      </trkpt>
      <trkpt lat="45.64101" lon="4.52792">
        <ele>634</ele>
        <time>2019-07-29T11:52:32Z</time>
      </trkpt>
      <trkpt lat="45.64131" lon="4.52882">
        <ele>625</ele>
        <time>2019-07-29T11:52:48Z</time>
      </trkpt>
      <trkpt lat="45.64139" lon="4.52961">
        <ele>618</ele>
        <time>2019-07-29T11:53:01Z</time>
      </trkpt>
      <trkpt lat="45.64159" lon="4.53028">
        <ele>613</ele>
        <time>2019-07-29T11:53:13Z</time>
      </trkpt>
      <trkpt lat="45.64172" lon="4.53152">
        <ele>603</ele>
        <time>2019-07-29T11:53:33Z</time>
      </trkpt>
      <trkpt lat="45.64177" lon="4.53246">
        <ele>597</ele>
        <time>2019-07-29T11:53:49Z</time>
      </trkpt>
      <trkpt lat="45.64186" lon="4.53259">
        <ele>597</ele>
        <time>2019-07-29T11:53:52Z</time>
      </trkpt>
      <trkpt lat="45.64168" lon="4.53364">
        <ele>599</ele>
        <time>2019-07-29T11:54:09Z</time>
      </trkpt>
      <trkpt lat="45.64174" lon="4.53418">
        <ele>602</ele>
        <time>2019-07-29T11:54:18Z</time>
      </trkpt>
      <trkpt lat="45.64168" lon="4.53513">
        <ele>612</ele>
        <time>2019-07-29T11:54:34Z</time>
      </trkpt>
      <trkpt lat="45.64223" lon="4.53525">
        <ele>613</ele>
        <time>2019-07-29T11:54:47Z</time>
      </trkpt>
      <trkpt lat="45.64284" lon="4.53502">
        <ele>614</ele>
        <time>2019-07-29T11:55:02Z</time>
      </trkpt>
      <trkpt lat="45.64333" lon="4.53521">
        <ele>620</ele>
        <time>2019-07-29T11:55:13Z</time>
      </trkpt>
      <trkpt lat="45.64373" lon="4.53546">
        <ele>621</ele>
        <time>2019-07-29T11:55:24Z</time>
      </trkpt>
      <trkpt lat="45.64391" lon="4.53592">
        <ele>627</ele>
        <time>2019-07-29T11:55:32Z</time>
      </trkpt>
      <trkpt lat="45.64413" lon="4.53627">
        <ele>634</ele>
        <time>2019-07-29T11:55:40Z</time>
      </trkpt>
      <trkpt lat="45.64433" lon="4.53647">
        <ele>637</ele>
        <time>2019-07-29T11:55:46Z</time>
      </trkpt>
      <trkpt lat="45.64546" lon="4.53702">
        <ele>636</ele>
        <time>2019-07-29T11:56:14Z</time>
      </trkpt>
      <trkpt lat="45.64582" lon="4.53735">
        <ele>636</ele>
        <time>2019-07-29T11:56:24Z</time>
      </trkpt>
      <trkpt lat="45.64636" lon="4.53819">
        <ele>641</ele>
        <time>2019-07-29T11:56:42Z</time>
      </trkpt>
      <trkpt lat="45.64652" lon="4.53875">
        <ele>644</ele>
        <time>2019-07-29T11:56:52Z</time>
      </trkpt>
      <trkpt lat="45.64682" lon="4.54068">
        <ele>657</ele>
        <time>2019-07-29T11:57:24Z</time>
      </trkpt>
      <trkpt lat="45.64701" lon="4.5412">
        <ele>662</ele>
        <time>2019-07-29T11:57:34Z</time>
      </trkpt>
      <trkpt lat="45.64723" lon="4.54218">
        <ele>675</ele>
        <time>2019-07-29T11:57:51Z</time>
      </trkpt>
      <trkpt lat="45.64768" lon="4.54285">
        <ele>674</ele>
        <time>2019-07-29T11:58:06Z</time>
      </trkpt>
      <trkpt lat="45.6485" lon="4.54513">
        <ele>680</ele>
        <time>2019-07-29T11:58:48Z</time>
      </trkpt>
      <trkpt lat="45.64885" lon="4.54671">
        <ele>688</ele>
        <time>2019-07-29T11:59:15Z</time>
      </trkpt>
      <trkpt lat="45.64879" lon="4.54721">
        <ele>692</ele>
        <time>2019-07-29T11:59:23Z</time>
      </trkpt>
      <trkpt lat="45.64887" lon="4.54768">
        <ele>695</ele>
        <time>2019-07-29T11:59:31Z</time>
      </trkpt>
      <trkpt lat="45.64905" lon="4.54791">
        <ele>696</ele>
        <time>2019-07-29T11:59:37Z</time>
      </trkpt>
      <trkpt lat="45.6492" lon="4.54823">
        <ele>698</ele>
        <time>2019-07-29T11:59:43Z</time>
      </trkpt>
      <trkpt lat="45.64932" lon="4.54898">
        <ele>705</ele>
        <time>2019-07-29T11:59:55Z</time>
      </trkpt>
      <trkpt lat="45.64933" lon="4.5493">
        <ele>709</ele>
        <time>2019-07-29T12:00:01Z</time>
      </trkpt>
      <trkpt lat="45.64919" lon="4.55005">
        <ele>717</ele>
        <time>2019-07-29T12:00:13Z</time>
      </trkpt>
      <trkpt lat="45.64921" lon="4.55051">
        <ele>722</ele>
        <time>2019-07-29T12:00:21Z</time>
      </trkpt>
      <trkpt lat="45.64948" lon="4.55074">
        <ele>725</ele>
        <time>2019-07-29T12:00:28Z</time>
      </trkpt>
      <trkpt lat="45.64976" lon="4.55152">
        <ele>731</ele>
        <time>2019-07-29T12:00:43Z</time>
      </trkpt>
      <trkpt lat="45.64978" lon="4.55178">
        <ele>734</ele>
        <time>2019-07-29T12:00:47Z</time>
      </trkpt>
      <trkpt lat="45.65049" lon="4.55107">
        <ele>726</ele>
        <time>2019-07-29T12:01:07Z</time>
      </trkpt>
      <trkpt lat="45.65168" lon="4.55029">
        <ele>718</ele>
        <time>2019-07-29T12:01:38Z</time>
      </trkpt>
      <trkpt lat="45.65251" lon="4.54931">
        <ele>709</ele>
        <time>2019-07-29T12:02:03Z</time>
      </trkpt>
      <trkpt lat="45.65321" lon="4.54875">
        <ele>701</ele>
        <time>2019-07-29T12:02:21Z</time>
      </trkpt>
      <trkpt lat="45.65361" lon="4.54863">
        <ele>695</ele>
        <time>2019-07-29T12:02:31Z</time>
      </trkpt>
      <trkpt lat="45.65395" lon="4.54845">
        <ele>689</ele>
        <time>2019-07-29T12:02:39Z</time>
      </trkpt>
      <trkpt lat="45.65451" lon="4.54799">
        <ele>680</ele>
        <time>2019-07-29T12:02:55Z</time>
      </trkpt>
      <trkpt lat="45.6548" lon="4.548">
        <ele>676</ele>
        <time>2019-07-29T12:03:01Z</time>
      </trkpt>
      <trkpt lat="45.65518" lon="4.54782">
        <ele>671</ele>
        <time>2019-07-29T12:03:11Z</time>
      </trkpt>
      <trkpt lat="45.6553" lon="4.54769">
        <ele>669</ele>
        <time>2019-07-29T12:03:14Z</time>
      </trkpt>
      <trkpt lat="45.65529" lon="4.54792">
        <ele>669</ele>
        <time>2019-07-29T12:03:18Z</time>
      </trkpt>
      <trkpt lat="45.65518" lon="4.54829">
        <ele>671</ele>
        <time>2019-07-29T12:03:24Z</time>
      </trkpt>
      <trkpt lat="45.65517" lon="4.54845">
        <ele>672</ele>
        <time>2019-07-29T12:03:27Z</time>
      </trkpt>
      <trkpt lat="45.65533" lon="4.54876">
        <ele>671</ele>
        <time>2019-07-29T12:03:33Z</time>
      </trkpt>
      <trkpt lat="45.65553" lon="4.54944">
        <ele>671</ele>
        <time>2019-07-29T12:03:45Z</time>
      </trkpt>
      <trkpt lat="45.65557" lon="4.55039">
        <ele>674</ele>
        <time>2019-07-29T12:04:01Z</time>
      </trkpt>
      <trkpt lat="45.65567" lon="4.55106">
        <ele>674</ele>
        <time>2019-07-29T12:04:12Z</time>
      </trkpt>
      <trkpt lat="45.65581" lon="4.55159">
        <ele>673</ele>
        <time>2019-07-29T12:04:21Z</time>
      </trkpt>
      <trkpt lat="45.65595" lon="4.55177">
        <ele>673</ele>
        <time>2019-07-29T12:04:26Z</time>
      </trkpt>
      <trkpt lat="45.65606" lon="4.55261">
        <ele>678</ele>
        <time>2019-07-29T12:04:40Z</time>
      </trkpt>
      <trkpt lat="45.65622" lon="4.55321">
        <ele>681</ele>
        <time>2019-07-29T12:04:50Z</time>
      </trkpt>
      <trkpt lat="45.65659" lon="4.55384">
        <ele>682</ele>
        <time>2019-07-29T12:05:04Z</time>
      </trkpt>
      <trkpt lat="45.65685" lon="4.55449">
        <ele>686</ele>
        <time>2019-07-29T12:05:16Z</time>
      </trkpt>
      <trkpt lat="45.65706" lon="4.55489">
        <ele>687</ele>
        <time>2019-07-29T12:05:24Z</time>
      </trkpt>
      <trkpt lat="45.65723" lon="4.55505">
        <ele>687</ele>
        <time>2019-07-29T12:05:29Z</time>
      </trkpt>
      <trkpt lat="45.65774" lon="4.55484">
        <ele>686</ele>
        <time>2019-07-29T12:05:41Z</time>
      </trkpt>
      <trkpt lat="45.65786" lon="4.5553">
        <ele>690</ele>
        <time>2019-07-29T12:05:49Z</time>
      </trkpt>
      <trkpt lat="45.65783" lon="4.55635">
        <ele>694</ele>
        <time>2019-07-29T12:06:06Z</time>
      </trkpt>
      <trkpt lat="45.65785" lon="4.5591">
        <ele>702</ele>
        <time>2019-07-29T12:06:51Z</time>
      </trkpt>
      <trkpt lat="45.65796" lon="4.56132">
        <ele>713</ele>
        <time>2019-07-29T12:07:28Z</time>
      </trkpt>
      <trkpt lat="45.65832" lon="4.56327">
        <ele>723</ele>
        <time>2019-07-29T12:08:01Z</time>
      </trkpt>
      <trkpt lat="45.65878" lon="4.5639">
        <ele>726</ele>
        <time>2019-07-29T12:08:15Z</time>
      </trkpt>
    </trkseg>
  </trk>
  <trk>
    <name><![CDATA[10046673-LA GIMOND]]></name>
    <trkseg>
      <trkpt lat="45.66168" lon="4.56026">
        <ele>724</ele>
        <time>2019-07-29T10:33:05Z</time>
      </trkpt>
      <trkpt lat="45.66248" lon="4.5593">
        <ele>710</ele>
        <time>2019-07-29T10:33:29Z</time>
      </trkpt>
      <trkpt lat="45.66278" lon="4.55852">
        <ele>705</ele>
        <time>2019-07-29T10:33:44Z</time>
      </trkpt>
      <trkpt lat="45.66326" lon="4.55741">
        <ele>704</ele>
        <time>2019-07-29T10:34:05Z</time>
      </trkpt>
      <trkpt lat="45.66379" lon="4.55706">
        <ele>707</ele>
        <time>2019-07-29T10:34:19Z</time>
      </trkpt>
      <trkpt lat="45.66368" lon="4.55552">
        <ele>695</ele>
        <time>2019-07-29T10:34:44Z</time>
      </trkpt>
      <trkpt lat="45.66356" lon="4.55451">
        <ele>686</ele>
        <time>2019-07-29T10:35:01Z</time>
      </trkpt>
      <trkpt lat="45.66356" lon="4.55294">
        <ele>672</ele>
        <time>2019-07-29T10:35:26Z</time>
      </trkpt>
      <trkpt lat="45.66421" lon="4.5502">
        <ele>640</ele>
        <time>2019-07-29T10:36:14Z</time>
      </trkpt>
      <trkpt lat="45.66497" lon="4.54983">
        <ele>638</ele>
        <time>2019-07-29T10:36:32Z</time>
      </trkpt>
      <trkpt lat="45.66527" lon="4.55084">
        <ele>643</ele>
        <time>2019-07-29T10:36:50Z</time>
      </trkpt>
      <trkpt lat="45.66575" lon="4.55114">
        <ele>644</ele>
        <time>2019-07-29T10:37:03Z</time>
      </trkpt>
      <trkpt lat="45.66658" lon="4.55018">
        <ele>639</ele>
        <time>2019-07-29T10:37:27Z</time>
      </trkpt>
      <trkpt lat="45.66724" lon="4.54751">
        <ele>641</ele>
        <time>2019-07-29T10:38:14Z</time>
      </trkpt>
      <trkpt lat="45.66876" lon="4.54458">
        <ele>668</ele>
        <time>2019-07-29T10:39:13Z</time>
      </trkpt>
      <trkpt lat="45.66951" lon="4.54269">
        <ele>687</ele>
        <time>2019-07-29T10:39:49Z</time>
      </trkpt>
      <trkpt lat="45.66941" lon="4.54194">
        <ele>689</ele>
        <time>2019-07-29T10:40:01Z</time>
      </trkpt>
      <trkpt lat="45.66978" lon="4.5414">
        <ele>699</ele>
        <time>2019-07-29T10:40:14Z</time>
      </trkpt>
      <trkpt lat="45.66995" lon="4.54015">
        <ele>708</ele>
        <time>2019-07-29T10:40:34Z</time>
      </trkpt>
      <trkpt lat="45.67193" lon="4.53636">
        <ele>740</ele>
        <time>2019-07-29T10:41:52Z</time>
      </trkpt>
      <trkpt lat="45.67254" lon="4.53511">
        <ele>751</ele>
        <time>2019-07-29T10:42:16Z</time>
      </trkpt>
      <trkpt lat="45.67403" lon="4.53395">
        <ele>763</ele>
        <time>2019-07-29T10:42:56Z</time>
      </trkpt>
      <trkpt lat="45.67448" lon="4.53325">
        <ele>769</ele>
        <time>2019-07-29T10:43:12Z</time>
      </trkpt>
      <trkpt lat="45.67383" lon="4.53149">
        <ele>758</ele>
        <time>2019-07-29T10:43:44Z</time>
      </trkpt>
      <trkpt lat="45.67425" lon="4.52975">
        <ele>758</ele>
        <time>2019-07-29T10:44:14Z</time>
      </trkpt>
      <trkpt lat="45.67491" lon="4.52769">
        <ele>750</ele>
        <time>2019-07-29T10:44:51Z</time>
      </trkpt>
      <trkpt lat="45.67542" lon="4.52649">
        <ele>745</ele>
        <time>2019-07-29T10:45:14Z</time>
      </trkpt>
      <trkpt lat="45.67688" lon="4.52715">
        <ele>753</ele>
        <time>2019-07-29T10:45:50Z</time>
      </trkpt>
      <trkpt lat="45.67869" lon="4.52904">
        <ele>761</ele>
        <time>2019-07-29T10:46:42Z</time>
      </trkpt>
      <trkpt lat="45.67907" lon="4.53046">
        <ele>764</ele>
        <time>2019-07-29T10:47:07Z</time>
      </trkpt>
      <trkpt lat="45.68092" lon="4.5323">
        <ele>767</ele>
        <time>2019-07-29T10:47:59Z</time>
      </trkpt>
      <trkpt lat="45.68304" lon="4.53217">
        <ele>781</ele>
        <time>2019-07-29T10:48:49Z</time>
      </trkpt>
      <trkpt lat="45.68394" lon="4.53125">
        <ele>784</ele>
        <time>2019-07-29T10:49:15Z</time>
      </trkpt>
      <trkpt lat="45.68524" lon="4.53037">
        <ele>790</ele>
        <time>2019-07-29T10:49:48Z</time>
      </trkpt>
      <trkpt lat="45.68434" lon="4.52855">
        <ele>795</ele>
        <time>2019-07-29T10:50:25Z</time>
      </trkpt>
      <trkpt lat="45.68455" lon="4.52569">
        <ele>805</ele>
        <time>2019-07-29T10:51:12Z</time>
      </trkpt>
      <trkpt lat="45.68358" lon="4.52288">
        <ele>818</ele>
        <time>2019-07-29T10:52:03Z</time>
      </trkpt>
      <trkpt lat="45.68362" lon="4.5196">
        <ele>844</ele>
        <time>2019-07-29T10:52:56Z</time>
      </trkpt>
      <trkpt lat="45.6831" lon="4.51614">
        <ele>860</ele>
        <time>2019-07-29T10:53:54Z</time>
      </trkpt>
      <trkpt lat="45.68239" lon="4.51282">
        <ele>865</ele>
        <time>2019-07-29T10:54:51Z</time>
      </trkpt>
      <trkpt lat="45.68119" lon="4.51102">
        <ele>875</ele>
        <time>2019-07-29T10:55:31Z</time>
      </trkpt>
      <trkpt lat="45.68019" lon="4.51004">
        <ele>883</ele>
        <time>2019-07-29T10:56:00Z</time>
      </trkpt>
      <trkpt lat="45.67962" lon="4.50797">
        <ele>891</ele>
        <time>2019-07-29T10:56:36Z</time>
      </trkpt>
      <trkpt lat="45.67904" lon="4.50638">
        <ele>900</ele>
        <time>2019-07-29T10:57:05Z</time>
      </trkpt>
      <trkpt lat="45.67719" lon="4.50533">
        <ele>899</ele>
        <time>2019-07-29T10:57:52Z</time>
      </trkpt>
      <trkpt lat="45.67613" lon="4.50342">
        <ele>888</ele>
        <time>2019-07-29T10:58:32Z</time>
      </trkpt>
      <trkpt lat="45.6755" lon="4.5011">
        <ele>874</ele>
        <time>2019-07-29T10:59:12Z</time>
      </trkpt>
      <trkpt lat="45.6756" lon="4.49812">
        <ele>852</ele>
        <time>2019-07-29T11:00:01Z</time>
      </trkpt>
      <trkpt lat="45.6759" lon="4.49505">
        <ele>825</ele>
        <time>2019-07-29T11:00:51Z</time>
      </trkpt>
      <trkpt lat="45.67557" lon="4.49301">
        <ele>811</ele>
        <time>2019-07-29T11:01:26Z</time>
      </trkpt>
      <trkpt lat="45.67509" lon="4.49282">
        <ele>814</ele>
        <time>2019-07-29T11:01:37Z</time>
      </trkpt>
      <trkpt lat="45.67539" lon="4.49235">
        <ele>810</ele>
        <time>2019-07-29T11:01:48Z</time>
      </trkpt>
      <trkpt lat="45.6761" lon="4.49072">
        <ele>804</ele>
        <time>2019-07-29T11:02:19Z</time>
      </trkpt>
      <trkpt lat="45.67695" lon="4.48806">
        <ele>800</ele>
        <time>2019-07-29T11:03:07Z</time>
      </trkpt>
      <trkpt lat="45.6777" lon="4.48696">
        <ele>788</ele>
        <time>2019-07-29T11:03:32Z</time>
      </trkpt>
      <trkpt lat="45.67782" lon="4.48563">
        <ele>772</ele>
        <time>2019-07-29T11:03:54Z</time>
      </trkpt>
      <trkpt lat="45.67883" lon="4.48419">
        <ele>765</ele>
        <time>2019-07-29T11:04:27Z</time>
      </trkpt>
      <trkpt lat="45.67869" lon="4.48297">
        <ele>763</ele>
        <time>2019-07-29T11:04:47Z</time>
      </trkpt>
      <trkpt lat="45.67892" lon="4.48175">
        <ele>772</ele>
        <time>2019-07-29T11:05:08Z</time>
      </trkpt>
      <trkpt lat="45.67749" lon="4.48192">
        <ele>754</ele>
        <time>2019-07-29T11:05:41Z</time>
      </trkpt>
      <trkpt lat="45.67737" lon="4.48143">
        <ele>754</ele>
        <time>2019-07-29T11:05:50Z</time>
      </trkpt>
      <trkpt lat="45.67736" lon="4.48065">
        <ele>752</ele>
        <time>2019-07-29T11:06:02Z</time>
      </trkpt>
      <trkpt lat="45.67428" lon="4.481">
        <ele>772</ele>
        <time>2019-07-29T11:07:15Z</time>
      </trkpt>
      <trkpt lat="45.67364" lon="4.48052">
        <ele>773</ele>
        <time>2019-07-29T11:07:31Z</time>
      </trkpt>
      <trkpt lat="45.67292" lon="4.48044">
        <ele>769</ele>
        <time>2019-07-29T11:07:48Z</time>
      </trkpt>
      <trkpt lat="45.67268" lon="4.47971">
        <ele>768</ele>
        <time>2019-07-29T11:08:01Z</time>
      </trkpt>
      <trkpt lat="45.67244" lon="4.47703">
        <ele>767</ele>
        <time>2019-07-29T11:08:46Z</time>
      </trkpt>
      <trkpt lat="45.67167" lon="4.47432">
        <ele>765</ele>
        <time>2019-07-29T11:09:33Z</time>
      </trkpt>
      <trkpt lat="45.67034" lon="4.47168">
        <ele>763</ele>
        <time>2019-07-29T11:10:26Z</time>
      </trkpt>
      <trkpt lat="45.66854" lon="4.46952">
        <ele>782</ele>
        <time>2019-07-29T11:11:21Z</time>
      </trkpt>
      <trkpt lat="45.66724" lon="4.46761">
        <ele>788</ele>
        <time>2019-07-29T11:12:05Z</time>
      </trkpt>
      <trkpt lat="45.6659" lon="4.46537">
        <ele>769</ele>
        <time>2019-07-29T11:12:53Z</time>
      </trkpt>
      <trkpt lat="45.66498" lon="4.46521">
        <ele>760</ele>
        <time>2019-07-29T11:13:15Z</time>
      </trkpt>
      <trkpt lat="45.66346" lon="4.4649">
        <ele>748</ele>
        <time>2019-07-29T11:13:50Z</time>
      </trkpt>
      <trkpt lat="45.66268" lon="4.46366">
        <ele>742</ele>
        <time>2019-07-29T11:14:18Z</time>
      </trkpt>
      <trkpt lat="45.66205" lon="4.46093">
        <ele>747</ele>
        <time>2019-07-29T11:15:05Z</time>
      </trkpt>
      <trkpt lat="45.66217" lon="4.45701">
        <ele>722</ele>
        <time>2019-07-29T11:16:09Z</time>
      </trkpt>
      <trkpt lat="45.66224" lon="4.45572">
        <ele>716</ele>
        <time>2019-07-29T11:16:30Z</time>
      </trkpt>
      <trkpt lat="45.66244" lon="4.4548">
        <ele>713</ele>
        <time>2019-07-29T11:16:45Z</time>
      </trkpt>
      <trkpt lat="45.66284" lon="4.45336">
        <ele>709</ele>
        <time>2019-07-29T11:17:11Z</time>
      </trkpt>
      <trkpt lat="45.66295" lon="4.4522">
        <ele>707</ele>
        <time>2019-07-29T11:17:30Z</time>
      </trkpt>
      <trkpt lat="45.66404" lon="4.45046">
        <ele>688</ele>
        <time>2019-07-29T11:18:08Z</time>
      </trkpt>
      <trkpt lat="45.66377" lon="4.44814">
        <ele>671</ele>
        <time>2019-07-29T11:18:46Z</time>
      </trkpt>
      <trkpt lat="45.66302" lon="4.44591">
        <ele>674</ele>
        <time>2019-07-29T11:19:27Z</time>
      </trkpt>
      <trkpt lat="45.66151" lon="4.44413">
        <ele>669</ele>
        <time>2019-07-29T11:20:12Z</time>
      </trkpt>
      <trkpt lat="45.66022" lon="4.44287">
        <ele>664</ele>
        <time>2019-07-29T11:20:49Z</time>
      </trkpt>
      <trkpt lat="45.65867" lon="4.44246">
        <ele>685</ele>
        <time>2019-07-29T11:21:26Z</time>
      </trkpt>
      <trkpt lat="45.65804" lon="4.44158">
        <ele>687</ele>
        <time>2019-07-29T11:21:46Z</time>
      </trkpt>
      <trkpt lat="45.65699" lon="4.44169">
        <ele>710</ele>
        <time>2019-07-29T11:22:11Z</time>
      </trkpt>
      <trkpt lat="45.65632" lon="4.44087">
        <ele>712</ele>
        <time>2019-07-29T11:22:31Z</time>
      </trkpt>
      <trkpt lat="45.6551" lon="4.43922">
        <ele>718</ele>
        <time>2019-07-29T11:23:11Z</time>
      </trkpt>
      <trkpt lat="45.65357" lon="4.43761">
        <ele>722</ele>
        <time>2019-07-29T11:23:55Z</time>
      </trkpt>
      <trkpt lat="45.65203" lon="4.43681">
        <ele>728</ele>
        <time>2019-07-29T11:24:33Z</time>
      </trkpt>
      <trkpt lat="45.6514" lon="4.43716">
        <ele>727</ele>
        <time>2019-07-29T11:24:49Z</time>
      </trkpt>
      <trkpt lat="45.65133" lon="4.43665">
        <ele>726</ele>
        <time>2019-07-29T11:24:58Z</time>
      </trkpt>
      <trkpt lat="45.65086" lon="4.43572">
        <ele>725</ele>
        <time>2019-07-29T11:25:16Z</time>
      </trkpt>
      <trkpt lat="45.65044" lon="4.43415">
        <ele>713</ele>
        <time>2019-07-29T11:25:44Z</time>
      </trkpt>
      <trkpt lat="45.64999" lon="4.4337">
        <ele>705</ele>
        <time>2019-07-29T11:25:57Z</time>
      </trkpt>
      <trkpt lat="45.65075" lon="4.43267">
        <ele>692</ele>
        <time>2019-07-29T11:26:21Z</time>
      </trkpt>
      <trkpt lat="45.65089" lon="4.43136">
        <ele>677</ele>
        <time>2019-07-29T11:26:43Z</time>
      </trkpt>
      <trkpt lat="45.64837" lon="4.42976">
        <ele>678</ele>
        <time>2019-07-29T11:27:47Z</time>
      </trkpt>
      <trkpt lat="45.64757" lon="4.43229">
        <ele>656</ele>
        <time>2019-07-29T11:28:32Z</time>
      </trkpt>
      <trkpt lat="45.64674" lon="4.43212">
        <ele>656</ele>
        <time>2019-07-29T11:28:52Z</time>
      </trkpt>
      <trkpt lat="45.64573" lon="4.4322">
        <ele>649</ele>
        <time>2019-07-29T11:29:16Z</time>
      </trkpt>
      <trkpt lat="45.64504" lon="4.42969">
        <ele>657</ele>
        <time>2019-07-29T11:30:00Z</time>
      </trkpt>
      <trkpt lat="45.64502" lon="4.42791">
        <ele>668</ele>
        <time>2019-07-29T11:30:29Z</time>
      </trkpt>
      <trkpt lat="45.6437" lon="4.42821">
        <ele>655</ele>
        <time>2019-07-29T11:31:00Z</time>
      </trkpt>
      <trkpt lat="45.64256" lon="4.43214">
        <ele>611</ele>
        <time>2019-07-29T11:32:09Z</time>
      </trkpt>
      <trkpt lat="45.64189" lon="4.43312">
        <ele>599</ele>
        <time>2019-07-29T11:32:32Z</time>
      </trkpt>
      <trkpt lat="45.64156" lon="4.43415">
        <ele>596</ele>
        <time>2019-07-29T11:32:50Z</time>
      </trkpt>
      <trkpt lat="45.64153" lon="4.43478">
        <ele>599</ele>
        <time>2019-07-29T11:33:01Z</time>
      </trkpt>
      <trkpt lat="45.64058" lon="4.43639">
        <ele>605</ele>
        <time>2019-07-29T11:33:35Z</time>
      </trkpt>
      <trkpt lat="45.63983" lon="4.43883">
        <ele>600</ele>
        <time>2019-07-29T11:34:18Z</time>
      </trkpt>
      <trkpt lat="45.63976" lon="4.44078">
        <ele>589</ele>
        <time>2019-07-29T11:34:50Z</time>
      </trkpt>
      <trkpt lat="45.63943" lon="4.44192">
        <ele>587</ele>
        <time>2019-07-29T11:35:10Z</time>
      </trkpt>
      <trkpt lat="45.63905" lon="4.44334">
        <ele>591</ele>
        <time>2019-07-29T11:35:35Z</time>
      </trkpt>
      <trkpt lat="45.63904" lon="4.4448">
        <ele>607</ele>
        <time>2019-07-29T11:35:59Z</time>
      </trkpt>
      <trkpt lat="45.6374" lon="4.44654">
        <ele>621</ele>
        <time>2019-07-29T11:36:47Z</time>
      </trkpt>
      <trkpt lat="45.63712" lon="4.44711">
        <ele>623</ele>
        <time>2019-07-29T11:36:58Z</time>
      </trkpt>
      <trkpt lat="45.63767" lon="4.44896">
        <ele>624</ele>
        <time>2019-07-29T11:37:31Z</time>
      </trkpt>
      <trkpt lat="45.63907" lon="4.44748">
        <ele>627</ele>
        <time>2019-07-29T11:38:12Z</time>
      </trkpt>
      <trkpt lat="45.64154" lon="4.44819">
        <ele>625</ele>
        <time>2019-07-29T11:39:10Z</time>
      </trkpt>
      <trkpt lat="45.6436" lon="4.44731">
        <ele>627</ele>
        <time>2019-07-29T11:40:01Z</time>
      </trkpt>
      <trkpt lat="45.64511" lon="4.44649">
        <ele>624</ele>
        <time>2019-07-29T11:40:38Z</time>
      </trkpt>
      <trkpt lat="45.64541" lon="4.44754">
        <ele>631</ele>
        <time>2019-07-29T11:40:57Z</time>
      </trkpt>
      <trkpt lat="45.6445" lon="4.44817">
        <ele>635</ele>
        <time>2019-07-29T11:41:21Z</time>
      </trkpt>
      <trkpt lat="45.64472" lon="4.44969">
        <ele>638</ele>
        <time>2019-07-29T11:41:46Z</time>
      </trkpt>
      <trkpt lat="45.64688" lon="4.45044">
        <ele>639</ele>
        <time>2019-07-29T11:42:38Z</time>
      </trkpt>
      <trkpt lat="45.64606" lon="4.45505">
        <ele>618</ele>
        <time>2019-07-29T11:43:55Z</time>
      </trkpt>
      <trkpt lat="45.64661" lon="4.45643">
        <ele>617</ele>
        <time>2019-07-29T11:44:21Z</time>
      </trkpt>
      <trkpt lat="45.64591" lon="4.45731">
        <ele>611</ele>
        <time>2019-07-29T11:44:43Z</time>
      </trkpt>
      <trkpt lat="45.64504" lon="4.45714">
        <ele>607</ele>
        <time>2019-07-29T11:45:04Z</time>
      </trkpt>
      <trkpt lat="45.64474" lon="4.45913">
        <ele>618</ele>
        <time>2019-07-29T11:45:37Z</time>
      </trkpt>
      <trkpt lat="45.64372" lon="4.45894">
        <ele>627</ele>
        <time>2019-07-29T11:46:01Z</time>
      </trkpt>
      <trkpt lat="45.64309" lon="4.46143">
        <ele>635</ele>
        <time>2019-07-29T11:46:44Z</time>
      </trkpt>
      <trkpt lat="45.64577" lon="4.4616">
        <ele>638</ele>
        <time>2019-07-29T11:47:47Z</time>
      </trkpt>
      <trkpt lat="45.64859" lon="4.46398">
        <ele>633</ele>
        <time>2019-07-29T11:49:03Z</time>
      </trkpt>
      <trkpt lat="45.65056" lon="4.46557">
        <ele>626</ele>
        <time>2019-07-29T11:49:56Z</time>
      </trkpt>
      <trkpt lat="45.65074" lon="4.46746">
        <ele>633</ele>
        <time>2019-07-29T11:50:27Z</time>
      </trkpt>
      <trkpt lat="45.65123" lon="4.46812">
        <ele>636</ele>
        <time>2019-07-29T11:50:43Z</time>
      </trkpt>
      <trkpt lat="45.65066" lon="4.46924">
        <ele>649</ele>
        <time>2019-07-29T11:51:06Z</time>
      </trkpt>
      <trkpt lat="45.65059" lon="4.47001">
        <ele>657</ele>
        <time>2019-07-29T11:51:18Z</time>
      </trkpt>
      <trkpt lat="45.65005" lon="4.47031">
        <ele>658</ele>
        <time>2019-07-29T11:51:32Z</time>
      </trkpt>
      <trkpt lat="45.64928" lon="4.47136">
        <ele>652</ele>
        <time>2019-07-29T11:51:57Z</time>
      </trkpt>
      <trkpt lat="45.64951" lon="4.47283">
        <ele>644</ele>
        <time>2019-07-29T11:52:21Z</time>
      </trkpt>
      <trkpt lat="45.64922" lon="4.47329">
        <ele>637</ele>
        <time>2019-07-29T11:52:31Z</time>
      </trkpt>
      <trkpt lat="45.64904" lon="4.47404">
        <ele>637</ele>
        <time>2019-07-29T11:52:44Z</time>
      </trkpt>
      <trkpt lat="45.64901" lon="4.47497">
        <ele>645</ele>
        <time>2019-07-29T11:52:59Z</time>
      </trkpt>
      <trkpt lat="45.64718" lon="4.474">
        <ele>644</ele>
        <time>2019-07-29T11:53:45Z</time>
      </trkpt>
      <trkpt lat="45.64628" lon="4.47473">
        <ele>650</ele>
        <time>2019-07-29T11:54:09Z</time>
      </trkpt>
      <trkpt lat="45.64456" lon="4.47598">
        <ele>647</ele>
        <time>2019-07-29T11:54:54Z</time>
      </trkpt>
      <trkpt lat="45.64328" lon="4.47537">
        <ele>640</ele>
        <time>2019-07-29T11:55:26Z</time>
      </trkpt>
      <trkpt lat="45.64124" lon="4.47578">
        <ele>622</ele>
        <time>2019-07-29T11:56:14Z</time>
      </trkpt>
      <trkpt lat="45.63989" lon="4.47653">
        <ele>610</ele>
        <time>2019-07-29T11:56:48Z</time>
      </trkpt>
      <trkpt lat="45.64054" lon="4.47943">
        <ele>613</ele>
        <time>2019-07-29T11:57:37Z</time>
      </trkpt>
      <trkpt lat="45.64154" lon="4.48282">
        <ele>634</ele>
        <time>2019-07-29T11:58:37Z</time>
      </trkpt>
      <trkpt lat="45.64216" lon="4.48372">
        <ele>640</ele>
        <time>2019-07-29T11:58:58Z</time>
      </trkpt>
      <trkpt lat="45.64229" lon="4.48833">
        <ele>661</ele>
        <time>2019-07-29T12:00:13Z</time>
      </trkpt>
      <trkpt lat="45.64322" lon="4.49441">
        <ele>684</ele>
        <time>2019-07-29T12:01:55Z</time>
      </trkpt>
      <trkpt lat="45.64283" lon="4.49602">
        <ele>687</ele>
        <time>2019-07-29T12:02:23Z</time>
      </trkpt>
      <trkpt lat="45.64391" lon="4.50024">
        <ele>700</ele>
        <time>2019-07-29T12:03:36Z</time>
      </trkpt>
      <trkpt lat="45.64538" lon="4.50466">
        <ele>694</ele>
        <time>2019-07-29T12:04:56Z</time>
      </trkpt>
      <trkpt lat="45.64673" lon="4.50599">
        <ele>693</ele>
        <time>2019-07-29T12:05:34Z</time>
      </trkpt>
      <trkpt lat="45.64696" lon="4.50799">
        <ele>692</ele>
        <time>2019-07-29T12:06:08Z</time>
      </trkpt>
      <trkpt lat="45.64789" lon="4.50966">
        <ele>689</ele>
        <time>2019-07-29T12:06:42Z</time>
      </trkpt>
      <trkpt lat="45.64945" lon="4.51011">
        <ele>675</ele>
        <time>2019-07-29T12:07:20Z</time>
      </trkpt>
      <trkpt lat="45.65086" lon="4.51095">
        <ele>664</ele>
        <time>2019-07-29T12:07:55Z</time>
      </trkpt>
      <trkpt lat="45.65233" lon="4.51014">
        <ele>662</ele>
        <time>2019-07-29T12:08:32Z</time>
      </trkpt>
      <trkpt lat="45.6523" lon="4.51106">
        <ele>662</ele>
        <time>2019-07-29T12:08:47Z</time>
      </trkpt>
      <trkpt lat="45.65173" lon="4.51191">
        <ele>665</ele>
        <time>2019-07-29T12:09:06Z</time>
      </trkpt>
      <trkpt lat="45.65023" lon="4.51331">
        <ele>663</ele>
        <time>2019-07-29T12:09:48Z</time>
      </trkpt>
      <trkpt lat="45.64978" lon="4.51432">
        <ele>661</ele>
        <time>2019-07-29T12:10:08Z</time>
      </trkpt>
      <trkpt lat="45.64838" lon="4.51479">
        <ele>659</ele>
        <time>2019-07-29T12:10:41Z</time>
      </trkpt>
      <trkpt lat="45.6476" lon="4.51788">
        <ele>689</ele>
        <time>2019-07-29T12:11:35Z</time>
      </trkpt>
      <trkpt lat="45.64756" lon="4.52011">
        <ele>700</ele>
        <time>2019-07-29T12:12:11Z</time>
      </trkpt>
      <trkpt lat="45.64964" lon="4.52559">
        <ele>699</ele>
        <time>2019-07-29T12:13:53Z</time>
      </trkpt>
      <trkpt lat="45.65029" lon="4.52713">
        <ele>695</ele>
        <time>2019-07-29T12:14:22Z</time>
      </trkpt>
      <trkpt lat="45.65273" lon="4.52814">
        <ele>693</ele>
        <time>2019-07-29T12:15:22Z</time>
      </trkpt>
      <trkpt lat="45.65378" lon="4.52958">
        <ele>683</ele>
        <time>2019-07-29T12:15:56Z</time>
      </trkpt>
      <trkpt lat="45.65584" lon="4.532">
        <ele>677</ele>
        <time>2019-07-29T12:16:58Z</time>
      </trkpt>
      <trkpt lat="45.65824" lon="4.53601">
        <ele>676</ele>
        <time>2019-07-29T12:18:24Z</time>
      </trkpt>
      <trkpt lat="45.65824" lon="4.53865">
        <ele>665</ele>
        <time>2019-07-29T12:19:07Z</time>
      </trkpt>
      <trkpt lat="45.65843" lon="4.54157">
        <ele>646</ele>
        <time>2019-07-29T12:19:55Z</time>
      </trkpt>
      <trkpt lat="45.65839" lon="4.54359">
        <ele>629</ele>
        <time>2019-07-29T12:20:28Z</time>
      </trkpt>
      <trkpt lat="45.65824" lon="4.54483">
        <ele>624</ele>
        <time>2019-07-29T12:20:49Z</time>
      </trkpt>
      <trkpt lat="45.6581" lon="4.5455">
        <ele>626</ele>
        <time>2019-07-29T12:21:00Z</time>
      </trkpt>
      <trkpt lat="45.65854" lon="4.54775">
        <ele>641</ele>
        <time>2019-07-29T12:21:38Z</time>
      </trkpt>
      <trkpt lat="45.65888" lon="4.54878">
        <ele>649</ele>
        <time>2019-07-29T12:21:57Z</time>
      </trkpt>
      <trkpt lat="45.65854" lon="4.54827">
        <ele>647</ele>
        <time>2019-07-29T12:22:08Z</time>
      </trkpt>
      <trkpt lat="45.65779" lon="4.55067">
        <ele>671</ele>
        <time>2019-07-29T12:22:51Z</time>
      </trkpt>
      <trkpt lat="45.65885" lon="4.55142">
        <ele>677</ele>
        <time>2019-07-29T12:23:19Z</time>
      </trkpt>
      <trkpt lat="45.65866" lon="4.55294">
        <ele>687</ele>
        <time>2019-07-29T12:23:44Z</time>
      </trkpt>
      <trkpt lat="45.65869" lon="4.55541">
        <ele>694</ele>
        <time>2019-07-29T12:24:24Z</time>
      </trkpt>
      <trkpt lat="45.65918" lon="4.55728">
        <ele>708</ele>
        <time>2019-07-29T12:24:57Z</time>
      </trkpt>
      <trkpt lat="45.66088" lon="4.55876">
        <ele>718</ele>
        <time>2019-07-29T12:25:43Z</time>
      </trkpt>
      <trkpt lat="45.66104" lon="4.55992">
        <ele>728</ele>
        <time>2019-07-29T12:26:03Z</time>
      </trkpt>
      <trkpt lat="45.66167" lon="4.56037">
        <ele>726</ele>
        <time>2019-07-29T12:26:19Z</time>
      </trkpt>
      <trkpt lat="45.66172" lon="4.5605">
        <ele>727</ele>
        <time>2019-07-29T12:26:22Z</time>
      </trkpt>
    </trkseg>
  </trk>
</gpx>